Wetterdaten: Mittwoch, 16.05.2018
Datum Zeit Temp. A. Feuchte A. Luftdruck Regen Wind Richtung Richtung Sonnenschein ET UV Solar Taupunkt Windchill Windböen
16.05.2018 00:00 7,7 °C 92 % 1012,3 hPa 0,0 mm 1,8 km/h (1 Bft) S-SW 210 ° 0 min 0,000 mm 0,0 UV-I 0 W/m² 6,5 °C 7,7 °C 3,2 km/h (1 Bft)
16.05.2018 00:01 7,7 °C 92 % 1012,3 hPa 0,0 mm 0,6 km/h (0 Bft) S-SW 210 ° 0 min 0,000 mm 0,0 UV-I 0 W/m² 6,5 °C 7,7 °C 1,6 km/h (1 Bft)
16.05.2018 00:02 7,7 °C 92 % 1012,3 hPa 0,0 mm 0,1 km/h (0 Bft) S-SW 210 ° 0 min 0,000 mm 0,0 UV-I 0 W/m² 6,5 °C 7,7 °C 1,6 km/h (1 Bft)
16.05.2018 00:03 7,7 °C 92 % 1012,3 hPa 0,0 mm 1,6 km/h (1 Bft) S-SW 205 ° 0 min 0,000 mm 0,0 UV-I 0 W/m² 6,5 °C 7,7 °C 4,8 km/h (1 Bft)
16.05.2018 00:04 7,7 °C 92 % 1012,3 hPa 0,0 mm 3,1 km/h (1 Bft) S-SW 199 ° 0 min 0,000 mm 0,0 UV-I 0 W/m² 6,5 °C 7,7 °C 6,4 km/h (2 Bft)
16.05.2018 00:05 7,7 °C 92 % 1012,2 hPa 0,0 mm 4,4 km/h (1 Bft) W-SW 238 ° 0 min 0,000 mm 0,0 UV-I 0 W/m² 6,5 °C 7,7 °C 6,4 km/h (2 Bft)
16.05.2018 00:06 7,7 °C 92 % 1012,3 hPa 0,0 mm 3,7 km/h (1 Bft) W-SW 246 ° 0 min 0,000 mm 0,0 UV-I 0 W/m² 6,5 °C 7,7 °C 6,4 km/h (2 Bft)
16.05.2018 00:07 7,7 °C 92 % 1012,2 hPa 0,0 mm 3,5 km/h (1 Bft) S 190 ° 0 min 0,000 mm 0,0 UV-I 0 W/m² 6,5 °C 7,7 °C 6,4 km/h (2 Bft)
16.05.2018 00:08 7,7 °C 92 % 1012,3 hPa 0,0 mm 0,6 km/h (0 Bft) S 190 ° 0 min 0,000 mm 0,0 UV-I 0 W/m² 6,5 °C 7,7 °C 1,6 km/h (1 Bft)
16.05.2018 00:09 7,7 °C 92 % 1012,3 hPa 0,0 mm 0,0 km/h (0 Bft) S 190 ° 0 min 0,000 mm 0,0 UV-I 0 W/m² 6,5 °C 7,7 °C 0,0 km/h (0 Bft)
16.05.2018 00:10 7,7 °C 92 % 1012,4 hPa 0,0 mm 1,3 km/h (1 Bft) S-SW 207 ° 0 min 0,000 mm 0,0 UV-I 0 W/m² 6,5 °C 7,7 °C 3,2 km/h (1 Bft)
16.05.2018 00:11 7,7 °C 92 % 1012,3 hPa 0,0 mm 0,3 km/h (0 Bft) SW 233 ° 0 min 0,000 mm 0,0 UV-I 0 W/m² 6,5 °C 7,7 °C 3,2 km/h (1 Bft)
16.05.2018 00:12 7,7 °C 92 % 1012,3 hPa 0,0 mm 2,5 km/h (1 Bft) SW 235 ° 0 min 0,000 mm 0,0 UV-I 0 W/m² 6,5 °C 7,7 °C 4,8 km/h (1 Bft)
16.05.2018 00:13 7,7 °C 92 % 1012,3 hPa 0,0 mm 0,5 km/h (0 Bft) SW 235 ° 0 min 0,000 mm 0,0 UV-I 0 W/m² 6,5 °C 7,7 °C 1,6 km/h (1 Bft)
16.05.2018 00:14 7,7 °C 92 % 1012,3 hPa 0,0 mm 0,7 km/h (0 Bft) SW 235 ° 0 min 0,000 mm 0,0 UV-I 0 W/m² 6,5 °C 7,7 °C 1,6 km/h (1 Bft)
16.05.2018 00:15 7,7 °C 92 % 1012,3 hPa 0,0 mm 0,0 km/h (0 Bft) SW 235 ° 0 min 0,000 mm 0,0 UV-I 0 W/m² 6,5 °C 7,7 °C 0,0 km/h (0 Bft)
16.05.2018 00:16 7,7 °C 92 % 1012,3 hPa 0,0 mm 0,0 km/h (0 Bft) SW 235 ° 0 min 0,000 mm 0,0 UV-I 0 W/m² 6,5 °C 7,7 °C 0,0 km/h (0 Bft)
16.05.2018 00:17 7,7 °C 92 % 1012,3 hPa 0,0 mm 2,0 km/h (1 Bft) W-SW 256 ° 0 min 0,000 mm 0,0 UV-I 0 W/m² 6,5 °C 7,7 °C 6,4 km/h (2 Bft)
16.05.2018 00:18 7,7 °C 92 % 1012,3 hPa 0,0 mm 2,0 km/h (1 Bft) W-SW 252 ° 0 min 0,000 mm 0,0 UV-I 0 W/m² 6,5 °C 7,7 °C 6,4 km/h (2 Bft)
16.05.2018 00:19 7,7 °C 92 % 1012,3 hPa 0,0 mm 7,8 km/h (2 Bft) S-SW 207 ° 0 min 0,000 mm 0,0 UV-I 0 W/m² 6,5 °C 6,4 °C 14,5 km/h (3 Bft)
16.05.2018 00:20 7,7 °C 92 % 1012,3 hPa 0,0 mm 3,2 km/h (1 Bft) S 175 ° 0 min 0,000 mm 0,0 UV-I 0 W/m² 6,5 °C 7,7 °C 6,4 km/h (2 Bft)
16.05.2018 00:21 7,7 °C 92 % 1012,3 hPa 0,0 mm 3,4 km/h (1 Bft) W-SW 254 ° 0 min 0,000 mm 0,0 UV-I 0 W/m² 6,5 °C 7,7 °C 8,0 km/h (2 Bft)
16.05.2018 00:22 7,7 °C 92 % 1012,2 hPa 0,0 mm 4,5 km/h (1 Bft) W-SW 241 ° 0 min 0,000 mm 0,0 UV-I 0 W/m² 6,5 °C 7,7 °C 9,7 km/h (2 Bft)
16.05.2018 00:23 7,7 °C 92 % 1012,2 hPa 0,0 mm 0,6 km/h (0 Bft) W-SW 241 ° 0 min 0,000 mm 0,0 UV-I 0 W/m² 6,5 °C 7,7 °C 3,2 km/h (1 Bft)
16.05.2018 00:24 7,7 °C 92 % 1012,3 hPa 0,0 mm 7,2 km/h (2 Bft) SW 234 ° 0 min 0,000 mm 0,0 UV-I 0 W/m² 6,5 °C 6,5 °C 14,5 km/h (3 Bft)
16.05.2018 00:25 7,7 °C 92 % 1012,2 hPa 0,0 mm 3,6 km/h (1 Bft) W-SW 238 ° 0 min 0,000 mm 0,0 UV-I 0 W/m² 6,5 °C 7,7 °C 6,4 km/h (2 Bft)
16.05.2018 00:26 7,7 °C 92 % 1012,2 hPa 0,0 mm 1,7 km/h (1 Bft) W 275 ° 0 min 0,000 mm 0,0 UV-I 0 W/m² 6,5 °C 7,7 °C 6,4 km/h (2 Bft)
16.05.2018 00:27 7,7 °C 92 % 1012,1 hPa 0,0 mm 5,1 km/h (1 Bft) S-SW 211 ° 0 min 0,000 mm 0,0 UV-I 0 W/m² 6,5 °C 7,1 °C 9,7 km/h (2 Bft)
16.05.2018 00:28 7,7 °C 92 % 1012,1 hPa 0,0 mm 3,5 km/h (1 Bft) W 262 ° 0 min 0,000 mm 0,0 UV-I 0 W/m² 6,5 °C 7,7 °C 6,4 km/h (2 Bft)
16.05.2018 00:29 7,7 °C 92 % 1012,1 hPa 0,0 mm 3,1 km/h (1 Bft) S-SW 196 ° 0 min 0,000 mm 0,0 UV-I 0 W/m² 6,5 °C 7,7 °C 11,3 km/h (2 Bft)
16.05.2018 00:30 7,7 °C 92 % 1012,1 hPa 0,0 mm 5,4 km/h (1 Bft) W 264 ° 0 min 0,000 mm 0,0 UV-I 0 W/m² 6,5 °C 7,0 °C 11,3 km/h (2 Bft)
16.05.2018 00:31 7,7 °C 92 % 1012,1 hPa 0,0 mm 3,7 km/h (1 Bft) W 277 ° 0 min 0,000 mm 0,0 UV-I 0 W/m² 6,5 °C 7,7 °C 9,7 km/h (2 Bft)
16.05.2018 00:32 7,6 °C 92 % 1012,1 hPa 0,0 mm 4,4 km/h (1 Bft) W 276 ° 0 min 0,000 mm 0,0 UV-I 0 W/m² 6,4 °C 7,6 °C 9,7 km/h (2 Bft)
16.05.2018 00:33 7,6 °C 92 % 1012,1 hPa 0,0 mm 3,2 km/h (1 Bft) W-SW 253 ° 0 min 0,000 mm 0,0 UV-I 0 W/m² 6,4 °C 7,6 °C 6,4 km/h (2 Bft)
16.05.2018 00:34 7,6 °C 92 % 1012,1 hPa 0,0 mm 2,0 km/h (1 Bft) SW 225 ° 0 min 0,000 mm 0,0 UV-I 0 W/m² 6,4 °C 7,6 °C 4,8 km/h (1 Bft)
16.05.2018 00:35 7,6 °C 92 % 1012,2 hPa 0,0 mm 0,7 km/h (0 Bft) SW 225 ° 0 min 0,000 mm 0,0 UV-I 0 W/m² 6,4 °C 7,6 °C 3,2 km/h (1 Bft)
16.05.2018 00:36 7,6 °C 92 % 1012,2 hPa 0,0 mm 0,9 km/h (0 Bft) SW 233 ° 0 min 0,000 mm 0,0 UV-I 0 W/m² 6,4 °C 7,6 °C 4,8 km/h (1 Bft)
16.05.2018 00:37 7,6 °C 92 % 1012,2 hPa 0,0 mm 5,3 km/h (1 Bft) S 188 ° 0 min 0,000 mm 0,0 UV-I 0 W/m² 6,4 °C 6,9 °C 9,7 km/h (2 Bft)
16.05.2018 00:38 7,6 °C 92 % 1012,2 hPa 0,0 mm 2,4 km/h (1 Bft) SW 217 ° 0 min 0,000 mm 0,0 UV-I 0 W/m² 6,4 °C 7,6 °C 6,4 km/h (2 Bft)
16.05.2018 00:39 7,6 °C 92 % 1012,2 hPa 0,0 mm 4,0 km/h (1 Bft) S 190 ° 0 min 0,000 mm 0,0 UV-I 0 W/m² 6,4 °C 7,6 °C 8,0 km/h (2 Bft)
16.05.2018 00:40 7,6 °C 92 % 1012,2 hPa 0,0 mm 1,2 km/h (1 Bft) S 189 ° 0 min 0,000 mm 0,0 UV-I 0 W/m² 6,4 °C 7,6 °C 3,2 km/h (1 Bft)
16.05.2018 00:41 7,6 °C 92 % 1012,2 hPa 0,0 mm 3,2 km/h (1 Bft) W 271 ° 0 min 0,000 mm 0,0 UV-I 0 W/m² 6,4 °C 7,6 °C 6,4 km/h (2 Bft)
16.05.2018 00:42 7,6 °C 92 % 1012,2 hPa 0,0 mm 3,7 km/h (1 Bft) W 275 ° 0 min 0,000 mm 0,0 UV-I 0 W/m² 6,4 °C 7,6 °C 4,8 km/h (1 Bft)
16.05.2018 00:43 7,6 °C 92 % 1012,3 hPa 0,0 mm 4,4 km/h (1 Bft) SW 224 ° 0 min 0,000 mm 0,0 UV-I 0 W/m² 6,4 °C 7,6 °C 9,7 km/h (2 Bft)
16.05.2018 00:44 7,6 °C 92 % 1012,3 hPa 0,0 mm 1,5 km/h (1 Bft) SW 224 ° 0 min 0,000 mm 0,0 UV-I 0 W/m² 6,4 °C 7,6 °C 4,8 km/h (1 Bft)
16.05.2018 00:45 7,6 °C 92 % 1012,3 hPa 0,0 mm 0,0 km/h (0 Bft) SW 224 ° 0 min 0,000 mm 0,0 UV-I 0 W/m² 6,4 °C 7,6 °C 0,0 km/h (0 Bft)
16.05.2018 00:46 7,6 °C 92 % 1012,3 hPa 0,0 mm 0,7 km/h (0 Bft) SW 224 ° 0 min 0,000 mm 0,0 UV-I 0 W/m² 6,4 °C 7,6 °C 3,2 km/h (1 Bft)
16.05.2018 00:47 7,6 °C 92 % 1012,3 hPa 0,0 mm 0,0 km/h (0 Bft) SW 224 ° 0 min 0,000 mm 0,0 UV-I 0 W/m² 6,4 °C 7,6 °C 0,0 km/h (0 Bft)
16.05.2018 00:48 7,6 °C 92 % 1012,3 hPa 0,0 mm 0,1 km/h (0 Bft) SW 224 ° 0 min 0,000 mm 0,0 UV-I 0 W/m² 6,4 °C 7,6 °C 1,6 km/h (1 Bft)
16.05.2018 00:49 7,6 °C 92 % 1012,2 hPa 0,0 mm 0,6 km/h (0 Bft) SW 224 ° 0 min 0,000 mm 0,0 UV-I 0 W/m² 6,4 °C 7,6 °C 1,6 km/h (1 Bft)
16.05.2018 00:50 7,6 °C 92 % 1012,2 hPa 0,0 mm 1,5 km/h (1 Bft) SW 224 ° 0 min 0,000 mm 0,0 UV-I 0 W/m² 6,4 °C 7,6 °C 3,2 km/h (1 Bft)
16.05.2018 00:51 7,6 °C 92 % 1012,2 hPa 0,0 mm 1,4 km/h (1 Bft) SW 224 ° 0 min 0,000 mm 0,0 UV-I 0 W/m² 6,4 °C 7,6 °C 4,8 km/h (1 Bft)
16.05.2018 00:52 7,6 °C 92 % 1012,2 hPa 0,0 mm 2,6 km/h (1 Bft) W-SW 244 ° 0 min 0,000 mm 0,0 UV-I 0 W/m² 6,4 °C 7,6 °C 4,8 km/h (1 Bft)
16.05.2018 00:53 7,6 °C 92 % 1012,2 hPa 0,0 mm 2,4 km/h (1 Bft) W-SW 241 ° 0 min 0,000 mm 0,0 UV-I 0 W/m² 6,4 °C 7,6 °C 3,2 km/h (1 Bft)
16.05.2018 00:54 7,6 °C 92 % 1012,2 hPa 0,0 mm 3,3 km/h (1 Bft) W 264 ° 0 min 0,000 mm 0,0 UV-I 0 W/m² 6,4 °C 7,6 °C 4,8 km/h (1 Bft)
16.05.2018 00:55 7,7 °C 92 % 1012,2 hPa 0,0 mm 3,4 km/h (1 Bft) W-SW 248 ° 0 min 0,000 mm 0,0 UV-I 0 W/m² 6,5 °C 7,7 °C 4,8 km/h (1 Bft)
16.05.2018 00:56 7,7 °C 92 % 1012,2 hPa 0,0 mm 2,8 km/h (1 Bft) W-SW 248 ° 0 min 0,000 mm 0,0 UV-I 0 W/m² 6,5 °C 7,7 °C 6,4 km/h (2 Bft)
16.05.2018 00:57 7,7 °C 92 % 1012,2 hPa 0,0 mm 2,1 km/h (1 Bft) W-NW 287 ° 0 min 0,000 mm 0,0 UV-I 0 W/m² 6,5 °C 7,7 °C 9,7 km/h (2 Bft)
16.05.2018 00:58 7,7 °C 92 % 1012,1 hPa 0,0 mm 8,4 km/h (2 Bft) W 260 ° 0 min 0,000 mm 0,0 UV-I 0 W/m² 6,5 °C 6,2 °C 12,9 km/h (3 Bft)
16.05.2018 00:59 7,7 °C 92 % 1012,1 hPa 0,0 mm 3,2 km/h (1 Bft) W-SW 237 ° 0 min 0,000 mm 0,0 UV-I 0 W/m² 6,5 °C 7,7 °C 6,4 km/h (2 Bft)
16.05.2018 01:00 7,7 °C 92 % 1012,1 hPa 0,0 mm 3,9 km/h (1 Bft) W-SW 254 ° 0 min 0,000 mm 0,0 UV-I 0 W/m² 6,5 °C 7,7 °C 8,0 km/h (2 Bft)
16.05.2018 01:01 7,7 °C 92 % 1012,1 hPa 0,0 mm 5,6 km/h (1 Bft) W 271 ° 0 min 0,000 mm 0,0 UV-I 0 W/m² 6,5 °C 6,9 °C 12,9 km/h (3 Bft)
16.05.2018 01:02 7,7 °C 92 % 1012,1 hPa 0,0 mm 2,8 km/h (1 Bft) W-SW 255 ° 0 min 0,000 mm 0,0 UV-I 0 W/m² 6,5 °C 7,7 °C 4,8 km/h (1 Bft)
16.05.2018 01:03 7,7 °C 92 % 1012,1 hPa 0,0 mm 4,8 km/h (1 Bft) W-SW 256 ° 0 min 0,000 mm 0,0 UV-I 0 W/m² 6,5 °C 7,2 °C 8,0 km/h (2 Bft)
16.05.2018 01:04 7,7 °C 91 % 1012,0 hPa 0,0 mm 4,8 km/h (1 Bft) SW 217 ° 0 min 0,000 mm 0,0 UV-I 0 W/m² 6,3 °C 7,2 °C 8,0 km/h (2 Bft)
16.05.2018 01:05 7,7 °C 92 % 1012,0 hPa 0,0 mm 4,4 km/h (1 Bft) W-SW 250 ° 0 min 0,000 mm 0,0 UV-I 0 W/m² 6,5 °C 7,7 °C 8,0 km/h (2 Bft)
16.05.2018 01:06 7,7 °C 92 % 1012,0 hPa 0,0 mm 4,4 km/h (1 Bft) SW 236 ° 0 min 0,000 mm 0,0 UV-I 0 W/m² 6,5 °C 7,7 °C 8,0 km/h (2 Bft)
16.05.2018 01:07 7,7 °C 92 % 1012,0 hPa 0,0 mm 8,4 km/h (2 Bft) W-SW 238 ° 0 min 0,000 mm 0,0 UV-I 0 W/m² 6,5 °C 6,2 °C 12,9 km/h (3 Bft)
16.05.2018 01:08 7,7 °C 92 % 1012,0 hPa 0,0 mm 3,1 km/h (1 Bft) W-NW 284 ° 0 min 0,000 mm 0,0 UV-I 0 W/m² 6,5 °C 7,7 °C 8,0 km/h (2 Bft)
16.05.2018 01:09 7,7 °C 92 % 1011,9 hPa 0,0 mm 4,0 km/h (1 Bft) W 279 ° 0 min 0,000 mm 0,0 UV-I 0 W/m² 6,5 °C 7,7 °C 6,4 km/h (2 Bft)
16.05.2018 01:10 7,7 °C 92 % 1011,9 hPa 0,0 mm 6,0 km/h (2 Bft) SW 226 ° 0 min 0,000 mm 0,0 UV-I 0 W/m² 6,5 °C 6,8 °C 11,3 km/h (2 Bft)
16.05.2018 01:11 7,7 °C 91 % 1011,9 hPa 0,0 mm 4,5 km/h (1 Bft) W 262 ° 0 min 0,000 mm 0,0 UV-I 0 W/m² 6,3 °C 7,7 °C 8,0 km/h (2 Bft)
16.05.2018 01:12 7,7 °C 91 % 1011,9 hPa 0,0 mm 7,0 km/h (2 Bft) W 265 ° 0 min 0,000 mm 0,0 UV-I 0 W/m² 6,3 °C 6,6 °C 11,3 km/h (2 Bft)
16.05.2018 01:13 7,7 °C 91 % 1011,9 hPa 0,0 mm 5,1 km/h (1 Bft) W 271 ° 0 min 0,000 mm 0,0 UV-I 0 W/m² 6,3 °C 7,1 °C 8,0 km/h (2 Bft)
16.05.2018 01:14 7,7 °C 91 % 1011,9 hPa 0,0 mm 5,4 km/h (1 Bft) W-SW 250 ° 0 min 0,000 mm 0,0 UV-I 0 W/m² 6,3 °C 7,0 °C 9,7 km/h (2 Bft)
16.05.2018 01:15 7,7 °C 91 % 1012,0 hPa 0,0 mm 8,2 km/h (2 Bft) W-NW 289 ° 0 min 0,000 mm 0,0 UV-I 0 W/m² 6,3 °C 6,3 °C 12,9 km/h (3 Bft)
16.05.2018 01:16 7,7 °C 91 % 1011,9 hPa 0,0 mm 6,5 km/h (2 Bft) W-SW 250 ° 0 min 0,000 mm 0,0 UV-I 0 W/m² 6,3 °C 6,7 °C 9,7 km/h (2 Bft)
16.05.2018 01:17 7,7 °C 91 % 1011,9 hPa 0,0 mm 9,7 km/h (2 Bft) W 262 ° 0 min 0,000 mm 0,0 UV-I 0 W/m² 6,3 °C 5,9 °C 16,1 km/h (3 Bft)
16.05.2018 01:18 7,7 °C 91 % 1011,9 hPa 0,0 mm 3,7 km/h (1 Bft) W 271 ° 0 min 0,000 mm 0,0 UV-I 0 W/m² 6,3 °C 7,7 °C 11,3 km/h (2 Bft)
16.05.2018 01:19 7,7 °C 91 % 1011,9 hPa 0,0 mm 5,5 km/h (1 Bft) W-SW 254 ° 0 min 0,000 mm 0,0 UV-I 0 W/m² 6,3 °C 7,0 °C 8,0 km/h (2 Bft)
16.05.2018 01:20 7,7 °C 91 % 1011,9 hPa 0,0 mm 4,1 km/h (1 Bft) W 269 ° 0 min 0,000 mm 0,0 UV-I 0 W/m² 6,3 °C 7,7 °C 6,4 km/h (2 Bft)
16.05.2018 01:21 7,7 °C 91 % 1012,0 hPa 0,0 mm 1,6 km/h (1 Bft) W-SW 240 ° 0 min 0,000 mm 0,0 UV-I 0 W/m² 6,3 °C 7,7 °C 4,8 km/h (1 Bft)
16.05.2018 01:22 7,7 °C 91 % 1011,9 hPa 0,0 mm 3,7 km/h (1 Bft) W-SW 238 ° 0 min 0,000 mm 0,0 UV-I 0 W/m² 6,3 °C 7,7 °C 6,4 km/h (2 Bft)
16.05.2018 01:23 7,7 °C 91 % 1011,9 hPa 0,0 mm 3,2 km/h (1 Bft) SW 228 ° 0 min 0,000 mm 0,0 UV-I 0 W/m² 6,3 °C 7,7 °C 4,8 km/h (1 Bft)
16.05.2018 01:24 7,7 °C 91 % 1011,9 hPa 0,0 mm 3,3 km/h (1 Bft) W-SW 244 ° 0 min 0,000 mm 0,0 UV-I 0 W/m² 6,3 °C 7,7 °C 4,8 km/h (1 Bft)
16.05.2018 01:25 7,7 °C 91 % 1011,9 hPa 0,0 mm 2,8 km/h (1 Bft) W-SW 253 ° 0 min 0,000 mm 0,0 UV-I 0 W/m² 6,3 °C 7,7 °C 6,4 km/h (2 Bft)
16.05.2018 01:26 7,7 °C 91 % 1011,9 hPa 0,0 mm 4,8 km/h (1 Bft) SW 227 ° 0 min 0,000 mm 0,0 UV-I 0 W/m² 6,3 °C 7,2 °C 12,9 km/h (3 Bft)
16.05.2018 01:27 7,7 °C 91 % 1011,8 hPa 0,0 mm 5,4 km/h (1 Bft) SW 229 ° 0 min 0,000 mm 0,0 UV-I 0 W/m² 6,3 °C 7,0 °C 9,7 km/h (2 Bft)
16.05.2018 01:28 7,7 °C 91 % 1011,9 hPa 0,0 mm 4,4 km/h (1 Bft) W-SW 252 ° 0 min 0,000 mm 0,0 UV-I 0 W/m² 6,3 °C 7,7 °C 8,0 km/h (2 Bft)
16.05.2018 01:29 7,7 °C 91 % 1011,8 hPa 0,0 mm 2,5 km/h (1 Bft) W-SW 252 ° 0 min 0,000 mm 0,0 UV-I 0 W/m² 6,3 °C 7,7 °C 3,2 km/h (1 Bft)
16.05.2018 01:30 7,7 °C 91 % 1011,8 hPa 0,0 mm 3,2 km/h (1 Bft) SW 227 ° 0 min 0,000 mm 0,0 UV-I 0 W/m² 6,3 °C 7,7 °C 11,3 km/h (2 Bft)
16.05.2018 01:31 7,7 °C 91 % 1011,8 hPa 0,0 mm 3,2 km/h (1 Bft) W-SW 254 ° 0 min 0,000 mm 0,0 UV-I 0 W/m² 6,3 °C 7,7 °C 4,8 km/h (1 Bft)
16.05.2018 01:32 7,7 °C 91 % 1011,8 hPa 0,0 mm 2,7 km/h (1 Bft) W-SW 254 ° 0 min 0,000 mm 0,0 UV-I 0 W/m² 6,3 °C 7,7 °C 4,8 km/h (1 Bft)
16.05.2018 01:33 7,7 °C 91 % 1011,8 hPa 0,0 mm 4,8 km/h (1 Bft) W 259 ° 0 min 0,000 mm 0,0 UV-I 0 W/m² 6,3 °C 7,2 °C 9,7 km/h (2 Bft)
16.05.2018 01:34 7,7 °C 91 % 1011,7 hPa 0,0 mm 5,0 km/h (1 Bft) W-SW 257 ° 0 min 0,000 mm 0,0 UV-I 0 W/m² 6,3 °C 7,1 °C 11,3 km/h (2 Bft)
16.05.2018 01:35 7,7 °C 91 % 1011,7 hPa 0,0 mm 2,8 km/h (1 Bft) W-SW 257 ° 0 min 0,000 mm 0,0 UV-I 0 W/m² 6,3 °C 7,7 °C 4,8 km/h (1 Bft)
16.05.2018 01:36 7,7 °C 91 % 1011,7 hPa 0,0 mm 3,9 km/h (1 Bft) W-SW 241 ° 0 min 0,000 mm 0,0 UV-I 0 W/m² 6,3 °C 7,7 °C 6,4 km/h (2 Bft)
16.05.2018 01:37 7,7 °C 91 % 1011,6 hPa 0,0 mm 4,2 km/h (1 Bft) W 270 ° 0 min 0,000 mm 0,0 UV-I 0 W/m² 6,3 °C 7,7 °C 11,3 km/h (2 Bft)
16.05.2018 01:38 7,7 °C 91 % 1011,6 hPa 0,0 mm 4,4 km/h (1 Bft) W-SW 240 ° 0 min 0,000 mm 0,0 UV-I 0 W/m² 6,3 °C 7,7 °C 8,0 km/h (2 Bft)
16.05.2018 01:39 7,6 °C 91 % 1011,6 hPa 0,0 mm 4,7 km/h (1 Bft) W-SW 258 ° 0 min 0,000 mm 0,0 UV-I 0 W/m² 6,2 °C 7,1 °C 11,3 km/h (2 Bft)
16.05.2018 01:40 7,6 °C 91 % 1011,6 hPa 0,0 mm 1,7 km/h (1 Bft) SW 226 ° 0 min 0,000 mm 0,0 UV-I 0 W/m² 6,2 °C 7,6 °C 3,2 km/h (1 Bft)
16.05.2018 01:41 7,7 °C 91 % 1011,7 hPa 0,0 mm 3,6 km/h (1 Bft) SW 223 ° 0 min 0,000 mm 0,0 UV-I 0 W/m² 6,3 °C 7,7 °C 8,0 km/h (2 Bft)
16.05.2018 01:42 7,7 °C 91 % 1011,7 hPa 0,0 mm 2,0 km/h (1 Bft) SW 223 ° 0 min 0,000 mm 0,0 UV-I 0 W/m² 6,3 °C 7,7 °C 3,2 km/h (1 Bft)
16.05.2018 01:43 7,7 °C 91 % 1011,6 hPa 0,0 mm 3,6 km/h (1 Bft) NW 304 ° 0 min 0,000 mm 0,0 UV-I 0 W/m² 6,3 °C 7,7 °C 6,4 km/h (2 Bft)
16.05.2018 01:44 7,7 °C 91 % 1011,6 hPa 0,0 mm 2,8 km/h (1 Bft) W 273 ° 0 min 0,000 mm 0,0 UV-I 0 W/m² 6,3 °C 7,7 °C 4,8 km/h (1 Bft)
16.05.2018 01:45 7,7 °C 91 % 1011,6 hPa 0,0 mm 2,5 km/h (1 Bft) W 271 ° 0 min 0,000 mm 0,0 UV-I 0 W/m² 6,3 °C 7,7 °C 3,2 km/h (1 Bft)
16.05.2018 01:46 7,7 °C 91 % 1011,6 hPa 0,0 mm 1,5 km/h (1 Bft) W-SW 252 ° 0 min 0,000 mm 0,0 UV-I 0 W/m² 6,3 °C 7,7 °C 8,0 km/h (2 Bft)
16.05.2018 01:47 7,7 °C 91 % 1011,6 hPa 0,0 mm 3,6 km/h (1 Bft) W-SW 238 ° 0 min 0,000 mm 0,0 UV-I 0 W/m² 6,3 °C 7,7 °C 6,4 km/h (2 Bft)
16.05.2018 01:48 7,7 °C 91 % 1011,6 hPa 0,0 mm 2,0 km/h (1 Bft) W-SW 238 ° 0 min 0,000 mm 0,0 UV-I 0 W/m² 6,3 °C 7,7 °C 3,2 km/h (1 Bft)
16.05.2018 01:49 7,7 °C 91 % 1011,6 hPa 0,0 mm 0,9 km/h (0 Bft) W-SW 241 ° 0 min 0,000 mm 0,0 UV-I 0 W/m² 6,3 °C 7,7 °C 1,6 km/h (1 Bft)
16.05.2018 01:50 7,7 °C 90 % 1011,7 hPa 0,0 mm 2,6 km/h (1 Bft) W-SW 242 ° 0 min 0,000 mm 0,0 UV-I 0 W/m² 6,2 °C 7,7 °C 4,8 km/h (1 Bft)
16.05.2018 01:51 7,7 °C 90 % 1011,6 hPa 0,0 mm 3,2 km/h (1 Bft) SW 226 ° 0 min 0,000 mm 0,0 UV-I 0 W/m² 6,2 °C 7,7 °C 4,8 km/h (1 Bft)
16.05.2018 01:52 7,7 °C 90 % 1011,6 hPa 0,0 mm 0,4 km/h (0 Bft) SW 226 ° 0 min 0,000 mm 0,0 UV-I 0 W/m² 6,2 °C 7,7 °C 3,2 km/h (1 Bft)
16.05.2018 01:53 7,7 °C 90 % 1011,6 hPa 0,0 mm 2,5 km/h (1 Bft) SW 226 ° 0 min 0,000 mm 0,0 UV-I 0 W/m² 6,2 °C 7,7 °C 3,2 km/h (1 Bft)
16.05.2018 01:54 7,7 °C 90 % 1011,6 hPa 0,0 mm 3,4 km/h (1 Bft) W 265 ° 0 min 0,000 mm 0,0 UV-I 0 W/m² 6,2 °C 7,7 °C 4,8 km/h (1 Bft)
16.05.2018 01:55 7,7 °C 90 % 1011,5 hPa 0,0 mm 4,2 km/h (1 Bft) W-SW 256 ° 0 min 0,000 mm 0,0 UV-I 0 W/m² 6,2 °C 7,7 °C 8,0 km/h (2 Bft)
16.05.2018 01:56 7,7 °C 90 % 1011,5 hPa 0,0 mm 7,3 km/h (2 Bft) SW 226 ° 0 min 0,000 mm 0,0 UV-I 0 W/m² 6,2 °C 6,5 °C 14,5 km/h (3 Bft)
16.05.2018 01:57 7,7 °C 90 % 1011,5 hPa 0,0 mm 3,3 km/h (1 Bft) SW 217 ° 0 min 0,000 mm 0,0 UV-I 0 W/m² 6,2 °C 7,7 °C 6,4 km/h (2 Bft)
16.05.2018 01:58 7,6 °C 90 % 1011,5 hPa 0,0 mm 3,2 km/h (1 Bft) SW 222 ° 0 min 0,000 mm 0,0 UV-I 0 W/m² 6,1 °C 7,6 °C 6,4 km/h (2 Bft)
16.05.2018 01:59 7,6 °C 90 % 1011,6 hPa 0,0 mm 2,0 km/h (1 Bft) W-SW 247 ° 0 min 0,000 mm 0,0 UV-I 0 W/m² 6,1 °C 7,6 °C 4,8 km/h (1 Bft)
16.05.2018 02:00 7,6 °C 90 % 1011,6 hPa 0,0 mm 2,9 km/h (1 Bft) W-SW 257 ° 0 min 0,000 mm 0,0 UV-I 0 W/m² 6,1 °C 7,6 °C 6,4 km/h (2 Bft)
16.05.2018 02:01 7,6 °C 90 % 1011,5 hPa 0,0 mm 2,7 km/h (1 Bft) W-SW 254 ° 0 min 0,000 mm 0,0 UV-I 0 W/m² 6,1 °C 7,6 °C 6,4 km/h (2 Bft)
16.05.2018 02:02 7,6 °C 90 % 1011,6 hPa 0,0 mm 3,7 km/h (1 Bft) SW 234 ° 0 min 0,000 mm 0,0 UV-I 0 W/m² 6,1 °C 7,6 °C 6,4 km/h (2 Bft)
16.05.2018 02:03 7,6 °C 90 % 1011,6 hPa 0,0 mm 3,6 km/h (1 Bft) S-SW 195 ° 0 min 0,000 mm 0,0 UV-I 0 W/m² 6,1 °C 7,6 °C 6,4 km/h (2 Bft)
16.05.2018 02:04 7,7 °C 89 % 1011,6 hPa 0,0 mm 2,4 km/h (1 Bft) S-SW 195 ° 0 min 0,000 mm 0,0 UV-I 0 W/m² 6,0 °C 7,7 °C 6,4 km/h (2 Bft)
16.05.2018 02:05 7,7 °C 89 % 1011,6 hPa 0,0 mm 2,3 km/h (1 Bft) W-NW 286 ° 0 min 0,000 mm 0,0 UV-I 0 W/m² 6,0 °C 7,7 °C 6,4 km/h (2 Bft)
16.05.2018 02:06 7,7 °C 89 % 1011,7 hPa 0,0 mm 3,4 km/h (1 Bft) SW 230 ° 0 min 0,000 mm 0,0 UV-I 0 W/m² 6,0 °C 7,7 °C 6,4 km/h (2 Bft)
16.05.2018 02:07 7,7 °C 89 % 1011,7 hPa 0,0 mm 1,0 km/h (0 Bft) SW 229 ° 0 min 0,000 mm 0,0 UV-I 0 W/m² 6,0 °C 7,7 °C 4,8 km/h (1 Bft)
16.05.2018 02:08 7,7 °C 89 % 1011,7 hPa 0,0 mm 0,7 km/h (0 Bft) SW 229 ° 0 min 0,000 mm 0,0 UV-I 0 W/m² 6,0 °C 7,7 °C 3,2 km/h (1 Bft)
16.05.2018 02:09 7,7 °C 89 % 1011,7 hPa 0,0 mm 0,4 km/h (0 Bft) SW 229 ° 0 min 0,000 mm 0,0 UV-I 0 W/m² 6,0 °C 7,7 °C 1,6 km/h (1 Bft)
16.05.2018 02:10 7,6 °C 89 % 1011,6 hPa 0,0 mm 0,1 km/h (0 Bft) SW 229 ° 0 min 0,000 mm 0,0 UV-I 0 W/m² 5,9 °C 7,6 °C 1,6 km/h (1 Bft)
16.05.2018 02:11 7,6 °C 89 % 1011,6 hPa 0,0 mm 1,6 km/h (1 Bft) W-SW 252 ° 0 min 0,000 mm 0,0 UV-I 0 W/m² 5,9 °C 7,6 °C 6,4 km/h (2 Bft)
16.05.2018 02:12 7,6 °C 89 % 1011,6 hPa 0,0 mm 1,6 km/h (1 Bft) W-SW 248 ° 0 min 0,000 mm 0,0 UV-I 0 W/m² 5,9 °C 7,6 °C 6,4 km/h (2 Bft)
16.05.2018 02:13 7,6 °C 90 % 1011,7 hPa 0,0 mm 2,3 km/h (1 Bft) W 276 ° 0 min 0,000 mm 0,0 UV-I 0 W/m² 6,1 °C 7,6 °C 4,8 km/h (1 Bft)
16.05.2018 02:14 7,6 °C 90 % 1011,7 hPa 0,0 mm 1,3 km/h (1 Bft) SW 233 ° 0 min 0,000 mm 0,0 UV-I 0 W/m² 6,1 °C 7,6 °C 3,2 km/h (1 Bft)
16.05.2018 02:15 7,6 °C 90 % 1011,7 hPa 0,0 mm 0,9 km/h (0 Bft) SW 233 ° 0 min 0,000 mm 0,0 UV-I 0 W/m² 6,1 °C 7,6 °C 3,2 km/h (1 Bft)
16.05.2018 02:16 7,5 °C 90 % 1011,7 hPa 0,0 mm 0,2 km/h (0 Bft) SW 233 ° 0 min 0,000 mm 0,0 UV-I 0 W/m² 6,0 °C 7,5 °C 1,6 km/h (1 Bft)
16.05.2018 02:17 7,5 °C 90 % 1011,7 hPa 0,0 mm 3,6 km/h (1 Bft) W-SW 254 ° 0 min 0,000 mm 0,0 UV-I 0 W/m² 6,0 °C 7,5 °C 4,8 km/h (1 Bft)
16.05.2018 02:18 7,5 °C 90 % 1011,7 hPa 0,0 mm 5,8 km/h (2 Bft) W 280 ° 0 min 0,000 mm 0,0 UV-I 0 W/m² 6,0 °C 6,7 °C 9,7 km/h (2 Bft)
16.05.2018 02:19 7,6 °C 90 % 1011,7 hPa 0,0 mm 5,6 km/h (1 Bft) W 265 ° 0 min 0,000 mm 0,0 UV-I 0 W/m² 6,1 °C 6,8 °C 8,0 km/h (2 Bft)
16.05.2018 02:20 7,6 °C 90 % 1011,7 hPa 0,0 mm 2,7 km/h (1 Bft) W 259 ° 0 min 0,000 mm 0,0 UV-I 0 W/m² 6,1 °C 7,6 °C 6,4 km/h (2 Bft)
16.05.2018 02:21 7,6 °C 90 % 1011,6 hPa 0,0 mm 3,9 km/h (1 Bft) SW 235 ° 0 min 0,000 mm 0,0 UV-I 0 W/m² 6,1 °C 7,6 °C 9,7 km/h (2 Bft)
16.05.2018 02:22 7,5 °C 90 % 1011,6 hPa 0,0 mm 1,1 km/h (1 Bft) SW 235 ° 0 min 0,000 mm 0,0 UV-I 0 W/m² 6,0 °C 7,5 °C 3,2 km/h (1 Bft)
16.05.2018 02:23 7,5 °C 90 % 1011,7 hPa 0,0 mm 3,2 km/h (1 Bft) W 260 ° 0 min 0,000 mm 0,0 UV-I 0 W/m² 6,0 °C 7,5 °C 4,8 km/h (1 Bft)
16.05.2018 02:24 7,4 °C 90 % 1011,7 hPa 0,0 mm 3,2 km/h (1 Bft) W 261 ° 0 min 0,000 mm 0,0 UV-I 0 W/m² 5,9 °C 7,4 °C 6,4 km/h (2 Bft)
16.05.2018 02:25 7,4 °C 90 % 1011,7 hPa 0,0 mm 2,1 km/h (1 Bft) SW 228 ° 0 min 0,000 mm 0,0 UV-I 0 W/m² 5,9 °C 7,4 °C 4,8 km/h (1 Bft)
16.05.2018 02:26 7,4 °C 90 % 1011,7 hPa 0,0 mm 1,3 km/h (1 Bft) SW 228 ° 0 min 0,000 mm 0,0 UV-I 0 W/m² 5,9 °C 7,4 °C 4,8 km/h (1 Bft)
16.05.2018 02:27 7,4 °C 90 % 1011,7 hPa 0,0 mm 1,4 km/h (1 Bft) SW 225 ° 0 min 0,000 mm 0,0 UV-I 0 W/m² 5,9 °C 7,4 °C 4,8 km/h (1 Bft)
16.05.2018 02:28 7,4 °C 90 % 1011,6 hPa 0,0 mm 5,9 km/h (2 Bft) S 186 ° 0 min 0,000 mm 0,0 UV-I 0 W/m² 5,9 °C 6,5 °C 8,0 km/h (2 Bft)
16.05.2018 02:29 7,4 °C 90 % 1011,6 hPa 0,0 mm 4,5 km/h (1 Bft) W-SW 244 ° 0 min 0,000 mm 0,0 UV-I 0 W/m² 5,9 °C 7,4 °C 9,7 km/h (2 Bft)
16.05.2018 02:30 7,4 °C 90 % 1011,6 hPa 0,0 mm 6,4 km/h (2 Bft) W-SW 244 ° 0 min 0,000 mm 0,0 UV-I 0 W/m² 5,9 °C 6,4 °C 9,7 km/h (2 Bft)
16.05.2018 02:31 7,5 °C 90 % 1011,6 hPa 0,0 mm 5,6 km/h (1 Bft) SW 225 ° 0 min 0,000 mm 0,0 UV-I 0 W/m² 6,0 °C 6,7 °C 11,3 km/h (2 Bft)
16.05.2018 02:32 7,5 °C 90 % 1011,6 hPa 0,0 mm 4,4 km/h (1 Bft) S-SW 205 ° 0 min 0,000 mm 0,0 UV-I 0 W/m² 6,0 °C 7,5 °C 6,4 km/h (2 Bft)
16.05.2018 02:33 7,5 °C 90 % 1011,6 hPa 0,0 mm 7,4 km/h (2 Bft) S-SW 199 ° 0 min 0,000 mm 0,0 UV-I 0 W/m² 6,0 °C 6,2 °C 12,9 km/h (3 Bft)
16.05.2018 02:34 7,6 °C 89 % 1011,5 hPa 0,0 mm 2,7 km/h (1 Bft) W 265 ° 0 min 0,000 mm 0,0 UV-I 0 W/m² 5,9 °C 7,6 °C 6,4 km/h (2 Bft)
16.05.2018 02:35 7,6 °C 90 % 1011,6 hPa 0,0 mm 4,1 km/h (1 Bft) NW 323 ° 0 min 0,000 mm 0,0 UV-I 0 W/m² 6,1 °C 7,6 °C 6,4 km/h (2 Bft)
16.05.2018 02:36 7,5 °C 90 % 1011,6 hPa 0,0 mm 4,9 km/h (1 Bft) W-SW 250 ° 0 min 0,000 mm 0,0 UV-I 0 W/m² 6,0 °C 7,0 °C 8,0 km/h (2 Bft)
16.05.2018 02:37 7,5 °C 90 % 1011,6 hPa 0,0 mm 3,0 km/h (1 Bft) W-SW 250 ° 0 min 0,000 mm 0,0 UV-I 0 W/m² 6,0 °C 7,5 °C 4,8 km/h (1 Bft)
16.05.2018 02:38 7,4 °C 90 % 1011,6 hPa 0,0 mm 2,1 km/h (1 Bft) W-SW 255 ° 0 min 0,000 mm 0,0 UV-I 0 W/m² 5,9 °C 7,4 °C 4,8 km/h (1 Bft)
16.05.2018 02:39 7,4 °C 90 % 1011,6 hPa 0,0 mm 2,2 km/h (1 Bft) SW 235 ° 0 min 0,000 mm 0,0 UV-I 0 W/m² 5,9 °C 7,4 °C 6,4 km/h (2 Bft)
16.05.2018 02:40 7,5 °C 90 % 1011,6 hPa 0,0 mm 2,9 km/h (1 Bft) W 259 ° 0 min 0,000 mm 0,0 UV-I 0 W/m² 6,0 °C 7,5 °C 4,8 km/h (1 Bft)
16.05.2018 02:41 7,5 °C 90 % 1011,6 hPa 0,0 mm 4,0 km/h (1 Bft) SW 232 ° 0 min 0,000 mm 0,0 UV-I 0 W/m² 6,0 °C 7,5 °C 6,4 km/h (2 Bft)
16.05.2018 02:42 7,4 °C 90 % 1011,6 hPa 0,0 mm 2,1 km/h (1 Bft) SW 226 ° 0 min 0,000 mm 0,0 UV-I 0 W/m² 5,9 °C 7,4 °C 4,8 km/h (1 Bft)
16.05.2018 02:43 7,4 °C 90 % 1011,6 hPa 0,0 mm 3,8 km/h (1 Bft) W-SW 246 ° 0 min 0,000 mm 0,0 UV-I 0 W/m² 5,9 °C 7,4 °C 6,4 km/h (2 Bft)
16.05.2018 02:44 7,5 °C 90 % 1011,6 hPa 0,0 mm 3,4 km/h (1 Bft) W-SW 244 ° 0 min 0,000 mm 0,0 UV-I 0 W/m² 6,0 °C 7,5 °C 4,8 km/h (1 Bft)
16.05.2018 02:45 7,4 °C 89 % 1011,6 hPa 0,0 mm 1,1 km/h (1 Bft) W-SW 244 ° 0 min 0,000 mm 0,0 UV-I 0 W/m² 5,7 °C 7,4 °C 3,2 km/h (1 Bft)
16.05.2018 02:46 7,4 °C 89 % 1011,6 hPa 0,0 mm 1,0 km/h (0 Bft) W-SW 242 ° 0 min 0,000 mm 0,0 UV-I 0 W/m² 5,7 °C 7,4 °C 3,2 km/h (1 Bft)
16.05.2018 02:47 7,4 °C 89 % 1011,6 hPa 0,0 mm 1,4 km/h (1 Bft) SW 225 ° 0 min 0,000 mm 0,0 UV-I 0 W/m² 5,7 °C 7,4 °C 4,8 km/h (1 Bft)
16.05.2018 02:48 7,4 °C 89 % 1011,6 hPa 0,0 mm 0,3 km/h (0 Bft) SW 225 ° 0 min 0,000 mm 0,0 UV-I 0 W/m² 5,7 °C 7,4 °C 1,6 km/h (1 Bft)
16.05.2018 02:49 7,3 °C 89 % 1011,6 hPa 0,0 mm 1,8 km/h (1 Bft) SW 218 ° 0 min 0,000 mm 0,0 UV-I 0 W/m² 5,6 °C 7,3 °C 3,2 km/h (1 Bft)
16.05.2018 02:50 7,3 °C 90 % 1011,6 hPa 0,0 mm 1,4 km/h (1 Bft) SW 226 ° 0 min 0,000 mm 0,0 UV-I 0 W/m² 5,8 °C 7,3 °C 4,8 km/h (1 Bft)
16.05.2018 02:51 7,3 °C 90 % 1011,6 hPa 0,0 mm 3,1 km/h (1 Bft) W-SW 256 ° 0 min 0,000 mm 0,0 UV-I 0 W/m² 5,8 °C 7,3 °C 6,4 km/h (2 Bft)
16.05.2018 02:52 7,3 °C 90 % 1011,6 hPa 0,0 mm 1,1 km/h (1 Bft) W-SW 250 ° 0 min 0,000 mm 0,0 UV-I 0 W/m² 5,8 °C 7,3 °C 3,2 km/h (1 Bft)
16.05.2018 02:53 7,3 °C 90 % 1011,6 hPa 0,0 mm 1,7 km/h (1 Bft) SW 236 ° 0 min 0,000 mm 0,0 UV-I 0 W/m² 5,8 °C 7,3 °C 4,8 km/h (1 Bft)
16.05.2018 02:54 7,3 °C 90 % 1011,6 hPa 0,0 mm 2,7 km/h (1 Bft) SW 236 ° 0 min 0,000 mm 0,0 UV-I 0 W/m² 5,8 °C 7,3 °C 4,8 km/h (1 Bft)
16.05.2018 02:55 7,3 °C 90 % 1011,5 hPa 0,0 mm 1,7 km/h (1 Bft) SW 225 ° 0 min 0,000 mm 0,0 UV-I 0 W/m² 5,8 °C 7,3 °C 4,8 km/h (1 Bft)
16.05.2018 02:56 7,3 °C 90 % 1011,5 hPa 0,0 mm 0,9 km/h (0 Bft) SW 225 ° 0 min 0,000 mm 0,0 UV-I 0 W/m² 5,8 °C 7,3 °C 3,2 km/h (1 Bft)
16.05.2018 02:57 7,3 °C 90 % 1011,5 hPa 0,0 mm 0,7 km/h (0 Bft) SW 225 ° 0 min 0,000 mm 0,0 UV-I 0 W/m² 5,8 °C 7,3 °C 1,6 km/h (1 Bft)
16.05.2018 02:58 7,3 °C 90 % 1011,5 hPa 0,0 mm 0,6 km/h (0 Bft) SW 225 ° 0 min 0,000 mm 0,0 UV-I 0 W/m² 5,8 °C 7,3 °C 1,6 km/h (1 Bft)
16.05.2018 02:59 7,2 °C 90 % 1011,5 hPa 0,0 mm 3,5 km/h (1 Bft) W 265 ° 0 min 0,000 mm 0,0 UV-I 0 W/m² 5,7 °C 7,2 °C 9,7 km/h (2 Bft)
16.05.2018 03:00 7,2 °C 90 % 1011,5 hPa 0,0 mm 1,7 km/h (1 Bft) SW 231 ° 0 min 0,000 mm 0,0 UV-I 0 W/m² 5,7 °C 7,2 °C 4,8 km/h (1 Bft)
16.05.2018 03:01 7,3 °C 90 % 1011,5 hPa 0,0 mm 0,0 km/h (0 Bft) SW 231 ° 0 min 0,000 mm 0,0 UV-I 0 W/m² 5,8 °C 7,3 °C 0,0 km/h (0 Bft)
16.05.2018 03:02 7,2 °C 90 % 1011,5 hPa 0,0 mm 3,8 km/h (1 Bft) W-NW 283 ° 0 min 0,000 mm 0,0 UV-I 0 W/m² 5,7 °C 7,2 °C 8,0 km/h (2 Bft)
16.05.2018 03:03 7,2 °C 90 % 1011,5 hPa 0,0 mm 3,0 km/h (1 Bft) W-NW 283 ° 0 min 0,000 mm 0,0 UV-I 0 W/m² 5,7 °C 7,2 °C 4,8 km/h (1 Bft)
16.05.2018 03:04 7,2 °C 90 % 1011,5 hPa 0,0 mm 2,9 km/h (1 Bft) W-SW 252 ° 0 min 0,000 mm 0,0 UV-I 0 W/m² 5,7 °C 7,2 °C 4,8 km/h (1 Bft)
16.05.2018 03:05 7,2 °C 90 % 1011,6 hPa 0,0 mm 2,2 km/h (1 Bft) W-SW 252 ° 0 min 0,000 mm 0,0 UV-I 0 W/m² 5,7 °C 7,2 °C 3,2 km/h (1 Bft)
16.05.2018 03:06 7,2 °C 90 % 1011,6 hPa 0,0 mm 0,6 km/h (0 Bft) W-SW 252 ° 0 min 0,000 mm 0,0 UV-I 0 W/m² 5,7 °C 7,2 °C 3,2 km/h (1 Bft)
16.05.2018 03:07 7,1 °C 90 % 1011,5 hPa 0,0 mm 1,5 km/h (1 Bft) W-SW 252 ° 0 min 0,000 mm 0,0 UV-I 0 W/m² 5,6 °C 7,1 °C 3,2 km/h (1 Bft)
16.05.2018 03:08 7,2 °C 90 % 1011,5 hPa 0,0 mm 1,3 km/h (1 Bft) W-SW 252 ° 0 min 0,000 mm 0,0 UV-I 0 W/m² 5,7 °C 7,2 °C 3,2 km/h (1 Bft)
16.05.2018 03:09 7,2 °C 90 % 1011,5 hPa 0,0 mm 2,5 km/h (1 Bft) W-SW 251 ° 0 min 0,000 mm 0,0 UV-I 0 W/m² 5,7 °C 7,2 °C 6,4 km/h (2 Bft)
16.05.2018 03:10 7,2 °C 91 % 1011,5 hPa 0,0 mm 2,7 km/h (1 Bft) W 261 ° 0 min 0,000 mm 0,0 UV-I 0 W/m² 5,8 °C 7,2 °C 6,4 km/h (2 Bft)
16.05.2018 03:11 7,3 °C 90 % 1011,4 hPa 0,0 mm 2,1 km/h (1 Bft) SW 231 ° 0 min 0,000 mm 0,0 UV-I 0 W/m² 5,8 °C 7,3 °C 4,8 km/h (1 Bft)
16.05.2018 03:12 7,3 °C 90 % 1011,4 hPa 0,0 mm 2,2 km/h (1 Bft) SW 231 ° 0 min 0,000 mm 0,0 UV-I 0 W/m² 5,8 °C 7,3 °C 4,8 km/h (1 Bft)
16.05.2018 03:13 7,2 °C 91 % 1011,4 hPa 0,0 mm 0,8 km/h (0 Bft) SW 231 ° 0 min 0,000 mm 0,0 UV-I 0 W/m² 5,8 °C 7,2 °C 3,2 km/h (1 Bft)
16.05.2018 03:14 7,2 °C 91 % 1011,4 hPa 0,0 mm 1,1 km/h (1 Bft) SW 231 ° 0 min 0,000 mm 0,0 UV-I 0 W/m² 5,8 °C 7,2 °C 3,2 km/h (1 Bft)
16.05.2018 03:15 7,2 °C 91 % 1011,4 hPa 0,0 mm 0,5 km/h (0 Bft) SW 231 ° 0 min 0,000 mm 0,0 UV-I 0 W/m² 5,8 °C 7,2 °C 1,6 km/h (1 Bft)
16.05.2018 03:16 7,2 °C 91 % 1011,4 hPa 0,0 mm 1,5 km/h (1 Bft) W-SW 238 ° 0 min 0,000 mm 0,0 UV-I 0 W/m² 5,8 °C 7,2 °C 6,4 km/h (2 Bft)
16.05.2018 03:17 7,2 °C 91 % 1011,4 hPa 0,0 mm 3,0 km/h (1 Bft) W-SW 252 ° 0 min 0,000 mm 0,0 UV-I 0 W/m² 5,8 °C 7,2 °C 8,0 km/h (2 Bft)
16.05.2018 03:18 7,3 °C 91 % 1011,4 hPa 0,0 mm 1,9 km/h (1 Bft) W-SW 250 ° 0 min 0,000 mm 0,0 UV-I 0 W/m² 5,9 °C 7,3 °C 3,2 km/h (1 Bft)
16.05.2018 03:19 7,3 °C 91 % 1011,4 hPa 0,0 mm 0,9 km/h (0 Bft) S-SW 208 ° 0 min 0,000 mm 0,0 UV-I 0 W/m² 5,9 °C 7,3 °C 4,8 km/h (1 Bft)
16.05.2018 03:20 7,4 °C 91 % 1011,4 hPa 0,0 mm 1,9 km/h (1 Bft) W-SW 243 ° 0 min 0,000 mm 0,0 UV-I 0 W/m² 6,0 °C 7,4 °C 6,4 km/h (2 Bft)
16.05.2018 03:21 7,4 °C 90 % 1011,4 hPa 0,0 mm 4,7 km/h (1 Bft) S-SW 213 ° 0 min 0,000 mm 0,0 UV-I 0 W/m² 5,9 °C 6,9 °C 9,7 km/h (2 Bft)
16.05.2018 03:22 7,4 °C 90 % 1011,3 hPa 0,0 mm 2,6 km/h (1 Bft) W-SW 255 ° 0 min 0,000 mm 0,0 UV-I 0 W/m² 5,9 °C 7,4 °C 4,8 km/h (1 Bft)
16.05.2018 03:23 7,4 °C 90 % 1011,3 hPa 0,0 mm 0,4 km/h (0 Bft) W-SW 255 ° 0 min 0,000 mm 0,0 UV-I 0 W/m² 5,9 °C 7,4 °C 1,6 km/h (1 Bft)
16.05.2018 03:24 7,4 °C 90 % 1011,4 hPa 0,0 mm 0,0 km/h (0 Bft) W-SW 255 ° 0 min 0,000 mm 0,0 UV-I 0 W/m² 5,9 °C 7,4 °C 0,0 km/h (0 Bft)
16.05.2018 03:25 7,4 °C 91 % 1011,4 hPa 0,0 mm 0,7 km/h (0 Bft) W-SW 254 ° 0 min 0,000 mm 0,0 UV-I 0 W/m² 6,0 °C 7,4 °C 3,2 km/h (1 Bft)
16.05.2018 03:26 7,5 °C 90 % 1011,3 hPa 0,0 mm 0,5 km/h (0 Bft) W-SW 255 ° 0 min 0,000 mm 0,0 UV-I 0 W/m² 6,0 °C 7,5 °C 1,6 km/h (1 Bft)
16.05.2018 03:27 7,5 °C 90 % 1011,3 hPa 0,0 mm 0,0 km/h (0 Bft) W-SW 254 ° 0 min 0,000 mm 0,0 UV-I 0 W/m² 6,0 °C 7,5 °C 0,0 km/h (0 Bft)
16.05.2018 03:28 7,4 °C 91 % 1011,3 hPa 0,0 mm 0,1 km/h (0 Bft) W-SW 254 ° 0 min 0,000 mm 0,0 UV-I 0 W/m² 6,0 °C 7,4 °C 1,6 km/h (1 Bft)
16.05.2018 03:29 7,4 °C 91 % 1011,3 hPa 0,0 mm 0,0 km/h (0 Bft) W-SW 254 ° 0 min 0,000 mm 0,0 UV-I 0 W/m² 6,0 °C 7,4 °C 0,0 km/h (0 Bft)
16.05.2018 03:30 7,3 °C 91 % 1011,3 hPa 0,0 mm 0,1 km/h (0 Bft) W-SW 254 ° 0 min 0,000 mm 0,0 UV-I 0 W/m² 5,9 °C 7,3 °C 1,6 km/h (1 Bft)
16.05.2018 03:31 7,3 °C 91 % 1011,3 hPa 0,0 mm 0,6 km/h (0 Bft) W-SW 254 ° 0 min 0,000 mm 0,0 UV-I 0 W/m² 5,9 °C 7,3 °C 1,6 km/h (1 Bft)
16.05.2018 03:32 7,3 °C 92 % 1011,3 hPa 0,0 mm 0,2 km/h (0 Bft) W-SW 255 ° 0 min 0,000 mm 0,0 UV-I 0 W/m² 6,1 °C 7,3 °C 1,6 km/h (1 Bft)
16.05.2018 03:33 7,2 °C 92 % 1011,3 hPa 0,0 mm 0,0 km/h (0 Bft) W-SW 255 ° 0 min 0,000 mm 0,0 UV-I 0 W/m² 6,0 °C 7,2 °C 0,0 km/h (0 Bft)
16.05.2018 03:34 7,2 °C 92 % 1011,3 hPa 0,0 mm 0,0 km/h (0 Bft) W-SW 254 ° 0 min 0,000 mm 0,0 UV-I 0 W/m² 6,0 °C 7,2 °C 0,0 km/h (0 Bft)
16.05.2018 03:35 7,2 °C 92 % 1011,3 hPa 0,0 mm 0,0 km/h (0 Bft) W-SW 254 ° 0 min 0,000 mm 0,0 UV-I 0 W/m² 6,0 °C 7,2 °C 0,0 km/h (0 Bft)
16.05.2018 03:36 7,2 °C 92 % 1011,3 hPa 0,0 mm 0,0 km/h (0 Bft) W-SW 254 ° 0 min 0,000 mm 0,0 UV-I 0 W/m² 6,0 °C 7,2 °C 0,0 km/h (0 Bft)
16.05.2018 03:37 7,2 °C 92 % 1011,3 hPa 0,0 mm 0,0 km/h (0 Bft) W-SW 255 ° 0 min 0,000 mm 0,0 UV-I 0 W/m² 6,0 °C 7,2 °C 0,0 km/h (0 Bft)
16.05.2018 03:38 7,2 °C 92 % 1011,3 hPa 0,0 mm 0,0 km/h (0 Bft) W-SW 254 ° 0 min 0,000 mm 0,0 UV-I 0 W/m² 6,0 °C 7,2 °C 0,0 km/h (0 Bft)
16.05.2018 03:39 7,2 °C 92 % 1011,3 hPa 0,0 mm 0,0 km/h (0 Bft) W-SW 254 ° 0 min 0,000 mm 0,0 UV-I 0 W/m² 6,0 °C 7,2 °C 0,0 km/h (0 Bft)
16.05.2018 03:40 7,2 °C 92 % 1011,3 hPa 0,0 mm 0,0 km/h (0 Bft) W-SW 255 ° 0 min 0,000 mm 0,0 UV-I 0 W/m² 6,0 °C 7,2 °C 0,0 km/h (0 Bft)
16.05.2018 03:41 7,2 °C 92 % 1011,3 hPa 0,0 mm 0,0 km/h (0 Bft) W-SW 255 ° 0 min 0,000 mm 0,0 UV-I 0 W/m² 6,0 °C 7,2 °C 0,0 km/h (0 Bft)
16.05.2018 03:42 7,2 °C 92 % 1011,3 hPa 0,0 mm 0,7 km/h (0 Bft) W-SW 254 ° 0 min 0,000 mm 0,0 UV-I 0 W/m² 6,0 °C 7,2 °C 3,2 km/h (1 Bft)
16.05.2018 03:43 7,2 °C 93 % 1011,3 hPa 0,0 mm 0,5 km/h (0 Bft) W-SW 254 ° 0 min 0,000 mm 0,0 UV-I 0 W/m² 6,1 °C 7,2 °C 1,6 km/h (1 Bft)
16.05.2018 03:44 7,2 °C 93 % 1011,3 hPa 0,0 mm 0,5 km/h (0 Bft) W-SW 254 ° 0 min 0,000 mm 0,0 UV-I 0 W/m² 6,1 °C 7,2 °C 1,6 km/h (1 Bft)
16.05.2018 03:45 7,2 °C 92 % 1011,3 hPa 0,0 mm 0,0 km/h (0 Bft) W-SW 254 ° 0 min 0,000 mm 0,0 UV-I 0 W/m² 6,0 °C 7,2 °C 0,0 km/h (0 Bft)
16.05.2018 03:46 7,2 °C 92 % 1011,2 hPa 0,0 mm 0,0 km/h (0 Bft) W-SW 254 ° 0 min 0,000 mm 0,0 UV-I 0 W/m² 6,0 °C 7,2 °C 0,0 km/h (0 Bft)
16.05.2018 03:47 7,3 °C 92 % 1011,2 hPa 0,0 mm 1,2 km/h (1 Bft) W-SW 252 ° 0 min 0,000 mm 0,0 UV-I 0 W/m² 6,1 °C 7,3 °C 4,8 km/h (1 Bft)
16.05.2018 03:48 7,4 °C 92 % 1011,3 hPa 0,0 mm 0,9 km/h (0 Bft) W-SW 252 ° 0 min 0,000 mm 0,0 UV-I 0 W/m² 6,2 °C 7,4 °C 3,2 km/h (1 Bft)
16.05.2018 03:49 7,4 °C 92 % 1011,3 hPa 0,0 mm 0,0 km/h (0 Bft) W-SW 252 ° 0 min 0,000 mm 0,0 UV-I 0 W/m² 6,2 °C 7,4 °C 0,0 km/h (0 Bft)
16.05.2018 03:50 7,4 °C 92 % 1011,3 hPa 0,0 mm 0,0 km/h (0 Bft) W-SW 252 ° 0 min 0,000 mm 0,0 UV-I 0 W/m² 6,2 °C 7,4 °C 0,0 km/h (0 Bft)
16.05.2018 03:51 7,6 °C 91 % 1011,3 hPa 0,0 mm 2,3 km/h (1 Bft) W-SW 244 ° 0 min 0,000 mm 0,0 UV-I 0 W/m² 6,2 °C 7,6 °C 6,4 km/h (2 Bft)
16.05.2018 03:52 7,6 °C 91 % 1011,3 hPa 0,0 mm 0,3 km/h (0 Bft) W-SW 244 ° 0 min 0,000 mm 0,0 UV-I 0 W/m² 6,2 °C 7,6 °C 1,6 km/h (1 Bft)
16.05.2018 03:53 7,6 °C 91 % 1011,3 hPa 0,0 mm 0,3 km/h (0 Bft) W-SW 248 ° 0 min 0,000 mm 0,0 UV-I 0 W/m² 6,2 °C 7,6 °C 1,6 km/h (1 Bft)
16.05.2018 03:54 7,6 °C 91 % 1011,3 hPa 0,0 mm 0,0 km/h (0 Bft) W-SW 248 ° 0 min 0,000 mm 0,0 UV-I 0 W/m² 6,2 °C 7,6 °C 0,0 km/h (0 Bft)
16.05.2018 03:55 7,6 °C 91 % 1011,3 hPa 0,0 mm 0,0 km/h (0 Bft) W-SW 248 ° 0 min 0,000 mm 0,0 UV-I 0 W/m² 6,2 °C 7,6 °C 0,0 km/h (0 Bft)
16.05.2018 03:56 7,5 °C 92 % 1011,3 hPa 0,0 mm 0,1 km/h (0 Bft) W-SW 248 ° 0 min 0,000 mm 0,0 UV-I 0 W/m² 6,3 °C 7,5 °C 1,6 km/h (1 Bft)
16.05.2018 03:57 7,4 °C 92 % 1011,3 hPa 0,0 mm 1,4 km/h (1 Bft) W-SW 248 ° 0 min 0,000 mm 0,0 UV-I 0 W/m² 6,2 °C 7,4 °C 3,2 km/h (1 Bft)
16.05.2018 03:58 7,4 °C 92 % 1011,3 hPa 0,0 mm 0,4 km/h (0 Bft) W-SW 248 ° 0 min 0,000 mm 0,0 UV-I 0 W/m² 6,2 °C 7,4 °C 1,6 km/h (1 Bft)
16.05.2018 03:59 7,4 °C 92 % 1011,3 hPa 0,0 mm 0,0 km/h (0 Bft) W-SW 248 ° 0 min 0,000 mm 0,0 UV-I 0 W/m² 6,2 °C 7,4 °C 0,0 km/h (0 Bft)
16.05.2018 04:00 7,4 °C 92 % 1011,3 hPa 0,0 mm 0,0 km/h (0 Bft) W-SW 248 ° 0 min 0,000 mm 0,0 UV-I 0 W/m² 6,2 °C 7,4 °C 0,0 km/h (0 Bft)
16.05.2018 04:01 7,4 °C 92 % 1011,3 hPa 0,0 mm 0,2 km/h (0 Bft) W-SW 248 ° 0 min 0,000 mm 0,0 UV-I 0 W/m² 6,2 °C 7,4 °C 1,6 km/h (1 Bft)
16.05.2018 04:02 7,4 °C 92 % 1011,3 hPa 0,0 mm 0,6 km/h (0 Bft) W-SW 248 ° 0 min 0,000 mm 0,0 UV-I 0 W/m² 6,2 °C 7,4 °C 3,2 km/h (1 Bft)
16.05.2018 04:03 7,4 °C 92 % 1011,3 hPa 0,0 mm 0,1 km/h (0 Bft) W-SW 248 ° 0 min 0,000 mm 0,0 UV-I 0 W/m² 6,2 °C 7,4 °C 1,6 km/h (1 Bft)
16.05.2018 04:04 7,4 °C 92 % 1011,3 hPa 0,0 mm 0,0 km/h (0 Bft) W-SW 248 ° 0 min 0,000 mm 0,0 UV-I 0 W/m² 6,2 °C 7,4 °C 0,0 km/h (0 Bft)
16.05.2018 04:05 7,4 °C 92 % 1011,3 hPa 0,0 mm 0,0 km/h (0 Bft) W-SW 248 ° 0 min 0,000 mm 0,0 UV-I 0 W/m² 6,2 °C 7,4 °C 0,0 km/h (0 Bft)
16.05.2018 04:06 7,4 °C 93 % 1011,3 hPa 0,0 mm 0,0 km/h (0 Bft) W-SW 248 ° 0 min 0,000 mm 0,0 UV-I 0 W/m² 6,3 °C 7,4 °C 0,0 km/h (0 Bft)
16.05.2018 04:07 7,4 °C 92 % 1011,3 hPa 0,0 mm 0,0 km/h (0 Bft) W-SW 248 ° 0 min 0,000 mm 0,0 UV-I 0 W/m² 6,2 °C 7,4 °C 0,0 km/h (0 Bft)
16.05.2018 04:08 7,3 °C 92 % 1011,3 hPa 0,0 mm 0,0 km/h (0 Bft) W-SW 248 ° 0 min 0,000 mm 0,0 UV-I 0 W/m² 6,1 °C 7,3 °C 0,0 km/h (0 Bft)
16.05.2018 04:09 7,3 °C 92 % 1011,3 hPa 0,0 mm 0,9 km/h (0 Bft) W-SW 248 ° 0 min 0,000 mm 0,0 UV-I 0 W/m² 6,1 °C 7,3 °C 3,2 km/h (1 Bft)
16.05.2018 04:10 7,3 °C 92 % 1011,3 hPa 0,0 mm 1,1 km/h (1 Bft) W-SW 248 ° 0 min 0,000 mm 0,0 UV-I 0 W/m² 6,1 °C 7,3 °C 3,2 km/h (1 Bft)
16.05.2018 04:11 7,3 °C 92 % 1011,3 hPa 0,0 mm 1,1 km/h (1 Bft) W-SW 248 ° 0 min 0,000 mm 0,0 UV-I 0 W/m² 6,1 °C 7,3 °C 3,2 km/h (1 Bft)
16.05.2018 04:12 7,3 °C 92 % 1011,3 hPa 0,0 mm 0,9 km/h (0 Bft) W-SW 248 ° 0 min 0,000 mm 0,0 UV-I 0 W/m² 6,1 °C 7,3 °C 3,2 km/h (1 Bft)
16.05.2018 04:13 7,3 °C 92 % 1011,3 hPa 0,0 mm 1,5 km/h (1 Bft) W-SW 248 ° 0 min 0,000 mm 0,0 UV-I 0 W/m² 6,1 °C 7,3 °C 6,4 km/h (2 Bft)
16.05.2018 04:14 7,4 °C 93 % 1011,3 hPa 0,0 mm 4,2 km/h (1 Bft) SW 229 ° 0 min 0,000 mm 0,0 UV-I 0 W/m² 6,3 °C 7,4 °C 6,4 km/h (2 Bft)
16.05.2018 04:15 7,4 °C 92 % 1011,3 hPa 0,0 mm 0,8 km/h (0 Bft) SW 229 ° 0 min 0,000 mm 0,0 UV-I 0 W/m² 6,2 °C 7,4 °C 3,2 km/h (1 Bft)
16.05.2018 04:16 7,4 °C 93 % 1011,3 hPa 0,0 mm 0,1 km/h (0 Bft) SW 229 ° 0 min 0,000 mm 0,0 UV-I 0 W/m² 6,3 °C 7,4 °C 1,6 km/h (1 Bft)
16.05.2018 04:17 7,4 °C 92 % 1011,3 hPa 0,0 mm 0,0 km/h (0 Bft) SW 229 ° 0 min 0,000 mm 0,0 UV-I 0 W/m² 6,2 °C 7,4 °C 0,0 km/h (0 Bft)
16.05.2018 04:18 7,5 °C 92 % 1011,3 hPa 0,0 mm 0,0 km/h (0 Bft) SW 229 ° 0 min 0,000 mm 0,0 UV-I 0 W/m² 6,3 °C 7,5 °C 0,0 km/h (0 Bft)
16.05.2018 04:19 7,5 °C 92 % 1011,3 hPa 0,0 mm 0,9 km/h (0 Bft) SW 222 ° 0 min 0,000 mm 0,0 UV-I 0 W/m² 6,3 °C 7,5 °C 3,2 km/h (1 Bft)
16.05.2018 04:20 7,6 °C 92 % 1011,3 hPa 0,0 mm 1,8 km/h (1 Bft) W 259 ° 0 min 0,000 mm 0,0 UV-I 0 W/m² 6,4 °C 7,6 °C 9,7 km/h (2 Bft)
16.05.2018 04:21 7,6 °C 92 % 1011,3 hPa 0,0 mm 2,7 km/h (1 Bft) W-SW 251 ° 0 min 0,000 mm 0,0 UV-I 0 W/m² 6,4 °C 7,6 °C 8,0 km/h (2 Bft)
16.05.2018 04:22 7,7 °C 92 % 1011,3 hPa 0,0 mm 1,5 km/h (1 Bft) SW 228 ° 0 min 0,000 mm 0,0 UV-I 0 W/m² 6,5 °C 7,7 °C 4,8 km/h (1 Bft)
16.05.2018 04:23 7,7 °C 91 % 1011,3 hPa 0,0 mm 2,1 km/h (1 Bft) SW 228 ° 0 min 0,000 mm 0,0 UV-I 0 W/m² 6,3 °C 7,7 °C 4,8 km/h (1 Bft)
16.05.2018 04:24 7,7 °C 91 % 1011,2 hPa 0,0 mm 1,8 km/h (1 Bft) SW 219 ° 0 min 0,000 mm 0,0 UV-I 0 W/m² 6,3 °C 7,7 °C 4,8 km/h (1 Bft)
16.05.2018 04:25 7,7 °C 91 % 1011,2 hPa 0,0 mm 1,9 km/h (1 Bft) W-SW 247 ° 0 min 0,000 mm 0,0 UV-I 0 W/m² 6,3 °C 7,7 °C 4,8 km/h (1 Bft)
16.05.2018 04:26 7,8 °C 91 % 1011,2 hPa 0,0 mm 1,6 km/h (1 Bft) W-SW 253 ° 0 min 0,000 mm 0,0 UV-I 0 W/m² 6,4 °C 7,8 °C 4,8 km/h (1 Bft)
16.05.2018 04:27 7,8 °C 91 % 1011,2 hPa 0,0 mm 2,7 km/h (1 Bft) SW 234 ° 0 min 0,000 mm 0,0 UV-I 0 W/m² 6,4 °C 7,8 °C 6,4 km/h (2 Bft)
16.05.2018 04:28 7,8 °C 91 % 1011,2 hPa 0,0 mm 2,3 km/h (1 Bft) W 279 ° 0 min 0,000 mm 0,0 UV-I 0 W/m² 6,4 °C 7,8 °C 3,2 km/h (1 Bft)
16.05.2018 04:29 7,8 °C 91 % 1011,2 hPa 0,0 mm 4,8 km/h (1 Bft) W 275 ° 0 min 0,000 mm 0,0 UV-I 0 W/m² 6,4 °C 7,3 °C 9,7 km/h (2 Bft)
16.05.2018 04:30 7,8 °C 91 % 1011,2 hPa 0,0 mm 3,8 km/h (1 Bft) W-SW 258 ° 0 min 0,000 mm 0,0 UV-I 0 W/m² 6,4 °C 7,8 °C 4,8 km/h (1 Bft)
16.05.2018 04:31 7,8 °C 91 % 1011,3 hPa 0,0 mm 3,5 km/h (1 Bft) W 281 ° 0 min 0,000 mm 0,0 UV-I 0 W/m² 6,4 °C 7,8 °C 4,8 km/h (1 Bft)
16.05.2018 04:32 7,8 °C 91 % 1011,2 hPa 0,0 mm 4,4 km/h (1 Bft) W 281 ° 0 min 0,000 mm 0,0 UV-I 0 W/m² 6,4 °C 7,8 °C 9,7 km/h (2 Bft)
16.05.2018 04:33 7,8 °C 91 % 1011,2 hPa 0,0 mm 2,5 km/h (1 Bft) W-SW 254 ° 0 min 0,000 mm 0,0 UV-I 0 W/m² 6,4 °C 7,8 °C 4,8 km/h (1 Bft)
16.05.2018 04:34 7,8 °C 90 % 1011,2 hPa 0,0 mm 3,0 km/h (1 Bft) W-SW 250 ° 0 min 0,000 mm 0,0 UV-I 0 W/m² 6,3 °C 7,8 °C 4,8 km/h (1 Bft)
16.05.2018 04:35 7,8 °C 90 % 1011,3 hPa 0,0 mm 4,8 km/h (1 Bft) W-NW 288 ° 0 min 0,000 mm 0,0 UV-I 0 W/m² 6,3 °C 7,3 °C 6,4 km/h (2 Bft)
16.05.2018 04:36 7,9 °C 91 % 1011,2 hPa 0,0 mm 2,9 km/h (1 Bft) W-NW 286 ° 0 min 0,000 mm 0,0 UV-I 0 W/m² 6,5 °C 7,9 °C 4,8 km/h (1 Bft)
16.05.2018 04:37 7,8 °C 90 % 1011,2 hPa 0,0 mm 1,7 km/h (1 Bft) W-NW 286 ° 0 min 0,000 mm 0,0 UV-I 0 W/m² 6,3 °C 7,8 °C 4,8 km/h (1 Bft)
16.05.2018 04:38 7,9 °C 90 % 1011,2 hPa 0,0 mm 3,8 km/h (1 Bft) W 276 ° 0 min 0,000 mm 0,0 UV-I 0 W/m² 6,4 °C 7,9 °C 6,4 km/h (2 Bft)
16.05.2018 04:39 7,9 °C 90 % 1011,2 hPa 0,0 mm 8,6 km/h (2 Bft) W 275 ° 0 min 0,000 mm 0,0 UV-I 0 W/m² 6,4 °C 6,4 °C 12,9 km/h (3 Bft)
16.05.2018 04:40 7,9 °C 90 % 1011,2 hPa 0,0 mm 6,3 km/h (2 Bft) W-SW 258 ° 0 min 0,000 mm 0,0 UV-I 0 W/m² 6,4 °C 7,0 °C 9,7 km/h (2 Bft)
16.05.2018 04:41 7,8 °C 90 % 1011,2 hPa 0,0 mm 5,6 km/h (1 Bft) W 266 ° 0 min 0,000 mm 0,0 UV-I 0 W/m² 6,3 °C 7,1 °C 8,0 km/h (2 Bft)
16.05.2018 04:42 7,9 °C 90 % 1011,2 hPa 0,0 mm 2,9 km/h (1 Bft) W 267 ° 0 min 0,000 mm 0,0 UV-I 0 W/m² 6,4 °C 7,9 °C 4,8 km/h (1 Bft)
16.05.2018 04:43 7,8 °C 90 % 1011,3 hPa 0,0 mm 1,1 km/h (1 Bft) W 267 ° 0 min 0,000 mm 0,0 UV-I 0 W/m² 6,3 °C 7,8 °C 3,2 km/h (1 Bft)
16.05.2018 04:44 7,8 °C 91 % 1011,2 hPa 0,0 mm 2,7 km/h (1 Bft) W 262 ° 0 min 0,000 mm 0,0 UV-I 0 W/m² 6,4 °C 7,8 °C 4,8 km/h (1 Bft)
16.05.2018 04:45 7,8 °C 91 % 1011,3 hPa 0,0 mm 2,2 km/h (1 Bft) W 265 ° 0 min 0,000 mm 0,0 UV-I 0 W/m² 6,4 °C 7,8 °C 6,4 km/h (2 Bft)
16.05.2018 04:46 7,8 °C 91 % 1011,2 hPa 0,0 mm 3,6 km/h (1 Bft) W 267 ° 0 min 0,000 mm 0,0 UV-I 0 W/m² 6,4 °C 7,8 °C 6,4 km/h (2 Bft)
16.05.2018 04:47 7,8 °C 91 % 1011,3 hPa 0,0 mm 1,7 km/h (1 Bft) W 267 ° 0 min 0,000 mm 0,0 UV-I 0 W/m² 6,4 °C 7,8 °C 3,2 km/h (1 Bft)
16.05.2018 04:48 7,8 °C 91 % 1011,3 hPa 0,0 mm 3,3 km/h (1 Bft) W-NW 283 ° 0 min 0,000 mm 0,0 UV-I 0 W/m² 6,4 °C 7,8 °C 6,4 km/h (2 Bft)
16.05.2018 04:49 7,8 °C 91 % 1011,2 hPa 0,0 mm 6,8 km/h (2 Bft) SW 222 ° 0 min 0,000 mm 0,0 UV-I 0 W/m² 6,4 °C 6,7 °C 12,9 km/h (3 Bft)
16.05.2018 04:50 7,8 °C 90 % 1011,2 hPa 0,0 mm 4,5 km/h (1 Bft) W 261 ° 0 min 0,000 mm 0,0 UV-I 0 W/m² 6,3 °C 7,8 °C 6,4 km/h (2 Bft)
16.05.2018 04:51 7,8 °C 90 % 1011,2 hPa 0,0 mm 5,5 km/h (1 Bft) W-SW 252 ° 0 min 0,000 mm 0,0 UV-I 0 W/m² 6,3 °C 7,1 °C 9,7 km/h (2 Bft)
16.05.2018 04:52 7,8 °C 90 % 1011,3 hPa 0,0 mm 3,0 km/h (1 Bft) W 261 ° 0 min 0,000 mm 0,0 UV-I 0 W/m² 6,3 °C 7,8 °C 6,4 km/h (2 Bft)
16.05.2018 04:53 7,9 °C 90 % 1011,3 hPa 0,0 mm 5,7 km/h (1 Bft) W-SW 242 ° 0 min 0,000 mm 0,0 UV-I 0 W/m² 6,4 °C 7,1 °C 12,9 km/h (3 Bft)
16.05.2018 04:54 7,8 °C 90 % 1011,2 hPa 0,0 mm 3,4 km/h (1 Bft) SW 236 ° 0 min 0,000 mm 0,0 UV-I 0 W/m² 6,3 °C 7,8 °C 4,8 km/h (1 Bft)
16.05.2018 04:55 7,9 °C 90 % 1011,2 hPa 0,0 mm 5,2 km/h (1 Bft) W 280 ° 0 min 0,000 mm 0,0 UV-I 0 W/m² 6,4 °C 7,3 °C 9,7 km/h (2 Bft)
16.05.2018 04:56 7,8 °C 90 % 1011,3 hPa 0,0 mm 2,6 km/h (1 Bft) W 260 ° 0 min 0,000 mm 0,0 UV-I 0 W/m² 6,3 °C 7,8 °C 4,8 km/h (1 Bft)
16.05.2018 04:57 7,8 °C 90 % 1011,3 hPa 0,0 mm 3,4 km/h (1 Bft) W 264 ° 0 min 0,000 mm 0,0 UV-I 0 W/m² 6,3 °C 7,8 °C 9,7 km/h (2 Bft)
16.05.2018 04:58 7,8 °C 90 % 1011,2 hPa 0,0 mm 1,9 km/h (1 Bft) W 272 ° 0 min 0,000 mm 0,0 UV-I 0 W/m² 6,3 °C 7,8 °C 6,4 km/h (2 Bft)
16.05.2018 04:59 7,8 °C 91 % 1011,3 hPa 0,0 mm 4,0 km/h (1 Bft) W-SW 250 ° 0 min 0,000 mm 0,0 UV-I 0 W/m² 6,4 °C 7,8 °C 9,7 km/h (2 Bft)
16.05.2018 05:00 7,8 °C 91 % 1011,3 hPa 0,0 mm 3,0 km/h (1 Bft) SW 230 ° 0 min 0,000 mm 0,0 UV-I 0 W/m² 6,4 °C 7,8 °C 6,4 km/h (2 Bft)
16.05.2018 05:01 7,8 °C 91 % 1011,3 hPa 0,0 mm 2,4 km/h (1 Bft) SW 226 ° 0 min 0,000 mm 0,0 UV-I 0 W/m² 6,4 °C 7,8 °C 6,4 km/h (2 Bft)
16.05.2018 05:02 7,8 °C 91 % 1011,3 hPa 0,0 mm 3,7 km/h (1 Bft) W-SW 252 ° 0 min 0,000 mm 0,0 UV-I 0 W/m² 6,4 °C 7,8 °C 6,4 km/h (2 Bft)
16.05.2018 05:03 7,8 °C 91 % 1011,3 hPa 0,0 mm 5,5 km/h (1 Bft) W 275 ° 0 min 0,000 mm 0,0 UV-I 0 W/m² 6,4 °C 7,1 °C 9,7 km/h (2 Bft)
16.05.2018 05:04 7,8 °C 91 % 1011,3 hPa 0,0 mm 4,3 km/h (1 Bft) W 265 ° 0 min 0,000 mm 0,0 UV-I 0 W/m² 6,4 °C 7,8 °C 6,4 km/h (2 Bft)
16.05.2018 05:05 7,8 °C 91 % 1011,3 hPa 0,0 mm 3,1 km/h (1 Bft) W-SW 254 ° 0 min 0,000 mm 0,0 UV-I 0 W/m² 6,4 °C 7,8 °C 4,8 km/h (1 Bft)
16.05.2018 05:06 7,8 °C 91 % 1011,3 hPa 0,0 mm 6,6 km/h (2 Bft) W-SW 242 ° 0 min 0,000 mm 0,0 UV-I 0 W/m² 6,4 °C 6,8 °C 11,3 km/h (2 Bft)
16.05.2018 05:07 7,8 °C 91 % 1011,3 hPa 0,0 mm 4,3 km/h (1 Bft) W-SW 257 ° 0 min 0,000 mm 0,0 UV-I 0 W/m² 6,4 °C 7,8 °C 9,7 km/h (2 Bft)
16.05.2018 05:08 7,8 °C 91 % 1011,3 hPa 0,0 mm 0,2 km/h (0 Bft) W-SW 257 ° 0 min 0,000 mm 0,0 UV-I 0 W/m² 6,4 °C 7,8 °C 1,6 km/h (1 Bft)
16.05.2018 05:09 7,8 °C 91 % 1011,3 hPa 0,0 mm 4,4 km/h (1 Bft) W 275 ° 0 min 0,000 mm 0,0 UV-I 0 W/m² 6,4 °C 7,8 °C 6,4 km/h (2 Bft)
16.05.2018 05:10 7,8 °C 91 % 1011,3 hPa 0,0 mm 6,3 km/h (2 Bft) W-SW 252 ° 0 min 0,000 mm 0,0 UV-I 0 W/m² 6,4 °C 6,9 °C 9,7 km/h (2 Bft)
16.05.2018 05:11 7,8 °C 91 % 1011,3 hPa 0,0 mm 4,2 km/h (1 Bft) W 271 ° 0 min 0,000 mm 0,0 UV-I 0 W/m² 6,4 °C 7,8 °C 9,7 km/h (2 Bft)
16.05.2018 05:12 7,7 °C 91 % 1011,3 hPa 0,0 mm 5,7 km/h (1 Bft) W-SW 255 ° 0 min 0,000 mm 0,0 UV-I 0 W/m² 6,3 °C 6,9 °C 11,3 km/h (2 Bft)
16.05.2018 05:13 7,7 °C 91 % 1011,3 hPa 0,0 mm 5,4 km/h (1 Bft) SW 234 ° 0 min 0,000 mm 0,0 UV-I 0 W/m² 6,3 °C 7,0 °C 9,7 km/h (2 Bft)
16.05.2018 05:14 7,8 °C 91 % 1011,3 hPa 0,0 mm 6,2 km/h (2 Bft) W 271 ° 0 min 0,000 mm 0,0 UV-I 0 W/m² 6,4 °C 6,9 °C 9,7 km/h (2 Bft)
16.05.2018 05:15 7,7 °C 91 % 1011,3 hPa 0,0 mm 8,0 km/h (2 Bft) W 259 ° 0 min 0,000 mm 0,0 UV-I 0 W/m² 6,3 °C 6,3 °C 12,9 km/h (3 Bft)
16.05.2018 05:16 7,7 °C 91 % 1011,3 hPa 0,0 mm 5,7 km/h (1 Bft) W-SW 246 ° 0 min 0,000 mm 0,0 UV-I 0 W/m² 6,3 °C 6,9 °C 9,7 km/h (2 Bft)
16.05.2018 05:17 7,7 °C 91 % 1011,3 hPa 0,0 mm 7,7 km/h (2 Bft) W 265 ° 0 min 0,000 mm 0,0 UV-I 0 W/m² 6,3 °C 6,4 °C 11,3 km/h (2 Bft)
16.05.2018 05:18 7,7 °C 91 % 1011,3 hPa 0,0 mm 4,4 km/h (1 Bft) W-SW 256 ° 0 min 0,000 mm 0,0 UV-I 0 W/m² 6,3 °C 7,7 °C 9,7 km/h (2 Bft)
16.05.2018 05:19 7,7 °C 91 % 1011,3 hPa 0,0 mm 3,3 km/h (1 Bft) W 263 ° 0 min 0,000 mm 0,0 UV-I 0 W/m² 6,3 °C 7,7 °C 4,8 km/h (1 Bft)
16.05.2018 05:20 7,7 °C 91 % 1011,3 hPa 0,0 mm 2,3 km/h (1 Bft) W 259 ° 0 min 0,000 mm 0,0 UV-I 0 W/m² 6,3 °C 7,7 °C 4,8 km/h (1 Bft)
16.05.2018 05:21 7,7 °C 91 % 1011,3 hPa 0,0 mm 3,4 km/h (1 Bft) W 272 ° 0 min 0,000 mm 0,0 UV-I 0 W/m² 6,3 °C 7,7 °C 4,8 km/h (1 Bft)
16.05.2018 05:22 7,7 °C 92 % 1011,3 hPa 0,0 mm 3,4 km/h (1 Bft) W 259 ° 0 min 0,000 mm 0,0 UV-I 0 W/m² 6,5 °C 7,7 °C 4,8 km/h (1 Bft)
16.05.2018 05:23 7,7 °C 92 % 1011,4 hPa 0,0 mm 6,0 km/h (2 Bft) W-SW 253 ° 0 min 0,000 mm 0,0 UV-I 0 W/m² 6,5 °C 6,8 °C 9,7 km/h (2 Bft)
16.05.2018 05:24 7,7 °C 92 % 1011,3 hPa 0,0 mm 4,7 km/h (1 Bft) W 263 ° 0 min 0,000 mm 0,0 UV-I 0 W/m² 6,5 °C 7,3 °C 6,4 km/h (2 Bft)
16.05.2018 05:25 7,7 °C 92 % 1011,3 hPa 0,0 mm 3,6 km/h (1 Bft) W 263 ° 0 min 0,000 mm 0,0 UV-I 0 W/m² 6,5 °C 7,7 °C 4,8 km/h (1 Bft)
16.05.2018 05:26 7,7 °C 92 % 1011,3 hPa 0,0 mm 6,8 km/h (2 Bft) W 271 ° 0 min 0,000 mm 0,0 UV-I 0 W/m² 6,5 °C 6,6 °C 11,3 km/h (2 Bft)
16.05.2018 05:27 7,7 °C 92 % 1011,4 hPa 0,0 mm 4,8 km/h (1 Bft) W 259 ° 0 min 0,000 mm 0,0 UV-I 0 W/m² 6,5 °C 7,2 °C 9,7 km/h (2 Bft)
16.05.2018 05:28 7,7 °C 92 % 1011,4 hPa 0,0 mm 3,8 km/h (1 Bft) W 266 ° 0 min 0,000 mm 0,0 UV-I 0 W/m² 6,5 °C 7,7 °C 6,4 km/h (2 Bft)
16.05.2018 05:29 7,6 °C 92 % 1011,4 hPa 0,0 mm 4,1 km/h (1 Bft) W-SW 250 ° 0 min 0,000 mm 0,0 UV-I 0 W/m² 6,4 °C 7,6 °C 6,4 km/h (2 Bft)
16.05.2018 05:30 7,6 °C 92 % 1011,3 hPa 0,0 mm 1,4 km/h (1 Bft) SW 232 ° 0 min 0,000 mm 0,0 UV-I 0 W/m² 6,4 °C 7,6 °C 3,2 km/h (1 Bft)
16.05.2018 05:31 7,6 °C 92 % 1011,3 hPa 0,0 mm 2,1 km/h (1 Bft) SW 232 ° 0 min 0,000 mm 0,0 UV-I 0 W/m² 6,4 °C 7,6 °C 3,2 km/h (1 Bft)
16.05.2018 05:32 7,6 °C 92 % 1011,4 hPa 0,0 mm 3,5 km/h (1 Bft) W-SW 258 ° 0 min 0,000 mm 0,0 UV-I 0 W/m² 6,4 °C 7,6 °C 6,4 km/h (2 Bft)
16.05.2018 05:33 7,6 °C 92 % 1011,4 hPa 0,0 mm 4,9 km/h (1 Bft) SW 231 ° 0 min 0,000 mm 0,0 UV-I 0 W/m² 6,4 °C 7,1 °C 9,7 km/h (2 Bft)
16.05.2018 05:34 7,6 °C 92 % 1011,4 hPa 0,0 mm 3,3 km/h (1 Bft) W 275 ° 0 min 0,000 mm 0,0 UV-I 0 W/m² 6,4 °C 7,6 °C 4,8 km/h (1 Bft)
16.05.2018 05:35 7,6 °C 92 % 1011,3 hPa 0,0 mm 1,9 km/h (1 Bft) W-SW 252 ° 0 min 0,000 mm 0,0 UV-I 0 W/m² 6,4 °C 7,6 °C 4,8 km/h (1 Bft)
16.05.2018 05:36 7,6 °C 92 % 1011,3 hPa 0,0 mm 3,5 km/h (1 Bft) W 273 ° 0 min 0,000 mm 0,0 UV-I 0 W/m² 6,4 °C 7,6 °C 6,4 km/h (2 Bft)
16.05.2018 05:37 7,6 °C 92 % 1011,4 hPa 0,0 mm 2,1 km/h (1 Bft) W 273 ° 0 min 0,000 mm 0,0 UV-I 0 W/m² 6,4 °C 7,6 °C 9,7 km/h (2 Bft)
16.05.2018 05:38 7,6 °C 92 % 1011,3 hPa 0,0 mm 4,9 km/h (1 Bft) W 261 ° 0 min 0,000 mm 0,0 UV-I 0 W/m² 6,4 °C 7,1 °C 6,4 km/h (2 Bft)
16.05.2018 05:39 7,6 °C 92 % 1011,3 hPa 0,0 mm 2,7 km/h (1 Bft) W 271 ° 0 min 0,000 mm 0,0 UV-I 0 W/m² 6,4 °C 7,6 °C 3,2 km/h (1 Bft)
16.05.2018 05:40 7,6 °C 92 % 1011,4 hPa 0,0 mm 2,9 km/h (1 Bft) W-SW 254 ° 0 min 0,000 mm 0,0 UV-I 0 W/m² 6,4 °C 7,6 °C 4,8 km/h (1 Bft)
16.05.2018 05:41 7,7 °C 92 % 1011,3 hPa 0,0 mm 5,0 km/h (1 Bft) W-SW 249 ° 0 min 0,000 mm 0,0 UV-I 0 W/m² 6,5 °C 7,1 °C 11,3 km/h (2 Bft)
16.05.2018 05:42 7,7 °C 92 % 1011,3 hPa 0,0 mm 4,3 km/h (1 Bft) W-SW 245 ° 0 min 0,000 mm 0,0 UV-I 0 W/m² 6,5 °C 7,7 °C 8,0 km/h (2 Bft)
16.05.2018 05:43 7,6 °C 92 % 1011,3 hPa 0,0 mm 2,8 km/h (1 Bft) W 273 ° 0 min 0,000 mm 0,0 UV-I 0 W/m² 6,4 °C 7,6 °C 4,8 km/h (1 Bft)
16.05.2018 05:44 7,6 °C 92 % 1011,3 hPa 0,0 mm 2,4 km/h (1 Bft) SW 227 ° 0 min 0,000 mm 0,0 UV-I 0 W/m² 6,4 °C 7,6 °C 6,4 km/h (2 Bft)
16.05.2018 05:45 7,6 °C 92 % 1011,3 hPa 0,0 mm 1,7 km/h (1 Bft) S-SW 207 ° 0 min 0,000 mm 0,0 UV-I 0 W/m² 6,4 °C 7,6 °C 4,8 km/h (1 Bft)
16.05.2018 05:46 7,6 °C 92 % 1011,2 hPa 0,0 mm 3,0 km/h (1 Bft) S-SW 207 ° 0 min 0,000 mm 0,0 UV-I 0 W/m² 6,4 °C 7,6 °C 6,4 km/h (2 Bft)
16.05.2018 05:47 7,6 °C 92 % 1011,2 hPa 0,0 mm 3,1 km/h (1 Bft) W 269 ° 0 min 0,000 mm 0,0 UV-I 0 W/m² 6,4 °C 7,6 °C 6,4 km/h (2 Bft)
16.05.2018 05:48 7,7 °C 92 % 1011,2 hPa 0,0 mm 3,1 km/h (1 Bft) SW 234 ° 0 min 0,000 mm 0,0 UV-I 0 W/m² 6,5 °C 7,7 °C 8,0 km/h (2 Bft)
16.05.2018 05:49 7,6 °C 92 % 1011,3 hPa 0,0 mm 3,2 km/h (1 Bft) SW 230 ° 0 min 0,000 mm 0,0 UV-I 0 W/m² 6,4 °C 7,6 °C 8,0 km/h (2 Bft)
16.05.2018 05:50 7,6 °C 92 % 1011,3 hPa 0,0 mm 3,1 km/h (1 Bft) SW 236 ° 0 min 0,000 mm 0,0 UV-I 0 W/m² 6,4 °C 7,6 °C 6,4 km/h (2 Bft)
16.05.2018 05:51 7,6 °C 92 % 1011,3 hPa 0,0 mm 1,9 km/h (1 Bft) SW 236 ° 0 min 0,000 mm 0,0 UV-I 0 W/m² 6,4 °C 7,6 °C 3,2 km/h (1 Bft)
16.05.2018 05:52 7,7 °C 92 % 1011,2 hPa 0,0 mm 0,7 km/h (0 Bft) SW 236 ° 0 min 0,000 mm 0,0 UV-I 0 W/m² 6,5 °C 7,7 °C 3,2 km/h (1 Bft)
16.05.2018 05:53 7,7 °C 92 % 1011,2 hPa 0,0 mm 3,2 km/h (1 Bft) W-SW 252 ° 0 min 0,000 mm 0,0 UV-I 0 W/m² 6,5 °C 7,7 °C 4,8 km/h (1 Bft)
16.05.2018 05:54 7,7 °C 92 % 1011,3 hPa 0,0 mm 3,6 km/h (1 Bft) SW 232 ° 0 min 0,000 mm 0,0 UV-I 0 W/m² 6,5 °C 7,7 °C 4,8 km/h (1 Bft)
16.05.2018 05:55 7,7 °C 92 % 1011,3 hPa 0,0 mm 3,2 km/h (1 Bft) W 265 ° 0 min 0,000 mm 0,0 UV-I 0 W/m² 6,5 °C 7,7 °C 4,8 km/h (1 Bft)
16.05.2018 05:56 7,7 °C 92 % 1011,2 hPa 0,0 mm 5,0 km/h (1 Bft) W-SW 239 ° 0 min 0,000 mm 0,0 UV-I 0 W/m² 6,5 °C 7,1 °C 8,0 km/h (2 Bft)
16.05.2018 05:57 7,7 °C 91 % 1011,2 hPa 0,0 mm 3,4 km/h (1 Bft) SW 227 ° 0 min 0,000 mm 0,0 UV-I 0 W/m² 6,3 °C 7,7 °C 6,4 km/h (2 Bft)
16.05.2018 05:58 7,7 °C 92 % 1011,2 hPa 0,0 mm 2,1 km/h (1 Bft) SW 231 ° 0 min 0,000 mm 0,0 UV-I 0 W/m² 6,5 °C 7,7 °C 4,8 km/h (1 Bft)
16.05.2018 05:59 7,7 °C 91 % 1011,2 hPa 0,0 mm 1,7 km/h (1 Bft) SW 232 ° 0 min 0,000 mm 0,0 UV-I 0 W/m² 6,3 °C 7,7 °C 4,8 km/h (1 Bft)
16.05.2018 06:00 7,7 °C 91 % 1011,2 hPa 0,0 mm 2,4 km/h (1 Bft) SW 236 ° 0 min 0,000 mm 0,0 UV-I 0 W/m² 6,3 °C 7,7 °C 4,8 km/h (1 Bft)
16.05.2018 06:01 7,7 °C 91 % 1011,2 hPa 0,0 mm 2,5 km/h (1 Bft) W-SW 243 ° 0 min 0,000 mm 0,0 UV-I 0 W/m² 6,3 °C 7,7 °C 11,3 km/h (2 Bft)
16.05.2018 06:02 7,7 °C 91 % 1011,2 hPa 0,0 mm 8,0 km/h (2 Bft) W-SW 254 ° 0 min 0,000 mm 0,0 UV-I 0 W/m² 6,3 °C 6,3 °C 12,9 km/h (3 Bft)
16.05.2018 06:03 7,7 °C 91 % 1011,2 hPa 0,0 mm 2,2 km/h (1 Bft) W-SW 254 ° 0 min 0,000 mm 0,0 UV-I 0 W/m² 6,3 °C 7,7 °C 4,8 km/h (1 Bft)
16.05.2018 06:04 7,7 °C 91 % 1011,2 hPa 0,0 mm 4,0 km/h (1 Bft) W 268 ° 0 min 0,000 mm 0,0 UV-I 0 W/m² 6,3 °C 7,7 °C 6,4 km/h (2 Bft)
16.05.2018 06:05 7,7 °C 91 % 1011,1 hPa 0,0 mm 2,8 km/h (1 Bft) SW 223 ° 0 min 0,000 mm 0,0 UV-I 5 W/m² 6,3 °C 7,7 °C 4,8 km/h (1 Bft)
16.05.2018 06:06 7,7 °C 91 % 1011,1 hPa 0,0 mm 2,5 km/h (1 Bft) SW 233 ° 0 min 0,000 mm 0,0 UV-I 5 W/m² 6,3 °C 7,7 °C 4,8 km/h (1 Bft)
16.05.2018 06:07 7,7 °C 91 % 1011,2 hPa 0,0 mm 1,5 km/h (1 Bft) SW 224 ° 0 min 0,000 mm 0,0 UV-I 5 W/m² 6,3 °C 7,7 °C 3,2 km/h (1 Bft)
16.05.2018 06:08 7,8 °C 91 % 1011,2 hPa 0,0 mm 4,9 km/h (1 Bft) W 260 ° 0 min 0,000 mm 0,0 UV-I 5 W/m² 6,4 °C 7,3 °C 6,4 km/h (2 Bft)
16.05.2018 06:09 7,7 °C 91 % 1011,2 hPa 0,0 mm 3,6 km/h (1 Bft) W-NW 287 ° 0 min 0,000 mm 0,0 UV-I 5 W/m² 6,3 °C 7,7 °C 6,4 km/h (2 Bft)
16.05.2018 06:10 7,8 °C 91 % 1011,2 hPa 0,0 mm 5,0 km/h (1 Bft) W 261 ° 0 min 0,000 mm 0,0 UV-I 5 W/m² 6,4 °C 7,3 °C 9,7 km/h (2 Bft)
16.05.2018 06:11 7,8 °C 91 % 1011,2 hPa 0,0 mm 2,9 km/h (1 Bft) W-SW 255 ° 0 min 0,000 mm 0,0 UV-I 5 W/m² 6,4 °C 7,8 °C 6,4 km/h (2 Bft)
16.05.2018 06:12 7,8 °C 91 % 1011,2 hPa 0,0 mm 3,6 km/h (1 Bft) W-SW 248 ° 0 min 0,000 mm 0,0 UV-I 5 W/m² 6,4 °C 7,8 °C 6,4 km/h (2 Bft)
16.05.2018 06:13 7,8 °C 91 % 1011,2 hPa 0,2 mm 2,0 km/h (1 Bft) W-SW 248 ° 0 min 0,000 mm 0,0 UV-I 5 W/m² 6,4 °C 7,8 °C 3,2 km/h (1 Bft)
16.05.2018 06:14 7,8 °C 91 % 1011,2 hPa 0,0 mm 0,8 km/h (0 Bft) W-SW 248 ° 0 min 0,000 mm 0,0 UV-I 5 W/m² 6,4 °C 7,8 °C 3,2 km/h (1 Bft)
16.05.2018 06:15 7,8 °C 91 % 1011,2 hPa 0,0 mm 1,8 km/h (1 Bft) W-SW 248 ° 0 min 0,000 mm 0,0 UV-I 5 W/m² 6,4 °C 7,8 °C 4,8 km/h (1 Bft)
16.05.2018 06:16 7,8 °C 91 % 1011,2 hPa 0,0 mm 2,0 km/h (1 Bft) W-SW 248 ° 0 min 0,000 mm 0,0 UV-I 0 W/m² 6,4 °C 7,8 °C 4,8 km/h (1 Bft)
16.05.2018 06:17 7,8 °C 91 % 1011,3 hPa 0,0 mm 4,8 km/h (1 Bft) W-SW 251 ° 0 min 0,000 mm 0,0 UV-I 0 W/m² 6,4 °C 7,3 °C 8,0 km/h (2 Bft)
16.05.2018 06:18 7,8 °C 91 % 1011,3 hPa 0,0 mm 2,6 km/h (1 Bft) W-NW 289 ° 0 min 0,000 mm 0,0 UV-I 0 W/m² 6,4 °C 7,8 °C 6,4 km/h (2 Bft)
16.05.2018 06:19 7,8 °C 91 % 1011,2 hPa 0,0 mm 5,2 km/h (1 Bft) W-SW 238 ° 0 min 0,000 mm 0,0 UV-I 0 W/m² 6,4 °C 7,2 °C 6,4 km/h (2 Bft)
16.05.2018 06:20 7,8 °C 91 % 1011,2 hPa 0,0 mm 2,1 km/h (1 Bft) W 263 ° 0 min 0,000 mm 0,0 UV-I 0 W/m² 6,4 °C 7,8 °C 4,8 km/h (1 Bft)
16.05.2018 06:21 7,8 °C 91 % 1011,2 hPa 0,0 mm 2,5 km/h (1 Bft) W 275 ° 0 min 0,000 mm 0,0 UV-I 0 W/m² 6,4 °C 7,8 °C 9,7 km/h (2 Bft)
16.05.2018 06:22 7,8 °C 91 % 1011,2 hPa 0,0 mm 4,2 km/h (1 Bft) W 265 ° 0 min 0,000 mm 0,0 UV-I 0 W/m² 6,4 °C 7,8 °C 6,4 km/h (2 Bft)
16.05.2018 06:23 7,8 °C 91 % 1011,2 hPa 0,0 mm 5,6 km/h (1 Bft) W-SW 246 ° 0 min 0,000 mm 0,0 UV-I 0 W/m² 6,4 °C 7,1 °C 11,3 km/h (2 Bft)
16.05.2018 06:24 7,8 °C 91 % 1011,2 hPa 0,0 mm 6,0 km/h (2 Bft) W-SW 244 ° 0 min 0,000 mm 0,0 UV-I 0 W/m² 6,4 °C 6,9 °C 9,7 km/h (2 Bft)
16.05.2018 06:25 7,8 °C 91 % 1011,1 hPa 0,0 mm 4,8 km/h (1 Bft) W 263 ° 0 min 0,000 mm 0,0 UV-I 0 W/m² 6,4 °C 7,3 °C 6,4 km/h (2 Bft)
16.05.2018 06:26 7,8 °C 91 % 1011,2 hPa 0,0 mm 4,9 km/h (1 Bft) W 265 ° 0 min 0,000 mm 0,0 UV-I 0 W/m² 6,4 °C 7,3 °C 6,4 km/h (2 Bft)
16.05.2018 06:27 7,8 °C 91 % 1011,2 hPa 0,0 mm 5,1 km/h (1 Bft) W-SW 248 ° 0 min 0,000 mm 0,0 UV-I 0 W/m² 6,4 °C 7,2 °C 9,7 km/h (2 Bft)
16.05.2018 06:28 7,8 °C 91 % 1011,2 hPa 0,0 mm 4,7 km/h (1 Bft) W-SW 237 ° 0 min 0,000 mm 0,0 UV-I 0 W/m² 6,4 °C 7,4 °C 6,4 km/h (2 Bft)
16.05.2018 06:29 7,8 °C 91 % 1011,2 hPa 0,0 mm 3,2 km/h (1 Bft) W-SW 250 ° 0 min 0,000 mm 0,0 UV-I 5 W/m² 6,4 °C 7,8 °C 4,8 km/h (1 Bft)
16.05.2018 06:30 7,8 °C 91 % 1011,2 hPa 0,0 mm 4,7 km/h (1 Bft) W-SW 245 ° 0 min 0,000 mm 0,0 UV-I 5 W/m² 6,4 °C 7,4 °C 8,0 km/h (2 Bft)
16.05.2018 06:31 7,8 °C 91 % 1011,2 hPa 0,0 mm 5,7 km/h (1 Bft) NW 304 ° 0 min 0,000 mm 0,0 UV-I 5 W/m² 6,4 °C 7,0 °C 8,0 km/h (2 Bft)
16.05.2018 06:32 7,9 °C 91 % 1011,2 hPa 0,0 mm 6,8 km/h (2 Bft) W 263 ° 0 min 0,000 mm 0,0 UV-I 5 W/m² 6,5 °C 6,8 °C 9,7 km/h (2 Bft)
16.05.2018 06:33 7,8 °C 91 % 1011,2 hPa 0,0 mm 6,6 km/h (2 Bft) W-SW 255 ° 0 min 0,000 mm 0,0 UV-I 5 W/m² 6,4 °C 6,8 °C 11,3 km/h (2 Bft)
16.05.2018 06:34 7,9 °C 91 % 1011,2 hPa 0,0 mm 8,0 km/h (2 Bft) SW 236 ° 0 min 0,000 mm 0,0 UV-I 7 W/m² 6,5 °C 6,5 °C 11,3 km/h (2 Bft)
16.05.2018 06:35 7,9 °C 91 % 1011,2 hPa 0,0 mm 4,2 km/h (1 Bft) W 259 ° 0 min 0,000 mm 0,0 UV-I 7 W/m² 6,5 °C 7,9 °C 6,4 km/h (2 Bft)
16.05.2018 06:36 7,9 °C 91 % 1011,2 hPa 0,0 mm 4,9 km/h (1 Bft) W 275 ° 0 min 0,000 mm 0,0 UV-I 7 W/m² 6,5 °C 7,4 °C 6,4 km/h (2 Bft)
16.05.2018 06:37 7,9 °C 91 % 1011,2 hPa 0,0 mm 6,2 km/h (2 Bft) SW 223 ° 0 min 0,000 mm 0,0 UV-I 9 W/m² 6,5 °C 7,0 °C 12,9 km/h (3 Bft)
16.05.2018 06:38 7,9 °C 91 % 1011,2 hPa 0,0 mm 2,3 km/h (1 Bft) SW 223 ° 0 min 0,000 mm 0,0 UV-I 9 W/m² 6,5 °C 7,9 °C 4,8 km/h (1 Bft)
16.05.2018 06:39 7,9 °C 91 % 1011,2 hPa 0,0 mm 6,0 km/h (2 Bft) SW 232 ° 0 min 0,000 mm 0,0 UV-I 11 W/m² 6,5 °C 7,1 °C 11,3 km/h (2 Bft)
16.05.2018 06:40 7,9 °C 91 % 1011,1 hPa 0,0 mm 4,9 km/h (1 Bft) W 261 ° 0 min 0,000 mm 0,0 UV-I 11 W/m² 6,5 °C 7,4 °C 9,7 km/h (2 Bft)
16.05.2018 06:41 7,9 °C 91 % 1011,2 hPa 0,0 mm 1,8 km/h (1 Bft) W-SW 252 ° 0 min 0,000 mm 0,0 UV-I 11 W/m² 6,5 °C 7,9 °C 4,8 km/h (1 Bft)
16.05.2018 06:42 7,8 °C 91 % 1011,2 hPa 0,0 mm 1,1 km/h (1 Bft) SW 234 ° 0 min 0,000 mm 0,0 UV-I 12 W/m² 6,4 °C 7,8 °C 3,2 km/h (1 Bft)
16.05.2018 06:43 7,8 °C 91 % 1011,1 hPa 0,0 mm 3,3 km/h (1 Bft) SW 225 ° 0 min 0,000 mm 0,0 UV-I 12 W/m² 6,4 °C 7,8 °C 9,7 km/h (2 Bft)
16.05.2018 06:44 7,8 °C 91 % 1011,2 hPa 0,0 mm 4,6 km/h (1 Bft) W-SW 245 ° 0 min 0,000 mm 0,0 UV-I 12 W/m² 6,4 °C 7,4 °C 11,3 km/h (2 Bft)
16.05.2018 06:45 7,8 °C 91 % 1011,2 hPa 0,0 mm 6,8 km/h (2 Bft) W 269 ° 0 min 0,000 mm 0,0 UV-I 12 W/m² 6,4 °C 6,7 °C 11,3 km/h (2 Bft)
16.05.2018 06:46 7,8 °C 91 % 1011,2 hPa 0,0 mm 3,3 km/h (1 Bft) W 272 ° 0 min 0,000 mm 0,0 UV-I 14 W/m² 6,4 °C 7,8 °C 6,4 km/h (2 Bft)
16.05.2018 06:47 7,8 °C 91 % 1011,2 hPa 0,0 mm 7,5 km/h (2 Bft) W 281 ° 0 min 0,000 mm 0,0 UV-I 14 W/m² 6,4 °C 6,5 °C 12,9 km/h (3 Bft)
16.05.2018 06:48 7,8 °C 91 % 1011,3 hPa 0,0 mm 7,4 km/h (2 Bft) W 261 ° 0 min 0,000 mm 0,0 UV-I 14 W/m² 6,4 °C 6,6 °C 11,3 km/h (2 Bft)
16.05.2018 06:49 7,8 °C 91 % 1011,3 hPa 0,0 mm 4,0 km/h (1 Bft) W 261 ° 0 min 0,000 mm 0,0 UV-I 12 W/m² 6,4 °C 7,8 °C 6,4 km/h (2 Bft)
16.05.2018 06:50 7,8 °C 91 % 1011,3 hPa 0,0 mm 2,6 km/h (1 Bft) W-NW 297 ° 0 min 0,000 mm 0,0 UV-I 12 W/m² 6,4 °C 7,8 °C 6,4 km/h (2 Bft)
16.05.2018 06:51 7,8 °C 91 % 1011,3 hPa 0,0 mm 2,7 km/h (1 Bft) W 279 ° 0 min 0,000 mm 0,0 UV-I 12 W/m² 6,4 °C 7,8 °C 4,8 km/h (1 Bft)
16.05.2018 06:52 7,8 °C 91 % 1011,3 hPa 0,0 mm 5,0 km/h (1 Bft) W 260 ° 0 min 0,000 mm 0,0 UV-I 14 W/m² 6,4 °C 7,3 °C 6,4 km/h (2 Bft)
16.05.2018 06:53 7,8 °C 91 % 1011,3 hPa 0,0 mm 8,4 km/h (2 Bft) W-SW 248 ° 0 min 0,000 mm 0,0 UV-I 18 W/m² 6,4 °C 6,3 °C 12,9 km/h (3 Bft)
16.05.2018 06:54 7,8 °C 91 % 1011,3 hPa 0,0 mm 3,7 km/h (1 Bft) W 277 ° 0 min 0,000 mm 0,0 UV-I 19 W/m² 6,4 °C 7,8 °C 9,7 km/h (2 Bft)
16.05.2018 06:55 7,8 °C 91 % 1011,3 hPa 0,0 mm 7,1 km/h (2 Bft) W-SW 254 ° 0 min 0,000 mm 0,0 UV-I 21 W/m² 6,4 °C 6,6 °C 12,9 km/h (3 Bft)
16.05.2018 06:56 7,8 °C 91 % 1011,3 hPa 0,0 mm 5,3 km/h (1 Bft) SW 226 ° 0 min 0,000 mm 0,0 UV-I 21 W/m² 6,4 °C 7,2 °C 6,4 km/h (2 Bft)
16.05.2018 06:57 7,8 °C 91 % 1011,3 hPa 0,0 mm 1,4 km/h (1 Bft) SW 226 ° 0 min 0,000 mm 0,0 UV-I 23 W/m² 6,4 °C 7,8 °C 4,8 km/h (1 Bft)
16.05.2018 06:58 7,8 °C 91 % 1011,4 hPa 0,0 mm 6,0 km/h (2 Bft) W-SW 250 ° 0 min 0,000 mm 0,0 UV-I 25 W/m² 6,4 °C 6,9 °C 9,7 km/h (2 Bft)
16.05.2018 06:59 7,8 °C 92 % 1011,4 hPa 0,0 mm 6,6 km/h (2 Bft) W 263 ° 0 min 0,000 mm 0,0 UV-I 21 W/m² 6,6 °C 6,8 °C 11,3 km/h (2 Bft)
16.05.2018 07:00 7,8 °C 92 % 1011,4 hPa 0,0 mm 4,7 km/h (1 Bft) SW 230 ° 0 min 0,000 mm 0,0 UV-I 21 W/m² 6,6 °C 7,4 °C 9,7 km/h (2 Bft)
16.05.2018 07:01 7,8 °C 92 % 1011,4 hPa 0,0 mm 1,9 km/h (1 Bft) W 271 ° 0 min 0,000 mm 0,0 UV-I 19 W/m² 6,6 °C 7,8 °C 4,8 km/h (1 Bft)
16.05.2018 07:02 7,8 °C 92 % 1011,4 hPa 0,0 mm 2,5 km/h (1 Bft) W 263 ° 0 min 0,000 mm 0,0 UV-I 18 W/m² 6,6 °C 7,8 °C 6,4 km/h (2 Bft)
16.05.2018 07:03 7,8 °C 92 % 1011,4 hPa 0,0 mm 4,0 km/h (1 Bft) W-SW 239 ° 0 min 0,000 mm 0,0 UV-I 16 W/m² 6,6 °C 7,8 °C 6,4 km/h (2 Bft)
16.05.2018 07:04 7,8 °C 92 % 1011,4 hPa 0,0 mm 3,6 km/h (1 Bft) W 277 ° 0 min 0,000 mm 0,0 UV-I 16 W/m² 6,6 °C 7,8 °C 6,4 km/h (2 Bft)
16.05.2018 07:05 7,8 °C 92 % 1011,4 hPa 0,0 mm 7,6 km/h (2 Bft) W 271 ° 0 min 0,000 mm 0,0 UV-I 16 W/m² 6,6 °C 6,5 °C 12,9 km/h (3 Bft)
16.05.2018 07:06 7,8 °C 92 % 1011,4 hPa 0,0 mm 3,4 km/h (1 Bft) W 279 ° 0 min 0,000 mm 0,0 UV-I 16 W/m² 6,6 °C 7,8 °C 6,4 km/h (2 Bft)
16.05.2018 07:07 7,8 °C 92 % 1011,4 hPa 0,0 mm 7,3 km/h (2 Bft) W-SW 243 ° 0 min 0,000 mm 0,0 UV-I 16 W/m² 6,6 °C 6,6 °C 11,3 km/h (2 Bft)
16.05.2018 07:08 7,8 °C 92 % 1011,5 hPa 0,0 mm 4,4 km/h (1 Bft) W 279 ° 0 min 0,000 mm 0,0 UV-I 18 W/m² 6,6 °C 7,8 °C 8,0 km/h (2 Bft)
16.05.2018 07:09 7,7 °C 92 % 1011,4 hPa 0,0 mm 2,9 km/h (1 Bft) W-SW 257 ° 0 min 0,000 mm 0,0 UV-I 18 W/m² 6,5 °C 7,7 °C 4,8 km/h (1 Bft)
16.05.2018 07:10 7,7 °C 92 % 1011,5 hPa 0,0 mm 2,7 km/h (1 Bft) W 271 ° 0 min 0,000 mm 0,0 UV-I 19 W/m² 6,5 °C 7,7 °C 11,3 km/h (2 Bft)
16.05.2018 07:11 7,7 °C 92 % 1011,4 hPa 0,0 mm 6,2 km/h (2 Bft) W-SW 240 ° 0 min 0,000 mm 0,0 UV-I 21 W/m² 6,5 °C 6,8 °C 11,3 km/h (2 Bft)
16.05.2018 07:12 7,7 °C 92 % 1011,4 hPa 0,0 mm 1,1 km/h (1 Bft) W-SW 240 ° 0 min 0,000 mm 0,0 UV-I 21 W/m² 6,5 °C 7,7 °C 3,2 km/h (1 Bft)
16.05.2018 07:13 7,7 °C 92 % 1011,5 hPa 0,0 mm 1,2 km/h (1 Bft) SW 229 ° 0 min 0,000 mm 0,0 UV-I 21 W/m² 6,5 °C 7,7 °C 4,8 km/h (1 Bft)
16.05.2018 07:14 7,7 °C 92 % 1011,5 hPa 0,0 mm 3,3 km/h (1 Bft) W 263 ° 0 min 0,000 mm 0,0 UV-I 21 W/m² 6,5 °C 7,7 °C 4,8 km/h (1 Bft)
16.05.2018 07:15 7,7 °C 92 % 1011,5 hPa 0,0 mm 3,1 km/h (1 Bft) W-NW 285 ° 0 min 0,000 mm 0,0 UV-I 21 W/m² 6,5 °C 7,7 °C 6,4 km/h (2 Bft)
16.05.2018 07:16 7,7 °C 92 % 1011,5 hPa 0,0 mm 2,3 km/h (1 Bft) W-SW 255 ° 0 min 0,000 mm 0,0 UV-I 21 W/m² 6,5 °C 7,7 °C 6,4 km/h (2 Bft)
16.05.2018 07:17 7,7 °C 92 % 1011,6 hPa 0,0 mm 1,0 km/h (0 Bft) W-SW 255 ° 0 min 0,000 mm 0,0 UV-I 19 W/m² 6,5 °C 7,7 °C 3,2 km/h (1 Bft)
16.05.2018 07:18 7,7 °C 92 % 1011,5 hPa 0,0 mm 3,2 km/h (1 Bft) W-SW 241 ° 0 min 0,000 mm 0,0 UV-I 19 W/m² 6,5 °C 7,7 °C 8,0 km/h (2 Bft)
16.05.2018 07:19 7,7 °C 92 % 1011,5 hPa 0,0 mm 2,1 km/h (1 Bft) W-SW 240 ° 0 min 0,000 mm 0,0 UV-I 21 W/m² 6,5 °C 7,7 °C 4,8 km/h (1 Bft)
16.05.2018 07:20 7,7 °C 92 % 1011,5 hPa 0,0 mm 4,3 km/h (1 Bft) W-SW 258 ° 0 min 0,000 mm 0,0 UV-I 23 W/m² 6,5 °C 7,7 °C 6,4 km/h (2 Bft)
16.05.2018 07:21 7,7 °C 92 % 1011,5 hPa 0,0 mm 2,2 km/h (1 Bft) W 263 ° 0 min 0,000 mm 0,0 UV-I 23 W/m² 6,5 °C 7,7 °C 4,8 km/h (1 Bft)
16.05.2018 07:22 7,7 °C 92 % 1011,5 hPa 0,0 mm 1,1 km/h (1 Bft) W 263 ° 0 min 0,000 mm 0,0 UV-I 25 W/m² 6,5 °C 7,7 °C 3,2 km/h (1 Bft)
16.05.2018 07:23 7,7 °C 92 % 1011,5 hPa 0,0 mm 3,0 km/h (1 Bft) W-SW 252 ° 0 min 0,000 mm 0,0 UV-I 26 W/m² 6,5 °C 7,7 °C 6,4 km/h (2 Bft)
16.05.2018 07:24 7,7 °C 92 % 1011,5 hPa 0,0 mm 0,7 km/h (0 Bft) W-SW 250 ° 0 min 0,000 mm 0,0 UV-I 28 W/m² 6,5 °C 7,7 °C 3,2 km/h (1 Bft)
16.05.2018 07:25 7,7 °C 92 % 1011,5 hPa 0,0 mm 0,3 km/h (0 Bft) W-SW 250 ° 0 min 0,000 mm 0,0 UV-I 28 W/m² 6,5 °C 7,7 °C 1,6 km/h (1 Bft)
16.05.2018 07:26 7,7 °C 92 % 1011,5 hPa 0,0 mm 0,9 km/h (0 Bft) W-SW 250 ° 0 min 0,000 mm 0,0 UV-I 30 W/m² 6,5 °C 7,7 °C 3,2 km/h (1 Bft)
16.05.2018 07:27 7,7 °C 92 % 1011,5 hPa 0,0 mm 0,5 km/h (0 Bft) W-SW 250 ° 0 min 0,000 mm 0,0 UV-I 28 W/m² 6,5 °C 7,7 °C 3,2 km/h (1 Bft)
16.05.2018 07:28 7,7 °C 92 % 1011,5 hPa 0,0 mm 2,1 km/h (1 Bft) W 273 ° 0 min 0,000 mm 0,0 UV-I 28 W/m² 6,5 °C 7,7 °C 4,8 km/h (1 Bft)
16.05.2018 07:29 7,7 °C 92 % 1011,5 hPa 0,0 mm 1,1 km/h (1 Bft) W 273 ° 0 min 0,000 mm 0,0 UV-I 28 W/m² 6,5 °C 7,7 °C 3,2 km/h (1 Bft)
16.05.2018 07:30 7,7 °C 92 % 1011,5 hPa 0,0 mm 0,9 km/h (0 Bft) W 273 ° 0 min 0,000 mm 0,0 UV-I 28 W/m² 6,5 °C 7,7 °C 3,2 km/h (1 Bft)
16.05.2018 07:31 7,7 °C 92 % 1011,5 hPa 0,0 mm 0,1 km/h (0 Bft) W 273 ° 0 min 0,000 mm 0,0 UV-I 28 W/m² 6,5 °C 7,7 °C 1,6 km/h (1 Bft)
16.05.2018 07:32 7,7 °C 92 % 1011,5 hPa 0,0 mm 0,0 km/h (0 Bft) W 273 ° 0 min 0,000 mm 0,0 UV-I 28 W/m² 6,5 °C 7,7 °C 0,0 km/h (0 Bft)
16.05.2018 07:33 7,7 °C 92 % 1011,5 hPa 0,0 mm 0,7 km/h (0 Bft) W 271 ° 0 min 0,000 mm 0,0 UV-I 30 W/m² 6,5 °C 7,7 °C 3,2 km/h (1 Bft)
16.05.2018 07:34 7,7 °C 92 % 1011,5 hPa 0,0 mm 0,0 km/h (0 Bft) W 269 ° 0 min 0,000 mm 0,0 UV-I 32 W/m² 6,5 °C 7,7 °C 0,0 km/h (0 Bft)
16.05.2018 07:35 7,7 °C 92 % 1011,5 hPa 0,0 mm 0,7 km/h (0 Bft) W 269 ° 0 min 0,000 mm 0,0 UV-I 33 W/m² 6,5 °C 7,7 °C 1,6 km/h (1 Bft)
16.05.2018 07:36 7,7 °C 92 % 1011,6 hPa 0,0 mm 0,5 km/h (0 Bft) W 269 ° 0 min 0,000 mm 0,0 UV-I 33 W/m² 6,5 °C 7,7 °C 1,6 km/h (1 Bft)
16.05.2018 07:37 7,7 °C 92 % 1011,5 hPa 0,0 mm 0,0 km/h (0 Bft) W 269 ° 0 min 0,000 mm 0,0 UV-I 35 W/m² 6,5 °C 7,7 °C 0,0 km/h (0 Bft)
16.05.2018 07:38 7,7 °C 92 % 1011,5 hPa 0,0 mm 0,0 km/h (0 Bft) W 269 ° 0 min 0,000 mm 0,0 UV-I 39 W/m² 6,5 °C 7,7 °C 0,0 km/h (0 Bft)
16.05.2018 07:39 7,7 °C 92 % 1011,5 hPa 0,0 mm 1,3 km/h (1 Bft) SW 236 ° 0 min 0,000 mm 0,0 UV-I 42 W/m² 6,5 °C 7,7 °C 4,8 km/h (1 Bft)
16.05.2018 07:40 7,7 °C 92 % 1011,5 hPa 0,0 mm 0,0 km/h (0 Bft) SW 236 ° 0 min 0,000 mm 0,0 UV-I 49 W/m² 6,5 °C 7,7 °C 0,0 km/h (0 Bft)
16.05.2018 07:41 7,7 °C 92 % 1011,5 hPa 0,0 mm 0,0 km/h (0 Bft) SW 236 ° 0 min 0,000 mm 0,0 UV-I 51 W/m² 6,5 °C 7,7 °C 0,0 km/h (0 Bft)
16.05.2018 07:42 7,7 °C 92 % 1011,5 hPa 0,0 mm 0,0 km/h (0 Bft) SW 236 ° 0 min 0,000 mm 0,0 UV-I 53 W/m² 6,5 °C 7,7 °C 0,0 km/h (0 Bft)
16.05.2018 07:43 7,7 °C 92 % 1011,6 hPa 0,0 mm 0,0 km/h (0 Bft) SW 236 ° 0 min 0,000 mm 0,0 UV-I 53 W/m² 6,5 °C 7,7 °C 0,0 km/h (0 Bft)
16.05.2018 07:44 7,8 °C 93 % 1011,5 hPa 0,0 mm 2,4 km/h (1 Bft) W 275 ° 0 min 0,000 mm 0,0 UV-I 54 W/m² 6,7 °C 7,8 °C 6,4 km/h (2 Bft)
16.05.2018 07:45 7,8 °C 93 % 1011,5 hPa 0,0 mm 0,2 km/h (0 Bft) W 275 ° 0 min 0,000 mm 0,0 UV-I 56 W/m² 6,7 °C 7,8 °C 1,6 km/h (1 Bft)
16.05.2018 07:46 7,8 °C 93 % 1011,5 hPa 0,0 mm 0,0 km/h (0 Bft) W 275 ° 0 min 0,000 mm 0,0 UV-I 58 W/m² 6,7 °C 7,8 °C 0,0 km/h (0 Bft)
16.05.2018 07:47 7,8 °C 93 % 1011,5 hPa 0,0 mm 0,0 km/h (0 Bft) W 275 ° 0 min 0,000 mm 0,0 UV-I 56 W/m² 6,7 °C 7,8 °C 0,0 km/h (0 Bft)
16.05.2018 07:48 7,8 °C 93 % 1011,5 hPa 0,0 mm 0,1 km/h (0 Bft) W 275 ° 0 min 0,000 mm 0,0 UV-I 54 W/m² 6,7 °C 7,8 °C 1,6 km/h (1 Bft)
16.05.2018 07:49 7,8 °C 93 % 1011,5 hPa 0,0 mm 1,3 km/h (1 Bft) W 275 ° 0 min 0,000 mm 0,0 UV-I 54 W/m² 6,7 °C 7,8 °C 3,2 km/h (1 Bft)
16.05.2018 07:50 7,8 °C 93 % 1011,5 hPa 0,0 mm 0,9 km/h (0 Bft) W 275 ° 0 min 0,000 mm 0,0 UV-I 53 W/m² 6,7 °C 7,8 °C 3,2 km/h (1 Bft)
16.05.2018 07:51 7,8 °C 93 % 1011,5 hPa 0,0 mm 0,0 km/h (0 Bft) W 275 ° 0 min 0,000 mm 0,0 UV-I 53 W/m² 6,7 °C 7,8 °C 0,0 km/h (0 Bft)
16.05.2018 07:52 7,8 °C 93 % 1011,5 hPa 0,0 mm 0,0 km/h (0 Bft) W 275 ° 0 min 0,000 mm 0,0 UV-I 51 W/m² 6,7 °C 7,8 °C 0,0 km/h (0 Bft)
16.05.2018 07:53 7,8 °C 93 % 1011,5 hPa 0,0 mm 0,0 km/h (0 Bft) W 275 ° 0 min 0,000 mm 0,0 UV-I 51 W/m² 6,7 °C 7,8 °C 0,0 km/h (0 Bft)
16.05.2018 07:54 7,8 °C 93 % 1011,5 hPa 0,0 mm 0,0 km/h (0 Bft) W 275 ° 0 min 0,000 mm 0,0 UV-I 49 W/m² 6,7 °C 7,8 °C 0,0 km/h (0 Bft)
16.05.2018 07:55 7,8 °C 93 % 1011,5 hPa 0,0 mm 0,0 km/h (0 Bft) W 275 ° 0 min 0,000 mm 0,0 UV-I 49 W/m² 6,7 °C 7,8 °C 0,0 km/h (0 Bft)
16.05.2018 07:56 7,9 °C 93 % 1011,5 hPa 0,0 mm 1,4 km/h (1 Bft) W 275 ° 0 min 0,000 mm 0,0 UV-I 53 W/m² 6,8 °C 7,9 °C 3,2 km/h (1 Bft)
16.05.2018 07:57 7,8 °C 93 % 1011,5 hPa 0,0 mm 2,1 km/h (1 Bft) S-SW 204 ° 0 min 0,000 mm 0,0 UV-I 54 W/m² 6,7 °C 7,8 °C 3,2 km/h (1 Bft)
16.05.2018 07:58 7,9 °C 93 % 1011,5 hPa 0,0 mm 1,2 km/h (1 Bft) S-SW 205 ° 0 min 0,000 mm 0,0 UV-I 49 W/m² 6,8 °C 7,9 °C 3,2 km/h (1 Bft)
16.05.2018 07:59 7,9 °C 93 % 1011,5 hPa 0,0 mm 0,3 km/h (0 Bft) S-SW 205 ° 0 min 0,000 mm 0,0 UV-I 46 W/m² 6,8 °C 7,9 °C 1,6 km/h (1 Bft)
16.05.2018 08:00 7,9 °C 93 % 1011,5 hPa 0,0 mm 0,8 km/h (0 Bft) S-SW 205 ° 0 min 0,000 mm 0,0 UV-I 42 W/m² 6,8 °C 7,9 °C 1,6 km/h (1 Bft)
16.05.2018 08:01 7,9 °C 93 % 1011,5 hPa 0,0 mm 0,6 km/h (0 Bft) S-SW 205 ° 0 min 0,025 mm 0,0 UV-I 40 W/m² 6,8 °C 7,9 °C 3,2 km/h (1 Bft)
16.05.2018 08:02 7,9 °C 93 % 1011,5 hPa 0,0 mm 0,0 km/h (0 Bft) S-SW 205 ° 0 min 0,000 mm 0,0 UV-I 39 W/m² 6,8 °C 7,9 °C 0,0 km/h (0 Bft)
16.05.2018 08:03 7,9 °C 93 % 1011,4 hPa 0,0 mm 0,0 km/h (0 Bft) S-SW 205 ° 0 min 0,000 mm 0,0 UV-I 39 W/m² 6,8 °C 7,9 °C 0,0 km/h (0 Bft)
16.05.2018 08:04 7,9 °C 93 % 1011,5 hPa 0,0 mm 1,6 km/h (1 Bft) S-SW 207 ° 0 min 0,000 mm 0,0 UV-I 39 W/m² 6,8 °C 7,9 °C 3,2 km/h (1 Bft)
16.05.2018 08:05 7,9 °C 93 % 1011,5 hPa 0,0 mm 0,5 km/h (0 Bft) S-SW 207 ° 0 min 0,000 mm 0,0 UV-I 39 W/m² 6,8 °C 7,9 °C 1,6 km/h (1 Bft)
16.05.2018 08:06 7,9 °C 93 % 1011,5 hPa 0,0 mm 0,0 km/h (0 Bft) S-SW 207 ° 0 min 0,000 mm 0,0 UV-I 40 W/m² 6,8 °C 7,9 °C 0,0 km/h (0 Bft)
16.05.2018 08:07 7,9 °C 93 % 1011,5 hPa 0,0 mm 0,0 km/h (0 Bft) S-SW 207 ° 0 min 0,000 mm 0,0 UV-I 40 W/m² 6,8 °C 7,9 °C 0,0 km/h (0 Bft)
16.05.2018 08:08 7,9 °C 93 % 1011,5 hPa 0,0 mm 0,0 km/h (0 Bft) S-SW 207 ° 0 min 0,000 mm 0,0 UV-I 42 W/m² 6,8 °C 7,9 °C 0,0 km/h (0 Bft)
16.05.2018 08:09 7,9 °C 93 % 1011,5 hPa 0,0 mm 0,1 km/h (0 Bft) S-SW 207 ° 0 min 0,000 mm 0,0 UV-I 42 W/m² 6,8 °C 7,9 °C 1,6 km/h (1 Bft)
16.05.2018 08:10 7,9 °C 93 % 1011,5 hPa 0,0 mm 0,3 km/h (0 Bft) S-SW 207 ° 0 min 0,000 mm 0,0 UV-I 40 W/m² 6,8 °C 7,9 °C 1,6 km/h (1 Bft)
16.05.2018 08:11 7,9 °C 93 % 1011,5 hPa 0,0 mm 0,6 km/h (0 Bft) SW 214 ° 0 min 0,000 mm 0,0 UV-I 40 W/m² 6,8 °C 7,9 °C 3,2 km/h (1 Bft)
16.05.2018 08:12 7,9 °C 93 % 1011,5 hPa 0,0 mm 1,5 km/h (1 Bft) SW 214 ° 0 min 0,000 mm 0,0 UV-I 40 W/m² 6,8 °C 7,9 °C 3,2 km/h (1 Bft)
16.05.2018 08:13 7,9 °C 93 % 1011,5 hPa 0,0 mm 0,2 km/h (0 Bft) W-NW 296 ° 0 min 0,000 mm 0,0 UV-I 40 W/m² 6,8 °C 7,9 °C 3,2 km/h (1 Bft)
16.05.2018 08:14 7,9 °C 93 % 1011,5 hPa 0,0 mm 2,2 km/h (1 Bft) W-SW 246 ° 0 min 0,000 mm 0,0 UV-I 37 W/m² 6,8 °C 7,9 °C 4,8 km/h (1 Bft)
16.05.2018 08:15 7,9 °C 93 % 1011,5 hPa 0,0 mm 0,1 km/h (0 Bft) W-SW 246 ° 0 min 0,000 mm 0,0 UV-I 37 W/m² 6,8 °C 7,9 °C 1,6 km/h (1 Bft)
16.05.2018 08:16 7,9 °C 93 % 1011,5 hPa 0,0 mm 0,1 km/h (0 Bft) W-SW 257 ° 0 min 0,000 mm 0,0 UV-I 40 W/m² 6,8 °C 7,9 °C 1,6 km/h (1 Bft)
16.05.2018 08:17 7,9 °C 93 % 1011,5 hPa 0,0 mm 3,1 km/h (1 Bft) W 272 ° 0 min 0,000 mm 0,0 UV-I 42 W/m² 6,8 °C 7,9 °C 6,4 km/h (2 Bft)
16.05.2018 08:18 8,0 °C 93 % 1011,5 hPa 0,0 mm 1,7 km/h (1 Bft) W 263 ° 0 min 0,000 mm 0,0 UV-I 42 W/m² 6,9 °C 8,0 °C 3,2 km/h (1 Bft)
16.05.2018 08:19 7,9 °C 93 % 1011,6 hPa 0,0 mm 0,6 km/h (0 Bft) W 263 ° 0 min 0,000 mm 0,0 UV-I 42 W/m² 6,8 °C 7,9 °C 1,6 km/h (1 Bft)
16.05.2018 08:20 7,9 °C 93 % 1011,6 hPa 0,0 mm 0,0 km/h (0 Bft) W 263 ° 0 min 0,000 mm 0,0 UV-I 44 W/m² 6,8 °C 7,9 °C 0,0 km/h (0 Bft)
16.05.2018 08:21 8,0 °C 93 % 1011,6 hPa 0,0 mm 0,9 km/h (0 Bft) W 263 ° 0 min 0,000 mm 0,0 UV-I 53 W/m² 6,9 °C 8,0 °C 3,2 km/h (1 Bft)
16.05.2018 08:22 8,0 °C 93 % 1011,6 hPa 0,0 mm 0,4 km/h (0 Bft) W 263 ° 0 min 0,000 mm 0,0 UV-I 56 W/m² 6,9 °C 8,0 °C 3,2 km/h (1 Bft)
16.05.2018 08:23 8,1 °C 93 % 1011,6 hPa 0,0 mm 2,0 km/h (1 Bft) W 263 ° 0 min 0,000 mm 0,0 UV-I 56 W/m² 7,0 °C 8,1 °C 4,8 km/h (1 Bft)
16.05.2018 08:24 8,1 °C 93 % 1011,6 hPa 0,0 mm 0,0 km/h (0 Bft) W 263 ° 0 min 0,000 mm 0,0 UV-I 53 W/m² 7,0 °C 8,1 °C 0,0 km/h (0 Bft)
16.05.2018 08:25 8,1 °C 93 % 1011,6 hPa 0,0 mm 2,5 km/h (1 Bft) W 263 ° 0 min 0,000 mm 0,0 UV-I 54 W/m² 7,0 °C 8,1 °C 4,8 km/h (1 Bft)
16.05.2018 08:26 8,1 °C 93 % 1011,6 hPa 0,0 mm 0,3 km/h (0 Bft) W 263 ° 0 min 0,000 mm 0,5 UV-I 56 W/m² 7,0 °C 8,1 °C 1,6 km/h (1 Bft)
16.05.2018 08:27 8,1 °C 93 % 1011,6 hPa 0,0 mm 0,3 km/h (0 Bft) W 263 ° 0 min 0,000 mm 0,0 UV-I 49 W/m² 7,0 °C 8,1 °C 1,6 km/h (1 Bft)
16.05.2018 08:28 8,2 °C 93 % 1011,6 hPa 0,0 mm 0,3 km/h (0 Bft) W 263 ° 0 min 0,000 mm 0,0 UV-I 46 W/m² 7,1 °C 8,2 °C 3,2 km/h (1 Bft)
16.05.2018 08:29 8,1 °C 93 % 1011,6 hPa 0,0 mm 1,1 km/h (1 Bft) W 263 ° 0 min 0,000 mm 0,0 UV-I 46 W/m² 7,0 °C 8,1 °C 3,2 km/h (1 Bft)
16.05.2018 08:30 8,1 °C 93 % 1011,6 hPa 0,0 mm 5,1 km/h (1 Bft) W-SW 240 ° 0 min 0,000 mm 0,0 UV-I 46 W/m² 7,0 °C 7,6 °C 6,4 km/h (2 Bft)
16.05.2018 08:31 8,1 °C 93 % 1011,5 hPa 0,0 mm 0,6 km/h (0 Bft) W-SW 240 ° 0 min 0,000 mm 0,0 UV-I 44 W/m² 7,0 °C 8,1 °C 1,6 km/h (1 Bft)
16.05.2018 08:32 8,1 °C 93 % 1011,6 hPa 0,0 mm 0,2 km/h (0 Bft) W-SW 240 ° 0 min 0,000 mm 0,0 UV-I 42 W/m² 7,0 °C 8,1 °C 1,6 km/h (1 Bft)
16.05.2018 08:33 8,1 °C 93 % 1011,6 hPa 0,0 mm 1,7 km/h (1 Bft) W-SW 244 ° 0 min 0,000 mm 0,0 UV-I 37 W/m² 7,0 °C 8,1 °C 4,8 km/h (1 Bft)
16.05.2018 08:34 8,1 °C 93 % 1011,6 hPa 0,0 mm 2,2 km/h (1 Bft) W-SW 249 ° 0 min 0,000 mm 0,0 UV-I 37 W/m² 7,0 °C 8,1 °C 4,8 km/h (1 Bft)
16.05.2018 08:35 8,1 °C 92 % 1011,6 hPa 0,0 mm 3,4 km/h (1 Bft) W 271 ° 0 min 0,000 mm 0,0 UV-I 37 W/m² 6,9 °C 8,1 °C 6,4 km/h (2 Bft)
16.05.2018 08:36 8,1 °C 93 % 1011,6 hPa 0,0 mm 2,3 km/h (1 Bft) W-SW 257 ° 0 min 0,000 mm 0,0 UV-I 35 W/m² 7,0 °C 8,1 °C 4,8 km/h (1 Bft)
16.05.2018 08:37 8,1 °C 93 % 1011,5 hPa 0,0 mm 2,1 km/h (1 Bft) W-SW 257 ° 0 min 0,000 mm 0,0 UV-I 33 W/m² 7,0 °C 8,1 °C 3,2 km/h (1 Bft)
16.05.2018 08:38 8,1 °C 93 % 1011,6 hPa 0,0 mm 1,3 km/h (1 Bft) W-SW 257 ° 0 min 0,000 mm 0,0 UV-I 32 W/m² 7,0 °C 8,1 °C 3,2 km/h (1 Bft)
16.05.2018 08:39 8,1 °C 93 % 1011,5 hPa 0,0 mm 0,9 km/h (0 Bft) W-SW 257 ° 0 min 0,000 mm 0,0 UV-I 30 W/m² 7,0 °C 8,1 °C 3,2 km/h (1 Bft)
16.05.2018 08:40 8,0 °C 92 % 1011,5 hPa 0,0 mm 1,0 km/h (0 Bft) W-SW 257 ° 0 min 0,000 mm 0,0 UV-I 32 W/m² 6,8 °C 8,0 °C 3,2 km/h (1 Bft)
16.05.2018 08:41 8,1 °C 93 % 1011,5 hPa 0,0 mm 0,0 km/h (0 Bft) W-SW 257 ° 0 min 0,000 mm 0,0 UV-I 33 W/m² 7,0 °C 8,1 °C 0,0 km/h (0 Bft)
16.05.2018 08:42 8,0 °C 93 % 1011,6 hPa 0,0 mm 0,0 km/h (0 Bft) W-SW 257 ° 0 min 0,000 mm 0,0 UV-I 35 W/m² 6,9 °C 8,0 °C 0,0 km/h (0 Bft)
16.05.2018 08:43 7,9 °C 93 % 1011,5 hPa 0,0 mm 0,0 km/h (0 Bft) W-SW 257 ° 0 min 0,000 mm 0,0 UV-I 39 W/m² 6,8 °C 7,9 °C 0,0 km/h (0 Bft)
16.05.2018 08:44 7,9 °C 93 % 1011,6 hPa 0,0 mm 0,8 km/h (0 Bft) W-SW 257 ° 0 min 0,000 mm 0,0 UV-I 44 W/m² 6,8 °C 7,9 °C 3,2 km/h (1 Bft)
16.05.2018 08:45 7,9 °C 93 % 1011,5 hPa 0,0 mm 0,0 km/h (0 Bft) W-SW 257 ° 0 min 0,000 mm 0,0 UV-I 53 W/m² 6,8 °C 7,9 °C 0,0 km/h (0 Bft)
16.05.2018 08:46 7,9 °C 93 % 1011,6 hPa 0,0 mm 0,1 km/h (0 Bft) W-SW 257 ° 0 min 0,000 mm 0,0 UV-I 56 W/m² 6,8 °C 7,9 °C 1,6 km/h (1 Bft)
16.05.2018 08:47 7,9 °C 93 % 1011,5 hPa 0,0 mm 0,0 km/h (0 Bft) W-SW 257 ° 0 min 0,000 mm 0,0 UV-I 62 W/m² 6,8 °C 7,9 °C 0,0 km/h (0 Bft)
16.05.2018 08:48 7,9 °C 93 % 1011,5 hPa 0,0 mm 0,0 km/h (0 Bft) W-SW 254 ° 0 min 0,000 mm 0,0 UV-I 65 W/m² 6,8 °C 7,9 °C 0,0 km/h (0 Bft)
16.05.2018 08:49 7,9 °C 93 % 1011,5 hPa 0,0 mm 0,0 km/h (0 Bft) W-SW 252 ° 0 min 0,000 mm 0,0 UV-I 69 W/m² 6,8 °C 7,9 °C 0,0 km/h (0 Bft)
16.05.2018 08:50 8,0 °C 93 % 1011,5 hPa 0,0 mm 0,0 km/h (0 Bft) W-SW 252 ° 0 min 0,000 mm 0,5 UV-I 70 W/m² 6,9 °C 8,0 °C 0,0 km/h (0 Bft)
16.05.2018 08:51 8,0 °C 93 % 1011,5 hPa 0,0 mm 1,2 km/h (1 Bft) W-SW 252 ° 0 min 0,000 mm 0,5 UV-I 77 W/m² 6,9 °C 8,0 °C 3,2 km/h (1 Bft)
16.05.2018 08:52 8,0 °C 93 % 1011,5 hPa 0,0 mm 2,5 km/h (1 Bft) SW 228 ° 0 min 0,000 mm 0,5 UV-I 76 W/m² 6,9 °C 8,0 °C 4,8 km/h (1 Bft)
16.05.2018 08:53 8,1 °C 93 % 1011,5 hPa 0,0 mm 0,3 km/h (0 Bft) SW 228 ° 0 min 0,000 mm 0,5 UV-I 74 W/m² 7,0 °C 8,1 °C 3,2 km/h (1 Bft)
16.05.2018 08:54 8,1 °C 93 % 1011,5 hPa 0,0 mm 2,7 km/h (1 Bft) W-SW 240 ° 0 min 0,000 mm 0,5 UV-I 70 W/m² 7,0 °C 8,1 °C 4,8 km/h (1 Bft)
16.05.2018 08:55 8,1 °C 93 % 1011,5 hPa 0,0 mm 0,9 km/h (0 Bft) W-SW 240 ° 0 min 0,000 mm 0,5 UV-I 69 W/m² 7,0 °C 8,1 °C 3,2 km/h (1 Bft)
16.05.2018 08:56 8,2 °C 93 % 1011,5 hPa 0,0 mm 2,9 km/h (1 Bft) W-SW 246 ° 0 min 0,000 mm 0,5 UV-I 67 W/m² 7,1 °C 8,2 °C 4,8 km/h (1 Bft)
16.05.2018 08:57 8,2 °C 93 % 1011,5 hPa 0,0 mm 1,5 km/h (1 Bft) W-SW 246 ° 0 min 0,000 mm 0,5 UV-I 70 W/m² 7,1 °C 8,2 °C 3,2 km/h (1 Bft)
16.05.2018 08:58 8,2 °C 93 % 1011,5 hPa 0,0 mm 1,4 km/h (1 Bft) W-SW 244 ° 0 min 0,000 mm 0,5 UV-I 74 W/m² 7,1 °C 8,2 °C 3,2 km/h (1 Bft)
16.05.2018 08:59 8,2 °C 93 % 1011,5 hPa 0,0 mm 2,7 km/h (1 Bft) W-SW 244 ° 0 min 0,000 mm 0,6 UV-I 77 W/m² 7,1 °C 8,2 °C 4,8 km/h (1 Bft)
16.05.2018 09:00 8,2 °C 93 % 1011,5 hPa 0,0 mm 4,6 km/h (1 Bft) SW 232 ° 0 min 0,000 mm 0,6 UV-I 77 W/m² 7,1 °C 7,9 °C 8,0 km/h (2 Bft)
16.05.2018 09:01 8,2 °C 93 % 1011,6 hPa 0,0 mm 1,7 km/h (1 Bft) W 270 ° 0 min 0,026 mm 0,6 UV-I 77 W/m² 7,1 °C 8,2 °C 6,4 km/h (2 Bft)
16.05.2018 09:02 8,2 °C 93 % 1011,5 hPa 0,0 mm 2,2 km/h (1 Bft) W-NW 284 ° 0 min 0,000 mm 0,5 UV-I 72 W/m² 7,1 °C 8,2 °C 4,8 km/h (1 Bft)
16.05.2018 09:03 8,2 °C 93 % 1011,6 hPa 0,0 mm 1,0 km/h (0 Bft) W-NW 284 ° 0 min 0,000 mm 0,5 UV-I 69 W/m² 7,1 °C 8,2 °C 1,6 km/h (1 Bft)
16.05.2018 09:04 8,2 °C 93 % 1011,6 hPa 0,0 mm 0,1 km/h (0 Bft) W-NW 284 ° 0 min 0,000 mm 0,5 UV-I 67 W/m² 7,1 °C 8,2 °C 1,6 km/h (1 Bft)
16.05.2018 09:05 8,3 °C 93 % 1011,6 hPa 0,0 mm 1,5 km/h (1 Bft) W-NW 284 ° 0 min 0,000 mm 0,5 UV-I 69 W/m² 7,2 °C 8,3 °C 3,2 km/h (1 Bft)
16.05.2018 09:06 8,3 °C 93 % 1011,7 hPa 0,0 mm 1,9 km/h (1 Bft) W-NW 286 ° 0 min 0,000 mm 0,5 UV-I 70 W/m² 7,2 °C 8,3 °C 6,4 km/h (2 Bft)
16.05.2018 09:07 8,3 °C 93 % 1011,7 hPa 0,0 mm 3,4 km/h (1 Bft) W-NW 286 ° 0 min 0,000 mm 0,6 UV-I 79 W/m² 7,2 °C 8,3 °C 4,8 km/h (1 Bft)
16.05.2018 09:08 8,4 °C 93 % 1011,6 hPa 0,0 mm 2,1 km/h (1 Bft) W-NW 286 ° 0 min 0,000 mm 0,6 UV-I 79 W/m² 7,3 °C 8,4 °C 3,2 km/h (1 Bft)
16.05.2018 09:09 8,4 °C 93 % 1011,7 hPa 0,0 mm 1,9 km/h (1 Bft) W-NW 286 ° 0 min 0,000 mm 0,5 UV-I 74 W/m² 7,3 °C 8,4 °C 3,2 km/h (1 Bft)
16.05.2018 09:10 8,4 °C 93 % 1011,7 hPa 0,0 mm 0,1 km/h (0 Bft) W-NW 286 ° 0 min 0,000 mm 0,5 UV-I 69 W/m² 7,3 °C 8,4 °C 1,6 km/h (1 Bft)
16.05.2018 09:11 8,4 °C 93 % 1011,7 hPa 0,0 mm 3,0 km/h (1 Bft) W-NW 286 ° 0 min 0,000 mm 0,5 UV-I 65 W/m² 7,3 °C 8,4 °C 4,8 km/h (1 Bft)
16.05.2018 09:12 8,4 °C 92 % 1011,7 hPa 0,0 mm 1,5 km/h (1 Bft) W-NW 286 ° 0 min 0,000 mm 0,5 UV-I 65 W/m² 7,2 °C 8,4 °C 4,8 km/h (1 Bft)
16.05.2018 09:13 8,4 °C 93 % 1011,7 hPa 0,0 mm 1,8 km/h (1 Bft) W-NW 286 ° 0 min 0,000 mm 0,5 UV-I 70 W/m² 7,3 °C 8,4 °C 3,2 km/h (1 Bft)
16.05.2018 09:14 8,5 °C 92 % 1011,8 hPa 0,0 mm 1,9 km/h (1 Bft) W-NW 286 ° 0 min 0,000 mm 0,6 UV-I 81 W/m² 7,3 °C 8,5 °C 4,8 km/h (1 Bft)
16.05.2018 09:15 8,5 °C 93 % 1011,8 hPa 0,0 mm 0,6 km/h (0 Bft) W-NW 286 ° 0 min 0,000 mm 0,6 UV-I 81 W/m² 7,4 °C 8,5 °C 3,2 km/h (1 Bft)
16.05.2018 09:16 8,5 °C 93 % 1011,8 hPa 0,0 mm 2,7 km/h (1 Bft) W 280 ° 0 min 0,000 mm 0,6 UV-I 83 W/m² 7,4 °C 8,5 °C 4,8 km/h (1 Bft)
16.05.2018 09:17 8,5 °C 93 % 1011,8 hPa 0,0 mm 1,4 km/h (1 Bft) W 280 ° 0 min 0,000 mm 0,6 UV-I 81 W/m² 7,4 °C 8,5 °C 4,8 km/h (1 Bft)
16.05.2018 09:18 8,6 °C 93 % 1011,8 hPa 0,0 mm 2,3 km/h (1 Bft) W 279 ° 0 min 0,000 mm 0,6 UV-I 77 W/m² 7,5 °C 8,6 °C 4,8 km/h (1 Bft)
16.05.2018 09:19 8,6 °C 93 % 1011,8 hPa 0,0 mm 2,5 km/h (1 Bft) W 280 ° 0 min 0,000 mm 0,6 UV-I 77 W/m² 7,5 °C 8,6 °C 4,8 km/h (1 Bft)
16.05.2018 09:20 8,6 °C 93 % 1011,9 hPa 0,0 mm 3,4 km/h (1 Bft) W 281 ° 0 min 0,000 mm 0,5 UV-I 69 W/m² 7,5 °C 8,6 °C 4,8 km/h (1 Bft)
16.05.2018 09:21 8,6 °C 93 % 1011,9 hPa 0,0 mm 2,4 km/h (1 Bft) W 281 ° 0 min 0,000 mm 0,5 UV-I 70 W/m² 7,5 °C 8,6 °C 3,2 km/h (1 Bft)
16.05.2018 09:22 8,6 °C 92 % 1011,8 hPa 0,0 mm 1,8 km/h (1 Bft) W 281 ° 0 min 0,000 mm 0,6 UV-I 77 W/m² 7,4 °C 8,6 °C 3,2 km/h (1 Bft)
16.05.2018 09:23 8,5 °C 92 % 1011,9 hPa 0,0 mm 2,4 km/h (1 Bft) W 281 ° 0 min 0,000 mm 0,7 UV-I 86 W/m² 7,3 °C 8,5 °C 4,8 km/h (1 Bft)
16.05.2018 09:24 8,5 °C 92 % 1011,9 hPa 0,0 mm 1,7 km/h (1 Bft) W 281 ° 0 min 0,000 mm 0,7 UV-I 95 W/m² 7,3 °C 8,5 °C 3,2 km/h (1 Bft)
16.05.2018 09:25 8,5 °C 92 % 1011,9 hPa 0,0 mm 1,7 km/h (1 Bft) W 281 ° 0 min 0,000 mm 0,8 UV-I 100 W/m² 7,3 °C 8,5 °C 3,2 km/h (1 Bft)
16.05.2018 09:26 8,6 °C 93 % 1011,8 hPa 0,0 mm 1,3 km/h (1 Bft) W 281 ° 0 min 0,000 mm 0,8 UV-I 109 W/m² 7,5 °C 8,6 °C 3,2 km/h (1 Bft)
16.05.2018 09:27 8,6 °C 93 % 1011,8 hPa 0,0 mm 0,5 km/h (0 Bft) W 281 ° 0 min 0,000 mm 0,8 UV-I 105 W/m² 7,5 °C 8,6 °C 3,2 km/h (1 Bft)
16.05.2018 09:28 8,6 °C 93 % 1011,9 hPa 0,0 mm 0,0 km/h (0 Bft) W 281 ° 0 min 0,000 mm 0,9 UV-I 111 W/m² 7,5 °C 8,6 °C 0,0 km/h (0 Bft)
16.05.2018 09:29 8,6 °C 93 % 1011,8 hPa 0,0 mm 1,8 km/h (1 Bft) W 281 ° 0 min 0,000 mm 0,9 UV-I 120 W/m² 7,5 °C 8,6 °C 3,2 km/h (1 Bft)
16.05.2018 09:30 8,7 °C 93 % 1011,8 hPa 0,0 mm 3,9 km/h (1 Bft) W 277 ° 0 min 0,000 mm 1,0 UV-I 130 W/m² 7,6 °C 8,7 °C 6,4 km/h (2 Bft)
16.05.2018 09:31 8,7 °C 93 % 1011,8 hPa 0,0 mm 1,3 km/h (1 Bft) W 259 ° 0 min 0,000 mm 1,0 UV-I 134 W/m² 7,6 °C 8,7 °C 4,8 km/h (1 Bft)
16.05.2018 09:32 8,7 °C 93 % 1011,8 hPa 0,0 mm 1,7 km/h (1 Bft) W-SW 256 ° 0 min 0,000 mm 1,0 UV-I 128 W/m² 7,6 °C 8,7 °C 4,8 km/h (1 Bft)
16.05.2018 09:33 8,7 °C 92 % 1011,8 hPa 0,0 mm 2,3 km/h (1 Bft) W 271 ° 0 min 0,000 mm 0,9 UV-I 121 W/m² 7,5 °C 8,7 °C 4,8 km/h (1 Bft)
16.05.2018 09:34 8,8 °C 93 % 1011,8 hPa 0,0 mm 1,4 km/h (1 Bft) W-SW 249 ° 0 min 0,000 mm 0,9 UV-I 118 W/m² 7,7 °C 8,8 °C 3,2 km/h (1 Bft)
16.05.2018 09:35 8,8 °C 93 % 1011,8 hPa 0,0 mm 1,9 km/h (1 Bft) W 263 ° 0 min 0,000 mm 0,9 UV-I 114 W/m² 7,7 °C 8,8 °C 6,4 km/h (2 Bft)
16.05.2018 09:36 8,8 °C 92 % 1011,8 hPa 0,0 mm 3,2 km/h (1 Bft) W 267 ° 0 min 0,000 mm 0,9 UV-I 121 W/m² 7,6 °C 8,8 °C 6,4 km/h (2 Bft)
16.05.2018 09:37 8,8 °C 93 % 1011,8 hPa 0,0 mm 3,4 km/h (1 Bft) W 263 ° 0 min 0,000 mm 1,1 UV-I 149 W/m² 7,7 °C 8,8 °C 6,4 km/h (2 Bft)
16.05.2018 09:38 8,8 °C 93 % 1011,8 hPa 0,0 mm 0,8 km/h (0 Bft) W 263 ° 0 min 0,000 mm 1,1 UV-I 151 W/m² 7,7 °C 8,8 °C 3,2 km/h (1 Bft)
16.05.2018 09:39 8,8 °C 93 % 1011,7 hPa 0,0 mm 4,4 km/h (1 Bft) W-SW 252 ° 0 min 0,000 mm 1,1 UV-I 144 W/m² 7,7 °C 8,8 °C 6,4 km/h (2 Bft)
16.05.2018 09:40 8,8 °C 93 % 1011,8 hPa 0,0 mm 2,1 km/h (1 Bft) W-SW 244 ° 0 min 0,000 mm 1,0 UV-I 135 W/m² 7,7 °C 8,8 °C 3,2 km/h (1 Bft)
16.05.2018 09:41 8,9 °C 92 % 1011,8 hPa 0,0 mm 3,1 km/h (1 Bft) W-NW 296 ° 0 min 0,000 mm 1,0 UV-I 130 W/m² 7,7 °C 8,9 °C 4,8 km/h (1 Bft)
16.05.2018 09:42 8,9 °C 92 % 1011,8 hPa 0,0 mm 1,1 km/h (1 Bft) W-NW 296 ° 0 min 0,000 mm 1,0 UV-I 130 W/m² 7,7 °C 8,9 °C 3,2 km/h (1 Bft)
16.05.2018 09:43 8,9 °C 92 % 1011,8 hPa 0,0 mm 1,3 km/h (1 Bft) SW 231 ° 0 min 0,000 mm 1,0 UV-I 127 W/m² 7,7 °C 8,9 °C 4,8 km/h (1 Bft)
16.05.2018 09:44 8,8 °C 92 % 1011,8 hPa 0,0 mm 4,2 km/h (1 Bft) W 263 ° 0 min 0,000 mm 0,9 UV-I 120 W/m² 7,6 °C 8,8 °C 6,4 km/h (2 Bft)
16.05.2018 09:45 8,8 °C 92 % 1011,7 hPa 0,0 mm 2,5 km/h (1 Bft) W 265 ° 0 min 0,000 mm 0,8 UV-I 111 W/m² 7,6 °C 8,8 °C 4,8 km/h (1 Bft)
16.05.2018 09:46 8,9 °C 92 % 1011,8 hPa 0,0 mm 2,2 km/h (1 Bft) W 265 ° 0 min 0,000 mm 0,9 UV-I 114 W/m² 7,7 °C 8,9 °C 4,8 km/h (1 Bft)
16.05.2018 09:47 8,9 °C 92 % 1011,8 hPa 0,0 mm 5,0 km/h (1 Bft) W 271 ° 0 min 0,000 mm 1,0 UV-I 130 W/m² 7,7 °C 8,5 °C 11,3 km/h (2 Bft)
16.05.2018 09:48 8,9 °C 92 % 1011,8 hPa 0,0 mm 9,1 km/h (2 Bft) W 277 ° 0 min 0,000 mm 1,1 UV-I 146 W/m² 7,7 °C 7,5 °C 12,9 km/h (3 Bft)
16.05.2018 09:49 8,9 °C 92 % 1011,8 hPa 0,0 mm 4,1 km/h (1 Bft) W 281 ° 0 min 0,000 mm 1,1 UV-I 139 W/m² 7,7 °C 8,9 °C 6,4 km/h (2 Bft)
16.05.2018 09:50 8,9 °C 92 % 1011,8 hPa 0,0 mm 6,1 km/h (2 Bft) W 265 ° 0 min 0,000 mm 0,9 UV-I 127 W/m² 7,7 °C 8,2 °C 9,7 km/h (2 Bft)
16.05.2018 09:51 8,9 °C 92 % 1011,8 hPa 0,0 mm 2,2 km/h (1 Bft) W 265 ° 0 min 0,000 mm 0,9 UV-I 118 W/m² 7,7 °C 8,9 °C 6,4 km/h (2 Bft)
16.05.2018 09:52 8,9 °C 92 % 1011,8 hPa 0,0 mm 2,7 km/h (1 Bft) SW 230 ° 0 min 0,000 mm 0,8 UV-I 107 W/m² 7,7 °C 8,9 °C 8,0 km/h (2 Bft)
16.05.2018 09:53 8,9 °C 92 % 1011,8 hPa 0,0 mm 4,1 km/h (1 Bft) W 268 ° 0 min 0,000 mm 0,7 UV-I 95 W/m² 7,7 °C 8,9 °C 6,4 km/h (2 Bft)
16.05.2018 09:54 8,9 °C 92 % 1011,8 hPa 0,0 mm 3,8 km/h (1 Bft) SW 232 ° 0 min 0,000 mm 0,6 UV-I 84 W/m² 7,7 °C 8,9 °C 4,8 km/h (1 Bft)
16.05.2018 09:55 8,9 °C 92 % 1011,8 hPa 0,0 mm 3,2 km/h (1 Bft) W-NW 286 ° 0 min 0,000 mm 0,6 UV-I 70 W/m² 7,7 °C 8,9 °C 4,8 km/h (1 Bft)
16.05.2018 09:56 8,9 °C 92 % 1011,8 hPa 0,0 mm 5,4 km/h (1 Bft) W-SW 248 ° 0 min 0,000 mm 0,5 UV-I 65 W/m² 7,7 °C 8,4 °C 9,7 km/h (2 Bft)
16.05.2018 09:57 8,9 °C 92 % 1011,8 hPa 0,0 mm 3,9 km/h (1 Bft) W 263 ° 0 min 0,000 mm 0,5 UV-I 63 W/m² 7,7 °C 8,9 °C 6,4 km/h (2 Bft)
16.05.2018 09:58 8,8 °C 92 % 1011,9 hPa 0,0 mm 0,6 km/h (0 Bft) W 263 ° 0 min 0,000 mm 0,5 UV-I 60 W/m² 7,6 °C 8,8 °C 1,6 km/h (1 Bft)
16.05.2018 09:59 8,8 °C 92 % 1011,9 hPa 0,0 mm 2,8 km/h (1 Bft) W 278 ° 0 min 0,000 mm 0,5 UV-I 60 W/m² 7,6 °C 8,8 °C 4,8 km/h (1 Bft)
16.05.2018 10:00 8,8 °C 92 % 1011,8 hPa 0,0 mm 5,0 km/h (1 Bft) W-SW 244 ° 0 min 0,000 mm 0,5 UV-I 60 W/m² 7,6 °C 8,4 °C 6,4 km/h (2 Bft)
16.05.2018 10:01 8,7 °C 92 % 1011,9 hPa 0,0 mm 3,7 km/h (1 Bft) W-SW 258 ° 0 min 0,051 mm 0,5 UV-I 51 W/m² 7,5 °C 8,7 °C 6,4 km/h (2 Bft)
16.05.2018 10:02 8,7 °C 92 % 1011,9 hPa 0,0 mm 2,3 km/h (1 Bft) W-SW 257 ° 0 min 0,000 mm 0,0 UV-I 49 W/m² 7,5 °C 8,7 °C 4,8 km/h (1 Bft)
16.05.2018 10:03 8,7 °C 92 % 1011,9 hPa 0,0 mm 3,9 km/h (1 Bft) W 261 ° 0 min 0,000 mm 0,0 UV-I 47 W/m² 7,5 °C 8,7 °C 6,4 km/h (2 Bft)
16.05.2018 10:04 8,7 °C 92 % 1011,8 hPa 0,0 mm 3,4 km/h (1 Bft) W 260 ° 0 min 0,000 mm 0,0 UV-I 46 W/m² 7,5 °C 8,7 °C 6,4 km/h (2 Bft)
16.05.2018 10:05 8,7 °C 92 % 1011,9 hPa 0,0 mm 2,3 km/h (1 Bft) W 260 ° 0 min 0,000 mm 0,0 UV-I 42 W/m² 7,5 °C 8,7 °C 3,2 km/h (1 Bft)
16.05.2018 10:06 8,7 °C 92 % 1011,9 hPa 0,0 mm 3,0 km/h (1 Bft) W 275 ° 0 min 0,000 mm 0,0 UV-I 42 W/m² 7,5 °C 8,7 °C 6,4 km/h (2 Bft)
16.05.2018 10:07 8,7 °C 92 % 1011,9 hPa 0,0 mm 3,2 km/h (1 Bft) W 276 ° 0 min 0,000 mm 0,0 UV-I 44 W/m² 7,5 °C 8,7 °C 4,8 km/h (1 Bft)
16.05.2018 10:08 8,6 °C 92 % 1011,8 hPa 0,0 mm 3,8 km/h (1 Bft) W 278 ° 0 min 0,000 mm 0,0 UV-I 44 W/m² 7,4 °C 8,6 °C 6,4 km/h (2 Bft)
16.05.2018 10:09 8,6 °C 92 % 1011,8 hPa 0,0 mm 1,3 km/h (1 Bft) W 264 ° 0 min 0,000 mm 0,0 UV-I 46 W/m² 7,4 °C 8,6 °C 4,8 km/h (1 Bft)
16.05.2018 10:10 8,6 °C 92 % 1011,9 hPa 0,0 mm 3,9 km/h (1 Bft) W-SW 250 ° 0 min 0,000 mm 0,0 UV-I 46 W/m² 7,4 °C 8,6 °C 6,4 km/h (2 Bft)
16.05.2018 10:11 8,6 °C 92 % 1011,9 hPa 0,0 mm 2,9 km/h (1 Bft) W 268 ° 0 min 0,000 mm 0,0 UV-I 49 W/m² 7,4 °C 8,6 °C 4,8 km/h (1 Bft)
16.05.2018 10:12 8,6 °C 92 % 1011,9 hPa 0,0 mm 1,7 km/h (1 Bft) W 268 ° 0 min 0,000 mm 0,0 UV-I 51 W/m² 7,4 °C 8,6 °C 3,2 km/h (1 Bft)
16.05.2018 10:13 8,6 °C 92 % 1011,9 hPa 0,0 mm 2,7 km/h (1 Bft) W 265 ° 0 min 0,000 mm 0,0 UV-I 53 W/m² 7,4 °C 8,6 °C 6,4 km/h (2 Bft)
16.05.2018 10:14 8,6 °C 92 % 1011,9 hPa 0,0 mm 5,8 km/h (2 Bft) SW 234 ° 0 min 0,000 mm 0,5 UV-I 56 W/m² 7,4 °C 7,9 °C 9,7 km/h (2 Bft)
16.05.2018 10:15 8,6 °C 92 % 1011,9 hPa 0,0 mm 3,2 km/h (1 Bft) W-SW 240 ° 0 min 0,000 mm 0,5 UV-I 56 W/m² 7,4 °C 8,6 °C 6,4 km/h (2 Bft)
16.05.2018 10:16 8,6 °C 92 % 1011,8 hPa 0,0 mm 1,3 km/h (1 Bft) W-SW 240 ° 0 min 0,000 mm 0,5 UV-I 58 W/m² 7,4 °C 8,6 °C 3,2 km/h (1 Bft)
16.05.2018 10:17 8,6 °C 92 % 1011,8 hPa 0,0 mm 0,4 km/h (0 Bft) W-SW 240 ° 0 min 0,000 mm 0,6 UV-I 65 W/m² 7,4 °C 8,6 °C 1,6 km/h (1 Bft)
16.05.2018 10:18 8,6 °C 93 % 1011,8 hPa 0,0 mm 2,3 km/h (1 Bft) W-SW 243 ° 0 min 0,000 mm 0,6 UV-I 72 W/m² 7,5 °C 8,6 °C 4,8 km/h (1 Bft)
16.05.2018 10:19 8,6 °C 93 % 1011,8 hPa 0,0 mm 1,1 km/h (1 Bft) W-SW 243 ° 0 min 0,000 mm 0,6 UV-I 74 W/m² 7,5 °C 8,6 °C 3,2 km/h (1 Bft)
16.05.2018 10:20 8,6 °C 93 % 1011,9 hPa 0,0 mm 2,6 km/h (1 Bft) W-SW 243 ° 0 min 0,000 mm 0,6 UV-I 72 W/m² 7,5 °C 8,6 °C 4,8 km/h (1 Bft)
16.05.2018 10:21 8,6 °C 93 % 1011,9 hPa 0,0 mm 1,7 km/h (1 Bft) W-SW 243 ° 0 min 0,000 mm 0,6 UV-I 72 W/m² 7,5 °C 8,6 °C 3,2 km/h (1 Bft)
16.05.2018 10:22 8,6 °C 93 % 1011,9 hPa 0,0 mm 0,0 km/h (0 Bft) W-SW 243 ° 0 min 0,000 mm 0,6 UV-I 70 W/m² 7,5 °C 8,6 °C 0,0 km/h (0 Bft)
16.05.2018 10:23 8,7 °C 93 % 1011,9 hPa 0,0 mm 1,5 km/h (1 Bft) W-SW 246 ° 0 min 0,000 mm 0,6 UV-I 74 W/m² 7,6 °C 8,7 °C 4,8 km/h (1 Bft)
16.05.2018 10:24 8,7 °C 93 % 1011,9 hPa 0,0 mm 2,4 km/h (1 Bft) W-SW 246 ° 0 min 0,000 mm 0,6 UV-I 81 W/m² 7,6 °C 8,7 °C 3,2 km/h (1 Bft)
16.05.2018 10:25 8,7 °C 93 % 1011,9 hPa 0,0 mm 0,5 km/h (0 Bft) W-SW 248 ° 0 min 0,000 mm 0,7 UV-I 90 W/m² 7,6 °C 8,7 °C 3,2 km/h (1 Bft)
16.05.2018 10:26 8,7 °C 93 % 1011,9 hPa 0,0 mm 2,1 km/h (1 Bft) W-SW 248 ° 0 min 0,000 mm 0,9 UV-I 105 W/m² 7,6 °C 8,7 °C 4,8 km/h (1 Bft)
16.05.2018 10:27 8,7 °C 93 % 1011,9 hPa 0,0 mm 1,0 km/h (0 Bft) W-SW 248 ° 0 min 0,000 mm 1,0 UV-I 123 W/m² 7,6 °C 8,7 °C 1,6 km/h (1 Bft)
16.05.2018 10:28 8,7 °C 93 % 1011,9 hPa 0,0 mm 0,1 km/h (0 Bft) W-SW 248 ° 0 min 0,000 mm 1,1 UV-I 132 W/m² 7,6 °C 8,7 °C 1,6 km/h (1 Bft)
16.05.2018 10:29 8,7 °C 93 % 1011,9 hPa 0,0 mm 0,9 km/h (0 Bft) W-SW 248 ° 0 min 0,000 mm 1,1 UV-I 134 W/m² 7,6 °C 8,7 °C 3,2 km/h (1 Bft)
16.05.2018 10:30 8,8 °C 93 % 1011,9 hPa 0,0 mm 3,6 km/h (1 Bft) W 267 ° 0 min 0,000 mm 1,2 UV-I 153 W/m² 7,7 °C 8,8 °C 4,8 km/h (1 Bft)
16.05.2018 10:31 8,9 °C 93 % 1011,9 hPa 0,0 mm 2,2 km/h (1 Bft) W 267 ° 0 min 0,000 mm 1,3 UV-I 156 W/m² 7,8 °C 8,9 °C 4,8 km/h (1 Bft)
16.05.2018 10:32 8,9 °C 93 % 1011,9 hPa 0,0 mm 4,4 km/h (1 Bft) W-NW 284 ° 0 min 0,000 mm 1,2 UV-I 146 W/m² 7,8 °C 8,9 °C 6,4 km/h (2 Bft)
16.05.2018 10:33 8,9 °C 93 % 1012,0 hPa 0,0 mm 3,0 km/h (1 Bft) SW 235 ° 0 min 0,000 mm 1,0 UV-I 128 W/m² 7,8 °C 8,9 °C 4,8 km/h (1 Bft)
16.05.2018 10:34 8,9 °C 93 % 1012,0 hPa 0,0 mm 4,9 km/h (1 Bft) W 271 ° 0 min 0,000 mm 1,0 UV-I 127 W/m² 7,8 °C 8,5 °C 6,4 km/h (2 Bft)
16.05.2018 10:35 9,0 °C 93 % 1011,9 hPa 0,0 mm 3,3 km/h (1 Bft) W 265 ° 0 min 0,000 mm 1,1 UV-I 141 W/m² 7,9 °C 9,0 °C 4,8 km/h (1 Bft)
16.05.2018 10:36 9,1 °C 93 % 1011,9 hPa 0,0 mm 1,9 km/h (1 Bft) W 265 ° 0 min 0,000 mm 1,2 UV-I 165 W/m² 8,0 °C 9,1 °C 4,8 km/h (1 Bft)
16.05.2018 10:37 9,1 °C 93 % 1011,9 hPa 0,0 mm 0,7 km/h (0 Bft) W 265 ° 0 min 0,000 mm 1,4 UV-I 178 W/m² 8,0 °C 9,1 °C 1,6 km/h (1 Bft)
16.05.2018 10:38 9,1 °C 93 % 1011,9 hPa 0,0 mm 0,7 km/h (0 Bft) W 265 ° 0 min 0,000 mm 1,5 UV-I 195 W/m² 8,0 °C 9,1 °C 3,2 km/h (1 Bft)
16.05.2018 10:39 9,2 °C 93 % 1011,9 hPa 0,0 mm 0,0 km/h (0 Bft) W 265 ° 0 min 0,000 mm 1,6 UV-I 209 W/m² 8,1 °C 9,2 °C 0,0 km/h (0 Bft)
16.05.2018 10:40 9,2 °C 93 % 1011,9 hPa 0,0 mm 2,3 km/h (1 Bft) W 265 ° 0 min 0,000 mm 1,7 UV-I 221 W/m² 8,1 °C 9,2 °C 4,8 km/h (1 Bft)
16.05.2018 10:41 9,3 °C 93 % 1011,9 hPa 0,0 mm 0,8 km/h (0 Bft) W 265 ° 0 min 0,000 mm 1,8 UV-I 234 W/m² 8,2 °C 9,3 °C 3,2 km/h (1 Bft)
16.05.2018 10:42 9,3 °C 93 % 1011,9 hPa 0,0 mm 1,5 km/h (1 Bft) W 265 ° 0 min 0,000 mm 1,8 UV-I 243 W/m² 8,2 °C 9,3 °C 3,2 km/h (1 Bft)
16.05.2018 10:43 9,4 °C 93 % 1011,9 hPa 0,0 mm 3,7 km/h (1 Bft) W-SW 240 ° 0 min 0,000 mm 1,8 UV-I 244 W/m² 8,3 °C 9,4 °C 6,4 km/h (2 Bft)
16.05.2018 10:44 9,3 °C 93 % 1011,9 hPa 0,0 mm 6,6 km/h (2 Bft) SW 227 ° 0 min 0,000 mm 1,8 UV-I 243 W/m² 8,2 °C 8,5 °C 12,9 km/h (3 Bft)
16.05.2018 10:45 9,3 °C 92 % 1011,8 hPa 0,0 mm 4,0 km/h (1 Bft) W-NW 288 ° 0 min 0,000 mm 1,7 UV-I 230 W/m² 8,1 °C 9,3 °C 6,4 km/h (2 Bft)
16.05.2018 10:46 9,3 °C 92 % 1011,8 hPa 0,0 mm 1,4 km/h (1 Bft) W-SW 252 ° 0 min 0,000 mm 1,6 UV-I 211 W/m² 8,1 °C 9,3 °C 9,7 km/h (2 Bft)
16.05.2018 10:47 9,4 °C 93 % 1011,9 hPa 0,0 mm 5,5 km/h (1 Bft) W 263 ° 0 min 0,000 mm 1,4 UV-I 192 W/m² 8,3 °C 8,9 °C 9,7 km/h (2 Bft)
16.05.2018 10:48 9,4 °C 92 % 1011,8 hPa 0,0 mm 3,7 km/h (1 Bft) W-SW 251 ° 0 min 0,000 mm 1,3 UV-I 162 W/m² 8,2 °C 9,4 °C 6,4 km/h (2 Bft)
16.05.2018 10:49 9,4 °C 92 % 1011,8 hPa 0,0 mm 1,2 km/h (1 Bft) W-SW 251 ° 0 min 0,000 mm 1,2 UV-I 153 W/m² 8,2 °C 9,4 °C 3,2 km/h (1 Bft)
16.05.2018 10:50 9,4 °C 92 % 1011,9 hPa 0,0 mm 3,1 km/h (1 Bft) W-SW 238 ° 0 min 0,000 mm 1,2 UV-I 151 W/m² 8,2 °C 9,4 °C 6,4 km/h (2 Bft)
16.05.2018 10:51 9,4 °C 92 % 1011,9 hPa 0,0 mm 4,0 km/h (1 Bft) W-SW 256 ° 0 min 0,000 mm 1,2 UV-I 155 W/m² 8,2 °C 9,4 °C 6,4 km/h (2 Bft)
16.05.2018 10:52 9,4 °C 92 % 1011,9 hPa 0,0 mm 3,0 km/h (1 Bft) SW 232 ° 0 min 0,000 mm 1,3 UV-I 169 W/m² 8,2 °C 9,4 °C 4,8 km/h (1 Bft)
16.05.2018 10:53 9,4 °C 92 % 1011,8 hPa 0,0 mm 3,7 km/h (1 Bft) SW 229 ° 0 min 0,000 mm 1,5 UV-I 185 W/m² 8,2 °C 9,4 °C 6,4 km/h (2 Bft)
16.05.2018 10:54 9,4 °C 92 % 1011,8 hPa 0,0 mm 4,7 km/h (1 Bft) W-SW 243 ° 0 min 0,000 mm 1,5 UV-I 197 W/m² 8,2 °C 9,2 °C 6,4 km/h (2 Bft)
16.05.2018 10:55 9,4 °C 92 % 1011,8 hPa 0,0 mm 6,2 km/h (2 Bft) W 271 ° 0 min 0,000 mm 1,6 UV-I 200 W/m² 8,2 °C 8,7 °C 9,7 km/h (2 Bft)
16.05.2018 10:56 9,4 °C 92 % 1011,9 hPa 0,0 mm 5,6 km/h (1 Bft) W-SW 244 ° 0 min 0,000 mm 1,6 UV-I 200 W/m² 8,2 °C 8,9 °C 8,0 km/h (2 Bft)
16.05.2018 10:57 9,4 °C 92 % 1011,9 hPa 0,0 mm 3,4 km/h (1 Bft) SW 234 ° 0 min 0,000 mm 1,6 UV-I 200 W/m² 8,2 °C 9,4 °C 4,8 km/h (1 Bft)
16.05.2018 10:58 9,4 °C 92 % 1011,9 hPa 0,0 mm 3,2 km/h (1 Bft) W-SW 242 ° 0 min 0,000 mm 1,5 UV-I 193 W/m² 8,2 °C 9,4 °C 4,8 km/h (1 Bft)
16.05.2018 10:59 9,4 °C 92 % 1011,9 hPa 0,0 mm 4,4 km/h (1 Bft) W 280 ° 0 min 0,000 mm 1,5 UV-I 206 W/m² 8,2 °C 9,4 °C 6,4 km/h (2 Bft)
16.05.2018 11:00 9,4 °C 92 % 1011,9 hPa 0,0 mm 3,7 km/h (1 Bft) W 276 ° 0 min 0,000 mm 1,7 UV-I 213 W/m² 8,2 °C 9,4 °C 4,8 km/h (1 Bft)
16.05.2018 11:01 9,6 °C 92 % 1011,9 hPa 0,0 mm 2,7 km/h (1 Bft) W 270 ° 0 min 0,050 mm 1,7 UV-I 218 W/m² 8,4 °C 9,6 °C 6,4 km/h (2 Bft)
16.05.2018 11:02 9,7 °C 93 % 1012,0 hPa 0,0 mm 4,1 km/h (1 Bft) W-SW 255 ° 0 min 0,000 mm 1,8 UV-I 227 W/m² 8,6 °C 9,7 °C 4,8 km/h (1 Bft)
16.05.2018 11:03 9,7 °C 92 % 1012,0 hPa 0,0 mm 1,6 km/h (1 Bft) W-NW 286 ° 0 min 0,000 mm 1,9 UV-I 239 W/m² 8,5 °C 9,7 °C 3,2 km/h (1 Bft)
16.05.2018 11:04 9,7 °C 92 % 1012,0 hPa 0,0 mm 4,6 km/h (1 Bft) W 279 ° 0 min 0,000 mm 2,0 UV-I 257 W/m² 8,5 °C 9,5 °C 9,7 km/h (2 Bft)
16.05.2018 11:05 9,7 °C 92 % 1011,9 hPa 0,0 mm 8,4 km/h (2 Bft) W-NW 301 ° 0 min 0,000 mm 2,1 UV-I 274 W/m² 8,5 °C 8,6 °C 11,3 km/h (2 Bft)
16.05.2018 11:06 9,7 °C 92 % 1012,0 hPa 0,0 mm 5,6 km/h (1 Bft) W-SW 257 ° 0 min 0,000 mm 2,1 UV-I 272 W/m² 8,5 °C 9,2 °C 11,3 km/h (2 Bft)
16.05.2018 11:07 9,8 °C 92 % 1012,0 hPa 0,0 mm 7,3 km/h (2 Bft) W 261 ° 0 min 0,000 mm 2,0 UV-I 265 W/m² 8,6 °C 8,9 °C 12,9 km/h (3 Bft)
16.05.2018 11:08 9,8 °C 92 % 1012,0 hPa 0,0 mm 5,3 km/h (1 Bft) SW 230 ° 0 min 0,000 mm 2,0 UV-I 260 W/m² 8,6 °C 9,4 °C 8,0 km/h (2 Bft)
16.05.2018 11:09 9,8 °C 92 % 1012,0 hPa 0,0 mm 4,4 km/h (1 Bft) W 263 ° 0 min 0,000 mm 1,9 UV-I 253 W/m² 8,6 °C 9,8 °C 6,4 km/h (2 Bft)
16.05.2018 11:10 9,8 °C 92 % 1012,0 hPa 0,0 mm 2,5 km/h (1 Bft) W 265 ° 0 min 0,000 mm 1,9 UV-I 239 W/m² 8,6 °C 9,8 °C 4,8 km/h (1 Bft)
16.05.2018 11:11 9,8 °C 92 % 1012,0 hPa 0,0 mm 2,9 km/h (1 Bft) W 277 ° 0 min 0,000 mm 1,8 UV-I 227 W/m² 8,6 °C 9,8 °C 4,8 km/h (1 Bft)
16.05.2018 11:12 9,8 °C 92 % 1012,0 hPa 0,0 mm 5,6 km/h (1 Bft) W-SW 248 ° 0 min 0,000 mm 1,8 UV-I 230 W/m² 8,6 °C 9,4 °C 11,3 km/h (2 Bft)
16.05.2018 11:13 9,8 °C 92 % 1012,0 hPa 0,0 mm 5,8 km/h (2 Bft) W-NW 302 ° 0 min 0,000 mm 1,8 UV-I 236 W/m² 8,6 °C 9,3 °C 14,5 km/h (3 Bft)
16.05.2018 11:14 9,8 °C 92 % 1012,0 hPa 0,0 mm 6,5 km/h (2 Bft) W-NW 286 ° 0 min 0,000 mm 1,8 UV-I 232 W/m² 8,6 °C 9,1 °C 14,5 km/h (3 Bft)
16.05.2018 11:15 9,8 °C 92 % 1012,0 hPa 0,0 mm 4,7 km/h (1 Bft) W-NW 282 ° 0 min 0,000 mm 1,7 UV-I 223 W/m² 8,6 °C 9,6 °C 9,7 km/h (2 Bft)
16.05.2018 11:16 9,9 °C 92 % 1012,0 hPa 0,0 mm 5,2 km/h (1 Bft) W-NW 284 ° 0 min 0,000 mm 1,7 UV-I 211 W/m² 8,7 °C 9,6 °C 9,7 km/h (2 Bft)
16.05.2018 11:17 9,8 °C 92 % 1012,0 hPa 0,0 mm 4,0 km/h (1 Bft) W-SW 238 ° 0 min 0,000 mm 1,5 UV-I 183 W/m² 8,6 °C 9,8 °C 6,4 km/h (2 Bft)
16.05.2018 11:18 9,8 °C 91 % 1012,0 hPa 0,0 mm 1,4 km/h (1 Bft) W-SW 238 ° 0 min 0,000 mm 1,4 UV-I 171 W/m² 8,4 °C 9,8 °C 1,6 km/h (1 Bft)
16.05.2018 11:19 9,7 °C 92 % 1012,0 hPa 0,0 mm 3,7 km/h (1 Bft) W-NW 296 ° 0 min 0,000 mm 1,3 UV-I 160 W/m² 8,5 °C 9,7 °C 12,9 km/h (3 Bft)
16.05.2018 11:20 9,7 °C 92 % 1012,1 hPa 0,0 mm 5,2 km/h (1 Bft) W 271 ° 0 min 0,000 mm 1,2 UV-I 148 W/m² 8,5 °C 9,4 °C 11,3 km/h (2 Bft)
16.05.2018 11:21 9,7 °C 92 % 1012,0 hPa 0,0 mm 6,8 km/h (2 Bft) W 278 ° 0 min 0,000 mm 1,2 UV-I 139 W/m² 8,5 °C 8,9 °C 11,3 km/h (2 Bft)
16.05.2018 11:22 9,7 °C 92 % 1012,0 hPa 0,0 mm 5,2 km/h (1 Bft) W 271 ° 0 min 0,000 mm 1,1 UV-I 134 W/m² 8,5 °C 9,4 °C 9,7 km/h (2 Bft)
16.05.2018 11:23 9,7 °C 92 % 1012,1 hPa 0,0 mm 9,1 km/h (2 Bft) W 259 ° 0 min 0,000 mm 1,1 UV-I 139 W/m² 8,5 °C 8,4 °C 12,9 km/h (3 Bft)
16.05.2018 11:24 9,7 °C 92 % 1012,1 hPa 0,0 mm 7,3 km/h (2 Bft) W-SW 250 ° 0 min 0,000 mm 1,3 UV-I 148 W/m² 8,5 °C 8,8 °C 12,9 km/h (3 Bft)
16.05.2018 11:25 9,6 °C 91 % 1012,0 hPa 0,0 mm 4,8 km/h (1 Bft) W-SW 252 ° 0 min 0,000 mm 1,3 UV-I 156 W/m² 8,2 °C 9,4 °C 6,4 km/h (2 Bft)
16.05.2018 11:26 9,6 °C 92 % 1012,1 hPa 0,0 mm 3,1 km/h (1 Bft) W-SW 252 ° 0 min 0,000 mm 1,4 UV-I 169 W/m² 8,4 °C 9,6 °C 4,8 km/h (1 Bft)
16.05.2018 11:27 9,6 °C 92 % 1012,0 hPa 0,0 mm 0,8 km/h (0 Bft) W-SW 252 ° 0 min 0,000 mm 1,5 UV-I 185 W/m² 8,4 °C 9,6 °C 1,6 km/h (1 Bft)
16.05.2018 11:28 9,6 °C 92 % 1012,0 hPa 0,0 mm 4,6 km/h (1 Bft) W-NW 288 ° 0 min 0,000 mm 1,6 UV-I 211 W/m² 8,4 °C 9,4 °C 6,4 km/h (2 Bft)
16.05.2018 11:29 9,7 °C 92 % 1012,1 hPa 0,0 mm 4,8 km/h (1 Bft) W 273 ° 0 min 0,000 mm 1,7 UV-I 216 W/m² 8,5 °C 9,5 °C 6,4 km/h (2 Bft)
16.05.2018 11:30 9,7 °C 92 % 1012,0 hPa 0,0 mm 3,5 km/h (1 Bft) W 273 ° 0 min 0,000 mm 1,8 UV-I 220 W/m² 8,5 °C 9,7 °C 4,8 km/h (1 Bft)
16.05.2018 11:31 9,7 °C 91 % 1012,1 hPa 0,0 mm 5,3 km/h (1 Bft) NW 311 ° 0 min 0,000 mm 1,8 UV-I 223 W/m² 8,3 °C 9,3 °C 9,7 km/h (2 Bft)
16.05.2018 11:32 9,7 °C 91 % 1012,0 hPa 0,0 mm 11,7 km/h (2 Bft) W-SW 257 ° 0 min 0,000 mm 1,8 UV-I 223 W/m² 8,3 °C 8,0 °C 14,5 km/h (3 Bft)
16.05.2018 11:33 9,7 °C 91 % 1012,1 hPa 0,0 mm 7,4 km/h (2 Bft) W 267 ° 0 min 0,000 mm 1,8 UV-I 220 W/m² 8,3 °C 8,8 °C 11,3 km/h (2 Bft)
16.05.2018 11:34 9,7 °C 91 % 1012,1 hPa 0,0 mm 3,9 km/h (1 Bft) W 271 ° 0 min 0,000 mm 1,7 UV-I 216 W/m² 8,3 °C 9,7 °C 6,4 km/h (2 Bft)
16.05.2018 11:35 9,7 °C 91 % 1012,1 hPa 0,0 mm 5,6 km/h (1 Bft) W-NW 294 ° 0 min 0,000 mm 1,7 UV-I 195 W/m² 8,3 °C 9,2 °C 11,3 km/h (2 Bft)
16.05.2018 11:36 9,8 °C 92 % 1012,1 hPa 0,0 mm 7,1 km/h (2 Bft) W 273 ° 0 min 0,000 mm 1,4 UV-I 179 W/m² 8,6 °C 9,0 °C 11,3 km/h (2 Bft)
16.05.2018 11:37 9,8 °C 92 % 1012,1 hPa 0,0 mm 7,8 km/h (2 Bft) W-NW 300 ° 0 min 0,000 mm 1,4 UV-I 169 W/m² 8,6 °C 8,8 °C 11,3 km/h (2 Bft)
16.05.2018 11:38 9,8 °C 91 % 1012,1 hPa 0,0 mm 3,8 km/h (1 Bft) W 271 ° 0 min 0,000 mm 1,3 UV-I 165 W/m² 8,4 °C 9,8 °C 9,7 km/h (2 Bft)
16.05.2018 11:39 9,8 °C 91 % 1012,1 hPa 0,0 mm 4,4 km/h (1 Bft) W 263 ° 0 min 0,000 mm 1,4 UV-I 167 W/m² 8,4 °C 9,8 °C 6,4 km/h (2 Bft)
16.05.2018 11:40 9,8 °C 91 % 1012,1 hPa 0,0 mm 5,1 km/h (1 Bft) W 279 ° 0 min 0,000 mm 1,3 UV-I 149 W/m² 8,4 °C 9,5 °C 11,3 km/h (2 Bft)
16.05.2018 11:41 9,9 °C 91 % 1012,1 hPa 0,0 mm 3,9 km/h (1 Bft) W 260 ° 0 min 0,000 mm 1,1 UV-I 135 W/m² 8,5 °C 9,9 °C 6,4 km/h (2 Bft)
16.05.2018 11:42 9,8 °C 91 % 1012,2 hPa 0,0 mm 7,9 km/h (2 Bft) W-NW 294 ° 0 min 0,000 mm 1,1 UV-I 128 W/m² 8,4 °C 8,8 °C 14,5 km/h (3 Bft)
16.05.2018 11:43 9,8 °C 91 % 1012,0 hPa 0,0 mm 3,0 km/h (1 Bft) W-NW 303 ° 0 min 0,000 mm 1,0 UV-I 121 W/m² 8,4 °C 9,8 °C 8,0 km/h (2 Bft)
16.05.2018 11:44 9,8 °C 91 % 1012,1 hPa 0,0 mm 3,8 km/h (1 Bft) W-NW 284 ° 0 min 0,000 mm 1,0 UV-I 114 W/m² 8,4 °C 9,8 °C 8,0 km/h (2 Bft)
16.05.2018 11:45 9,8 °C 91 % 1012,1 hPa 0,0 mm 8,5 km/h (2 Bft) W 262 ° 0 min 0,000 mm 0,9 UV-I 111 W/m² 8,4 °C 8,7 °C 14,5 km/h (3 Bft)
16.05.2018 11:46 9,7 °C 91 % 1012,2 hPa 0,0 mm 9,9 km/h (2 Bft) W-NW 291 ° 0 min 0,000 mm 0,9 UV-I 107 W/m² 8,3 °C 8,3 °C 14,5 km/h (3 Bft)
16.05.2018 11:47 9,7 °C 90 % 1012,1 hPa 0,0 mm 4,4 km/h (1 Bft) W 267 ° 0 min 0,000 mm 0,9 UV-I 111 W/m² 8,1 °C 9,7 °C 9,7 km/h (2 Bft)
16.05.2018 11:48 9,7 °C 90 % 1012,2 hPa 0,0 mm 5,5 km/h (1 Bft) W-SW 257 ° 0 min 0,000 mm 1,0 UV-I 114 W/m² 8,1 °C 9,3 °C 11,3 km/h (2 Bft)
16.05.2018 11:49 9,6 °C 90 % 1012,2 hPa 0,0 mm 4,5 km/h (1 Bft) W-SW 240 ° 0 min 0,000 mm 1,0 UV-I 114 W/m² 8,0 °C 9,6 °C 8,0 km/h (2 Bft)
16.05.2018 11:50 9,6 °C 91 % 1012,2 hPa 0,0 mm 9,0 km/h (2 Bft) W 260 ° 0 min 0,000 mm 1,0 UV-I 113 W/m² 8,2 °C 8,3 °C 12,9 km/h (3 Bft)
16.05.2018 11:51 9,6 °C 91 % 1012,2 hPa 0,0 mm 4,7 km/h (1 Bft) W 269 ° 0 min 0,000 mm 0,9 UV-I 107 W/m² 8,2 °C 9,4 °C 9,7 km/h (2 Bft)
16.05.2018 11:52 9,6 °C 91 % 1012,2 hPa 0,0 mm 4,3 km/h (1 Bft) W-SW 243 ° 0 min 0,000 mm 0,9 UV-I 104 W/m² 8,2 °C 9,6 °C 11,3 km/h (2 Bft)
16.05.2018 11:53 9,6 °C 91 % 1012,2 hPa 0,0 mm 6,8 km/h (2 Bft) SW 236 ° 0 min 0,000 mm 0,9 UV-I 102 W/m² 8,2 °C 8,8 °C 14,5 km/h (3 Bft)
16.05.2018 11:54 9,6 °C 91 % 1012,2 hPa 0,0 mm 6,2 km/h (2 Bft) W-SW 251 ° 0 min 0,000 mm 0,8 UV-I 98 W/m² 8,2 °C 9,0 °C 14,5 km/h (3 Bft)
16.05.2018 11:55 9,5 °C 91 % 1012,2 hPa 0,0 mm 5,3 km/h (1 Bft) W-SW 249 ° 0 min 0,000 mm 0,8 UV-I 95 W/m² 8,1 °C 9,1 °C 11,3 km/h (2 Bft)
16.05.2018 11:56 9,5 °C 91 % 1012,2 hPa 0,0 mm 5,1 km/h (1 Bft) W 275 ° 0 min 0,000 mm 0,8 UV-I 95 W/m² 8,1 °C 9,2 °C 6,4 km/h (2 Bft)
16.05.2018 11:57 9,5 °C 91 % 1012,3 hPa 0,0 mm 4,6 km/h (1 Bft) W 265 ° 0 min 0,000 mm 0,8 UV-I 98 W/m² 8,1 °C 9,3 °C 6,4 km/h (2 Bft)
16.05.2018 11:58 9,4 °C 91 % 1012,2 hPa 0,0 mm 5,7 km/h (1 Bft) W 278 ° 0 min 0,000 mm 0,9 UV-I 105 W/m² 8,0 °C 8,9 °C 6,4 km/h (2 Bft)
16.05.2018 11:59 9,4 °C 91 % 1012,2 hPa 0,0 mm 4,2 km/h (1 Bft) W-SW 255 ° 0 min 0,000 mm 0,9 UV-I 100 W/m² 8,0 °C 9,4 °C 6,4 km/h (2 Bft)
16.05.2018 12:00 9,4 °C 91 % 1012,3 hPa 0,0 mm 1,0 km/h (0 Bft) W-SW 255 ° 0 min 0,000 mm 0,8 UV-I 97 W/m² 8,0 °C 9,4 °C 1,6 km/h (1 Bft)
16.05.2018 12:01 9,4 °C 92 % 1012,3 hPa 0,0 mm 1,1 km/h (1 Bft) W-SW 255 ° 0 min 0,077 mm 0,9 UV-I 100 W/m² 8,2 °C 9,4 °C 3,2 km/h (1 Bft)
16.05.2018 12:02 9,4 °C 92 % 1012,3 hPa 0,0 mm 4,0 km/h (1 Bft) W-NW 289 ° 0 min 0,000 mm 0,9 UV-I 104 W/m² 8,2 °C 9,4 °C 4,8 km/h (1 Bft)
16.05.2018 12:03 9,4 °C 92 % 1012,3 hPa 0,0 mm 2,0 km/h (1 Bft) W 281 ° 0 min 0,000 mm 1,0 UV-I 111 W/m² 8,2 °C 9,4 °C 3,2 km/h (1 Bft)
16.05.2018 12:04 9,4 °C 92 % 1012,2 hPa 0,0 mm 1,4 km/h (1 Bft) W-SW 238 ° 0 min 0,000 mm 1,1 UV-I 127 W/m² 8,2 °C 9,4 °C 3,2 km/h (1 Bft)
16.05.2018 12:05 9,4 °C 92 % 1012,3 hPa 0,0 mm 1,7 km/h (1 Bft) W 268 ° 0 min 0,000 mm 1,2 UV-I 135 W/m² 8,2 °C 9,4 °C 4,8 km/h (1 Bft)
16.05.2018 12:06 9,4 °C 92 % 1012,3 hPa 0,0 mm 2,5 km/h (1 Bft) W-NW 297 ° 0 min 0,000 mm 1,3 UV-I 135 W/m² 8,2 °C 9,4 °C 6,4 km/h (2 Bft)
16.05.2018 12:07 9,4 °C 92 % 1012,3 hPa 0,0 mm 4,7 km/h (1 Bft) W 263 ° 0 min 0,000 mm 1,4 UV-I 160 W/m² 8,2 °C 9,2 °C 6,4 km/h (2 Bft)
16.05.2018 12:08 9,4 °C 92 % 1012,3 hPa 0,0 mm 1,8 km/h (1 Bft) W-SW 237 ° 0 min 0,000 mm 1,4 UV-I 163 W/m² 8,2 °C 9,4 °C 4,8 km/h (1 Bft)
16.05.2018 12:09 9,5 °C 92 % 1012,3 hPa 0,0 mm 6,4 km/h (2 Bft) NW 309 ° 0 min 0,000 mm 1,5 UV-I 169 W/m² 8,3 °C 8,8 °C 9,7 km/h (2 Bft)
16.05.2018 12:10 9,5 °C 92 % 1012,3 hPa 0,0 mm 6,4 km/h (2 Bft) W-NW 299 ° 0 min 0,000 mm 1,5 UV-I 174 W/m² 8,3 °C 8,8 °C 9,7 km/h (2 Bft)
16.05.2018 12:11 9,6 °C 92 % 1012,3 hPa 0,0 mm 6,9 km/h (2 Bft) W-NW 284 ° 0 min 0,000 mm 1,5 UV-I 172 W/m² 8,4 °C 8,8 °C 11,3 km/h (2 Bft)
16.05.2018 12:12 9,6 °C 92 % 1012,3 hPa 0,0 mm 3,6 km/h (1 Bft) W 278 ° 0 min 0,000 mm 1,4 UV-I 162 W/m² 8,4 °C 9,6 °C 9,7 km/h (2 Bft)
16.05.2018 12:13 9,6 °C 92 % 1012,4 hPa 0,0 mm 2,8 km/h (1 Bft) W-SW 252 ° 0 min 0,000 mm 1,3 UV-I 162 W/m² 8,4 °C 9,6 °C 4,8 km/h (1 Bft)
16.05.2018 12:14 9,6 °C 92 % 1012,4 hPa 0,0 mm 4,8 km/h (1 Bft) S 169 ° 0 min 0,000 mm 1,2 UV-I 137 W/m² 8,4 °C 9,4 °C 6,4 km/h (2 Bft)
16.05.2018 12:15 9,6 °C 91 % 1012,3 hPa 0,0 mm 1,9 km/h (1 Bft) W-SW 237 ° 0 min 0,000 mm 1,2 UV-I 137 W/m² 8,2 °C 9,6 °C 6,4 km/h (2 Bft)
16.05.2018 12:16 9,6 °C 91 % 1012,4 hPa 0,0 mm 5,0 km/h (1 Bft) W-SW 238 ° 0 min 0,000 mm 1,2 UV-I 137 W/m² 8,2 °C 9,3 °C 6,4 km/h (2 Bft)
16.05.2018 12:17 9,6 °C 91 % 1012,4 hPa 0,0 mm 1,7 km/h (1 Bft) W 271 ° 0 min 0,000 mm 1,2 UV-I 134 W/m² 8,2 °C 9,6 °C 4,8 km/h (1 Bft)
16.05.2018 12:18 9,6 °C 92 % 1012,4 hPa 0,0 mm 4,2 km/h (1 Bft) W-NW 302 ° 0 min 0,000 mm 1,1 UV-I 127 W/m² 8,4 °C 9,6 °C 6,4 km/h (2 Bft)
16.05.2018 12:19 9,6 °C 92 % 1012,4 hPa 0,0 mm 2,3 km/h (1 Bft) W-NW 302 ° 0 min 0,000 mm 1,1 UV-I 120 W/m² 8,4 °C 9,6 °C 4,8 km/h (1 Bft)
16.05.2018 12:20 9,6 °C 92 % 1012,4 hPa 0,0 mm 5,5 km/h (1 Bft) W-SW 257 ° 0 min 0,000 mm 1,1 UV-I 120 W/m² 8,4 °C 9,2 °C 6,4 km/h (2 Bft)
16.05.2018 12:21 9,6 °C 92 % 1012,4 hPa 0,0 mm 2,7 km/h (1 Bft) W 276 ° 0 min 0,000 mm 1,1 UV-I 125 W/m² 8,4 °C 9,6 °C 4,8 km/h (1 Bft)
16.05.2018 12:22 9,6 °C 92 % 1012,4 hPa 0,0 mm 2,3 km/h (1 Bft) W 276 ° 0 min 0,000 mm 1,1 UV-I 123 W/m² 8,4 °C 9,6 °C 4,8 km/h (1 Bft)
16.05.2018 12:23 9,6 °C 92 % 1012,5 hPa 0,0 mm 1,9 km/h (1 Bft) W 276 ° 0 min 0,000 mm 1,0 UV-I 116 W/m² 8,4 °C 9,6 °C 3,2 km/h (1 Bft)
16.05.2018 12:24 9,6 °C 92 % 1012,5 hPa 0,0 mm 2,7 km/h (1 Bft) W 273 ° 0 min 0,000 mm 0,9 UV-I 107 W/m² 8,4 °C 9,6 °C 4,8 km/h (1 Bft)
16.05.2018 12:25 9,7 °C 92 % 1012,5 hPa 0,0 mm 4,6 km/h (1 Bft) NW 308 ° 0 min 0,000 mm 0,9 UV-I 102 W/m² 8,5 °C 9,5 °C 6,4 km/h (2 Bft)
16.05.2018 12:26 9,6 °C 92 % 1012,5 hPa 0,0 mm 5,9 km/h (2 Bft) W-NW 292 ° 0 min 0,000 mm 0,9 UV-I 100 W/m² 8,4 °C 9,0 °C 9,7 km/h (2 Bft)
16.05.2018 12:27 9,6 °C 92 % 1012,5 hPa 0,0 mm 5,7 km/h (1 Bft) W-NW 303 ° 0 min 0,000 mm 0,8 UV-I 86 W/m² 8,4 °C 9,1 °C 11,3 km/h (2 Bft)
16.05.2018 12:28 9,6 °C 92 % 1012,5 hPa 0,0 mm 4,1 km/h (1 Bft) W 273 ° 0 min 0,000 mm 0,7 UV-I 84 W/m² 8,4 °C 9,6 °C 6,4 km/h (2 Bft)
16.05.2018 12:29 9,6 °C 92 % 1012,5 hPa 0,0 mm 1,3 km/h (1 Bft) W 273 ° 0 min 0,000 mm 0,7 UV-I 84 W/m² 8,4 °C 9,6 °C 3,2 km/h (1 Bft)
16.05.2018 12:30 9,6 °C 92 % 1012,5 hPa 0,0 mm 2,1 km/h (1 Bft) W-NW 284 ° 0 min 0,000 mm 0,8 UV-I 90 W/m² 8,4 °C 9,6 °C 4,8 km/h (1 Bft)
16.05.2018 12:31 9,6 °C 92 % 1012,5 hPa 0,0 mm 1,8 km/h (1 Bft) W-NW 284 ° 0 min 0,000 mm 0,9 UV-I 100 W/m² 8,4 °C 9,6 °C 4,8 km/h (1 Bft)
16.05.2018 12:32 9,6 °C 92 % 1012,5 hPa 0,0 mm 3,0 km/h (1 Bft) W 259 ° 0 min 0,000 mm 1,0 UV-I 116 W/m² 8,4 °C 9,6 °C 6,4 km/h (2 Bft)
16.05.2018 12:33 9,6 °C 93 % 1012,5 hPa 0,0 mm 5,3 km/h (1 Bft) W-NW 302 ° 0 min 0,000 mm 1,1 UV-I 114 W/m² 8,5 °C 9,2 °C 6,4 km/h (2 Bft)
16.05.2018 12:34 9,6 °C 92 % 1012,5 hPa 0,0 mm 6,4 km/h (2 Bft) W 275 ° 0 min 0,000 mm 1,0 UV-I 111 W/m² 8,4 °C 8,9 °C 11,3 km/h (2 Bft)
16.05.2018 12:35 9,5 °C 92 % 1012,6 hPa 0,0 mm 3,2 km/h (1 Bft) W 281 ° 0 min 0,000 mm 0,9 UV-I 107 W/m² 8,3 °C 9,5 °C 6,4 km/h (2 Bft)
16.05.2018 12:36 9,5 °C 92 % 1012,6 hPa 0,0 mm 4,2 km/h (1 Bft) W-NW 289 ° 0 min 0,000 mm 0,9 UV-I 102 W/m² 8,3 °C 9,5 °C 6,4 km/h (2 Bft)
16.05.2018 12:37 9,5 °C 92 % 1012,6 hPa 0,0 mm 2,7 km/h (1 Bft) W-NW 285 ° 0 min 0,000 mm 0,9 UV-I 98 W/m² 8,3 °C 9,5 °C 3,2 km/h (1 Bft)
16.05.2018 12:38 9,5 °C 92 % 1012,6 hPa 0,0 mm 3,0 km/h (1 Bft) W-NW 285 ° 0 min 0,000 mm 0,9 UV-I 105 W/m² 8,3 °C 9,5 °C 4,8 km/h (1 Bft)
16.05.2018 12:39 9,5 °C 92 % 1012,6 hPa 0,0 mm 2,2 km/h (1 Bft) W-NW 286 ° 0 min 0,000 mm 1,0 UV-I 113 W/m² 8,3 °C 9,5 °C 3,2 km/h (1 Bft)
16.05.2018 12:40 9,5 °C 92 % 1012,6 hPa 0,0 mm 0,9 km/h (0 Bft) W 265 ° 0 min 0,000 mm 0,9 UV-I 104 W/m² 8,3 °C 9,5 °C 4,8 km/h (1 Bft)
16.05.2018 12:41 9,5 °C 92 % 1012,6 hPa 0,0 mm 6,4 km/h (2 Bft) W 269 ° 0 min 0,000 mm 0,8 UV-I 95 W/m² 8,3 °C 8,8 °C 9,7 km/h (2 Bft)
16.05.2018 12:42 9,4 °C 92 % 1012,6 hPa 0,0 mm 5,7 km/h (1 Bft) W 276 ° 0 min 0,000 mm 0,8 UV-I 91 W/m² 8,2 °C 8,9 °C 9,7 km/h (2 Bft)
16.05.2018 12:43 9,4 °C 92 % 1012,6 hPa 0,0 mm 3,6 km/h (1 Bft) SW 236 ° 0 min 0,000 mm 0,8 UV-I 93 W/m² 8,2 °C 9,4 °C 6,4 km/h (2 Bft)
16.05.2018 12:44 9,4 °C 92 % 1012,6 hPa 0,0 mm 3,9 km/h (1 Bft) W 265 ° 0 min 0,000 mm 0,8 UV-I 95 W/m² 8,2 °C 9,4 °C 6,4 km/h (2 Bft)
16.05.2018 12:45 9,4 °C 92 % 1012,6 hPa 0,0 mm 1,5 km/h (1 Bft) W 265 ° 0 min 0,000 mm 0,8 UV-I 93 W/m² 8,2 °C 9,4 °C 3,2 km/h (1 Bft)
16.05.2018 12:46 9,3 °C 92 % 1012,6 hPa 0,0 mm 4,8 km/h (1 Bft) W 270 ° 0 min 0,000 mm 0,8 UV-I 95 W/m² 8,1 °C 9,0 °C 6,4 km/h (2 Bft)
16.05.2018 12:47 9,3 °C 92 % 1012,6 hPa 0,0 mm 1,6 km/h (1 Bft) W 270 ° 0 min 0,000 mm 0,9 UV-I 102 W/m² 8,1 °C 9,3 °C 3,2 km/h (1 Bft)
16.05.2018 12:48 9,3 °C 92 % 1012,6 hPa 0,0 mm 1,6 km/h (1 Bft) W-SW 247 ° 0 min 0,000 mm 1,1 UV-I 120 W/m² 8,1 °C 9,3 °C 6,4 km/h (2 Bft)
16.05.2018 12:49 9,4 °C 92 % 1012,5 hPa 0,0 mm 3,2 km/h (1 Bft) W-SW 247 ° 0 min 0,000 mm 1,4 UV-I 155 W/m² 8,2 °C 9,4 °C 6,4 km/h (2 Bft)
16.05.2018 12:50 9,4 °C 92 % 1012,6 hPa 0,0 mm 1,6 km/h (1 Bft) W-SW 247 ° 0 min 0,000 mm 1,8 UV-I 216 W/m² 8,2 °C 9,4 °C 3,2 km/h (1 Bft)
16.05.2018 12:51 9,4 °C 92 % 1012,5 hPa 0,0 mm 0,0 km/h (0 Bft) W-SW 247 ° 0 min 0,000 mm 1,9 UV-I 211 W/m² 8,2 °C 9,4 °C 3,2 km/h (1 Bft)
16.05.2018 12:52 9,4 °C 92 % 1012,5 hPa 0,0 mm 1,6 km/h (1 Bft) W 270 ° 0 min 0,000 mm 1,8 UV-I 197 W/m² 8,2 °C 9,4 °C 3,2 km/h (1 Bft)
16.05.2018 12:53 9,5 °C 92 % 1012,5 hPa 0,0 mm 3,2 km/h (1 Bft) W 270 ° 0 min 0,000 mm 1,6 UV-I 192 W/m² 8,3 °C 9,5 °C 6,4 km/h (2 Bft)
16.05.2018 12:54 9,6 °C 93 % 1012,5 hPa 0,0 mm 3,2 km/h (1 Bft) W-SW 247 ° 0 min 0,000 mm 1,7 UV-I 197 W/m² 8,5 °C 9,6 °C 4,8 km/h (1 Bft)
16.05.2018 12:55 9,6 °C 93 % 1012,5 hPa 0,0 mm 6,4 km/h (2 Bft) W 270 ° 0 min 0,000 mm 1,7 UV-I 200 W/m² 8,5 °C 8,9 °C 8,0 km/h (2 Bft)
16.05.2018 12:56 9,6 °C 92 % 1012,5 hPa 0,0 mm 4,8 km/h (1 Bft) W 270 ° 0 min 0,000 mm 1,7 UV-I 193 W/m² 8,4 °C 9,4 °C 4,8 km/h (1 Bft)
16.05.2018 12:57 9,7 °C 93 % 1012,5 hPa 0,0 mm 3,2 km/h (1 Bft) W 270 ° 0 min 0,000 mm 1,6 UV-I 172 W/m² 8,6 °C 9,7 °C 6,4 km/h (2 Bft)
16.05.2018 12:58 9,7 °C 93 % 1012,5 hPa 0,0 mm 1,6 km/h (1 Bft) W 270 ° 0 min 0,000 mm 1,3 UV-I 155 W/m² 8,6 °C 9,7 °C 3,2 km/h (1 Bft)
16.05.2018 12:59 9,7 °C 92 % 1012,5 hPa 0,0 mm 1,6 km/h (1 Bft) W 270 ° 0 min 0,000 mm 1,2 UV-I 142 W/m² 8,5 °C 9,7 °C 6,4 km/h (2 Bft)
16.05.2018 13:00 9,7 °C 92 % 1012,5 hPa 0,0 mm 6,4 km/h (2 Bft) W-SW 247 ° 0 min 0,051 mm 1,2 UV-I 144 W/m² 8,5 °C 9,0 °C 9,7 km/h (2 Bft)
16.05.2018 13:01 9,7 °C 92 % 1012,4 hPa 0,0 mm 6,4 km/h (2 Bft) W 270 ° 0 min 0,000 mm 1,3 UV-I 146 W/m² 8,5 °C 9,0 °C 11,3 km/h (2 Bft)
16.05.2018 13:02 9,7 °C 92 % 1012,5 hPa 0,0 mm 4,8 km/h (1 Bft) W 270 ° 0 min 0,000 mm 1,2 UV-I 146 W/m² 8,5 °C 9,5 °C 8,0 km/h (2 Bft)
16.05.2018 13:03 9,7 °C 92 % 1012,5 hPa 0,0 mm 8,0 km/h (2 Bft) W 270 ° 0 min 0,000 mm 1,2 UV-I 142 W/m² 8,5 °C 8,7 °C 11,3 km/h (2 Bft)
16.05.2018 13:04 9,6 °C 92 % 1012,5 hPa 0,0 mm 4,8 km/h (1 Bft) W 270 ° 0 min 0,000 mm 1,2 UV-I 141 W/m² 8,4 °C 9,4 °C 6,4 km/h (2 Bft)
16.05.2018 13:05 9,6 °C 92 % 1012,5 hPa 0,0 mm 6,4 km/h (2 Bft) W 270 ° 0 min 0,000 mm 1,1 UV-I 135 W/m² 8,4 °C 8,9 °C 11,3 km/h (2 Bft)
16.05.2018 13:06 9,6 °C 92 % 1012,5 hPa 0,0 mm 9,7 km/h (2 Bft) W 270 ° 0 min 0,000 mm 1,1 UV-I 127 W/m² 8,4 °C 8,2 °C 12,9 km/h (3 Bft)
16.05.2018 13:07 9,6 °C 92 % 1012,5 hPa 0,0 mm 4,8 km/h (1 Bft) W-NW 292 ° 0 min 0,000 mm 1,0 UV-I 118 W/m² 8,4 °C 9,4 °C 6,4 km/h (2 Bft)
16.05.2018 13:08 9,6 °C 92 % 1012,5 hPa 0,0 mm 6,4 km/h (2 Bft) W-NW 292 ° 0 min 0,000 mm 0,9 UV-I 111 W/m² 8,4 °C 8,9 °C 11,3 km/h (2 Bft)
16.05.2018 13:09 9,6 °C 92 % 1012,5 hPa 0,0 mm 4,8 km/h (1 Bft) W-NW 292 ° 0 min 0,000 mm 0,8 UV-I 84 W/m² 8,4 °C 9,4 °C 9,7 km/h (2 Bft)
16.05.2018 13:10 9,6 °C 92 % 1012,5 hPa 0,2 mm 6,4 km/h (2 Bft) W 270 ° 0 min 0,000 mm 0,7 UV-I 81 W/m² 8,4 °C 8,9 °C 12,9 km/h (3 Bft)
16.05.2018 13:11 9,6 °C 92 % 1012,5 hPa 0,0 mm 4,8 km/h (1 Bft) W 270 ° 0 min 0,000 mm 0,7 UV-I 83 W/m² 8,4 °C 9,4 °C 6,4 km/h (2 Bft)
16.05.2018 13:12 9,5 °C 92 % 1012,5 hPa 0,0 mm 9,7 km/h (2 Bft) W 270 ° 0 min 0,000 mm 0,9 UV-I 100 W/m² 8,3 °C 8,1 °C 14,5 km/h (3 Bft)
16.05.2018 13:14 9,4 °C 92 % 1012,5 hPa 0,0 mm 8,0 km/h (2 Bft) W-NW 286 ° 0 min 0,000 mm 1,3 UV-I 144 W/m² 8,2 °C 8,3 °C 11,3 km/h (2 Bft)
16.05.2018 13:15 9,4 °C 92 % 1012,5 hPa 0,0 mm 6,1 km/h (2 Bft) W 263 ° 0 min 0,000 mm 1,1 UV-I 132 W/m² 8,2 °C 8,8 °C 8,0 km/h (2 Bft)
16.05.2018 13:16 9,4 °C 92 % 1012,5 hPa 0,0 mm 9,1 km/h (2 Bft) W-SW 254 ° 0 min 0,000 mm 1,0 UV-I 123 W/m² 8,2 °C 8,1 °C 12,9 km/h (3 Bft)
16.05.2018 13:17 9,4 °C 92 % 1012,5 hPa 0,0 mm 4,0 km/h (1 Bft) W 275 ° 0 min 0,000 mm 0,9 UV-I 109 W/m² 8,2 °C 9,4 °C 8,0 km/h (2 Bft)
16.05.2018 13:18 9,4 °C 92 % 1012,5 hPa 0,0 mm 7,1 km/h (2 Bft) W 273 ° 0 min 0,000 mm 0,8 UV-I 95 W/m² 8,2 °C 8,5 °C 11,3 km/h (2 Bft)
16.05.2018 13:19 9,4 °C 92 % 1012,5 hPa 0,0 mm 3,1 km/h (1 Bft) W-NW 293 ° 0 min 0,000 mm 0,8 UV-I 98 W/m² 8,2 °C 9,4 °C 6,4 km/h (2 Bft)
16.05.2018 13:20 9,4 °C 92 % 1012,6 hPa 0,0 mm 0,7 km/h (0 Bft) W-NW 293 ° 0 min 0,000 mm 0,9 UV-I 104 W/m² 8,2 °C 9,4 °C 1,6 km/h (1 Bft)
16.05.2018 13:21 9,4 °C 92 % 1012,5 hPa 0,0 mm 6,7 km/h (2 Bft) W-NW 301 ° 0 min 0,000 mm 0,8 UV-I 98 W/m² 8,2 °C 8,6 °C 12,9 km/h (3 Bft)
16.05.2018 13:22 9,4 °C 92 % 1012,5 hPa 0,0 mm 2,7 km/h (1 Bft) W-NW 287 ° 0 min 0,000 mm 0,9 UV-I 109 W/m² 8,2 °C 9,4 °C 4,8 km/h (1 Bft)
16.05.2018 13:23 9,4 °C 92 % 1012,5 hPa 0,0 mm 3,4 km/h (1 Bft) W 271 ° 0 min 0,000 mm 1,0 UV-I 121 W/m² 8,2 °C 9,4 °C 8,0 km/h (2 Bft)
16.05.2018 13:24 9,4 °C 92 % 1012,6 hPa 0,0 mm 2,0 km/h (1 Bft) W 263 ° 0 min 0,000 mm 1,0 UV-I 120 W/m² 8,2 °C 9,4 °C 3,2 km/h (1 Bft)
16.05.2018 13:25 9,4 °C 92 % 1012,6 hPa 0,0 mm 6,8 km/h (2 Bft) W 265 ° 0 min 0,000 mm 1,3 UV-I 146 W/m² 8,2 °C 8,6 °C 12,9 km/h (3 Bft)
16.05.2018 13:26 9,4 °C 92 % 1012,6 hPa 0,0 mm 4,5 km/h (1 Bft) SW 218 ° 0 min 0,000 mm 1,5 UV-I 190 W/m² 8,2 °C 9,4 °C 9,7 km/h (2 Bft)
16.05.2018 13:27 9,4 °C 92 % 1012,6 hPa 0,0 mm 7,2 km/h (2 Bft) W-NW 286 ° 0 min 0,000 mm 1,6 UV-I 192 W/m² 8,2 °C 8,5 °C 12,9 km/h (3 Bft)
16.05.2018 13:28 9,5 °C 92 % 1012,6 hPa 0,0 mm 7,4 km/h (2 Bft) W 261 ° 0 min 0,000 mm 1,6 UV-I 190 W/m² 8,3 °C 8,6 °C 11,3 km/h (2 Bft)
16.05.2018 13:29 9,6 °C 93 % 1012,6 hPa 0,0 mm 4,8 km/h (1 Bft) W-NW 286 ° 0 min 0,000 mm 1,5 UV-I 186 W/m² 8,5 °C 9,4 °C 6,4 km/h (2 Bft)
16.05.2018 13:30 9,6 °C 93 % 1012,6 hPa 0,0 mm 3,5 km/h (1 Bft) W 265 ° 0 min 0,000 mm 1,2 UV-I 156 W/m² 8,5 °C 9,6 °C 4,8 km/h (1 Bft)
16.05.2018 13:31 9,7 °C 93 % 1012,6 hPa 0,0 mm 6,2 km/h (2 Bft) W 273 ° 0 min 0,000 mm 1,2 UV-I 141 W/m² 8,6 °C 9,1 °C 16,1 km/h (3 Bft)
16.05.2018 13:32 9,7 °C 92 % 1012,6 hPa 0,0 mm 6,2 km/h (2 Bft) W 269 ° 0 min 0,000 mm 1,4 UV-I 192 W/m² 8,5 °C 9,1 °C 11,3 km/h (2 Bft)
16.05.2018 13:33 9,7 °C 93 % 1012,6 hPa 0,0 mm 11,5 km/h (2 Bft) W 272 ° 0 min 0,000 mm 1,5 UV-I 186 W/m² 8,6 °C 8,0 °C 16,1 km/h (3 Bft)
16.05.2018 13:34 9,7 °C 92 % 1012,5 hPa 0,0 mm 9,0 km/h (2 Bft) W-SW 257 ° 0 min 0,000 mm 1,3 UV-I 163 W/m² 8,5 °C 8,5 °C 14,5 km/h (3 Bft)
16.05.2018 13:35 9,7 °C 93 % 1012,6 hPa 0,0 mm 8,2 km/h (2 Bft) W 281 ° 0 min 0,000 mm 1,2 UV-I 146 W/m² 8,6 °C 8,6 °C 11,3 km/h (2 Bft)
16.05.2018 13:36 9,7 °C 92 % 1012,6 hPa 0,0 mm 9,5 km/h (2 Bft) W-NW 300 ° 0 min 0,000 mm 1,1 UV-I 141 W/m² 8,5 °C 8,4 °C 14,5 km/h (3 Bft)
16.05.2018 13:37 9,7 °C 92 % 1012,6 hPa 0,0 mm 6,7 km/h (2 Bft) W 259 ° 0 min 0,000 mm 1,2 UV-I 144 W/m² 8,5 °C 8,9 °C 11,3 km/h (2 Bft)
16.05.2018 13:38 9,8 °C 92 % 1012,6 hPa 0,0 mm 6,2 km/h (2 Bft) W 269 ° 0 min 0,000 mm 1,3 UV-I 158 W/m² 8,6 °C 9,2 °C 9,7 km/h (2 Bft)
16.05.2018 13:39 9,8 °C 93 % 1012,6 hPa 0,0 mm 4,7 km/h (1 Bft) W 275 ° 0 min 0,000 mm 1,3 UV-I 153 W/m² 8,7 °C 9,6 °C 6,4 km/h (2 Bft)
16.05.2018 13:40 9,8 °C 92 % 1012,6 hPa 0,0 mm 5,8 km/h (2 Bft) W-NW 290 ° 0 min 0,000 mm 1,3 UV-I 153 W/m² 8,6 °C 9,3 °C 11,3 km/h (2 Bft)
16.05.2018 13:41 9,7 °C 92 % 1012,6 hPa 0,0 mm 4,8 km/h (1 Bft) W-SW 248 ° 0 min 0,000 mm 1,3 UV-I 162 W/m² 8,5 °C 9,5 °C 9,7 km/h (2 Bft)
16.05.2018 13:42 9,7 °C 92 % 1012,5 hPa 0,0 mm 7,8 km/h (2 Bft) S-SW 192 ° 0 min 0,000 mm 1,3 UV-I 156 W/m² 8,5 °C 8,7 °C 11,3 km/h (2 Bft)
16.05.2018 13:43 9,7 °C 92 % 1012,5 hPa 0,0 mm 12,0 km/h (2 Bft) W 270 ° 0 min 0,000 mm 1,0 UV-I 121 W/m² 8,5 °C 8,0 °C 16,1 km/h (3 Bft)
16.05.2018 13:44 9,7 °C 92 % 1012,6 hPa 0,0 mm 8,5 km/h (2 Bft) NW 312 ° 0 min 0,000 mm 1,0 UV-I 130 W/m² 8,5 °C 8,6 °C 12,9 km/h (3 Bft)
16.05.2018 13:45 9,7 °C 92 % 1012,6 hPa 0,0 mm 7,3 km/h (2 Bft) W 271 ° 0 min 0,000 mm 1,3 UV-I 153 W/m² 8,5 °C 8,8 °C 12,9 km/h (3 Bft)
16.05.2018 13:46 9,7 °C 92 % 1012,6 hPa 0,0 mm 5,5 km/h (1 Bft) W 259 ° 0 min 0,000 mm 1,4 UV-I 171 W/m² 8,5 °C 9,3 °C 14,5 km/h (3 Bft)
16.05.2018 13:47 9,6 °C 92 % 1012,6 hPa 0,0 mm 2,7 km/h (1 Bft) W 274 ° 0 min 0,000 mm 1,4 UV-I 169 W/m² 8,4 °C 9,6 °C 6,4 km/h (2 Bft)
16.05.2018 13:48 9,7 °C 92 % 1012,6 hPa 0,0 mm 1,8 km/h (1 Bft) W-NW 290 ° 0 min 0,000 mm 1,4 UV-I 174 W/m² 8,5 °C 9,7 °C 4,8 km/h (1 Bft)
16.05.2018 13:49 9,7 °C 92 % 1012,6 hPa 0,0 mm 9,1 km/h (2 Bft) W 279 ° 0 min 0,000 mm 1,5 UV-I 195 W/m² 8,5 °C 8,4 °C 11,3 km/h (2 Bft)
16.05.2018 13:50 9,7 °C 92 % 1012,6 hPa 0,0 mm 8,2 km/h (2 Bft) W-SW 240 ° 0 min 0,000 mm 1,8 UV-I 211 W/m² 8,5 °C 8,6 °C 14,5 km/h (3 Bft)
16.05.2018 13:51 9,7 °C 92 % 1012,6 hPa 0,0 mm 6,5 km/h (2 Bft) W 275 ° 0 min 0,000 mm 1,7 UV-I 209 W/m² 8,5 °C 9,0 °C 12,9 km/h (3 Bft)
16.05.2018 13:52 9,7 °C 92 % 1012,6 hPa 0,0 mm 6,6 km/h (2 Bft) W-SW 257 ° 0 min 0,000 mm 1,6 UV-I 190 W/m² 8,5 °C 9,0 °C 11,3 km/h (2 Bft)
16.05.2018 13:53 9,8 °C 92 % 1012,6 hPa 0,0 mm 4,3 km/h (1 Bft) W 269 ° 0 min 0,000 mm 1,5 UV-I 181 W/m² 8,6 °C 9,8 °C 9,7 km/h (2 Bft)
16.05.2018 13:54 9,8 °C 92 % 1012,6 hPa 0,0 mm 5,3 km/h (1 Bft) W 265 ° 0 min 0,000 mm 1,5 UV-I 183 W/m² 8,6 °C 9,4 °C 14,5 km/h (3 Bft)
16.05.2018 13:55 9,8 °C 92 % 1012,6 hPa 0,0 mm 14,3 km/h (3 Bft) W 269 ° 0 min 0,000 mm 1,6 UV-I 183 W/m² 8,6 °C 7,8 °C 22,5 km/h (4 Bft)
16.05.2018 13:56 9,8 °C 92 % 1012,5 hPa 0,0 mm 10,8 km/h (2 Bft) W-SW 250 ° 0 min 0,000 mm 1,3 UV-I 158 W/m² 8,6 °C 8,3 °C 16,1 km/h (3 Bft)
16.05.2018 13:57 9,7 °C 92 % 1012,6 hPa 0,0 mm 8,3 km/h (2 Bft) W-NW 282 ° 0 min 0,000 mm 1,2 UV-I 144 W/m² 8,5 °C 8,6 °C 14,5 km/h (3 Bft)
16.05.2018 13:58 9,7 °C 92 % 1012,6 hPa 0,0 mm 10,9 km/h (2 Bft) W-NW 293 ° 0 min 0,000 mm 1,3 UV-I 155 W/m² 8,5 °C 8,1 °C 17,7 km/h (3 Bft)
16.05.2018 13:59 9,7 °C 92 % 1012,6 hPa 0,0 mm 10,7 km/h (2 Bft) W-NW 284 ° 0 min 0,000 mm 1,6 UV-I 186 W/m² 8,5 °C 8,2 °C 17,7 km/h (3 Bft)
16.05.2018 14:00 9,7 °C 92 % 1012,6 hPa 0,0 mm 12,7 km/h (3 Bft) NW 321 ° 0 min 0,076 mm 1,8 UV-I 213 W/m² 8,5 °C 7,8 °C 17,7 km/h (3 Bft)
16.05.2018 14:01 9,7 °C 92 % 1012,6 hPa 0,0 mm 11,7 km/h (2 Bft) W 266 ° 0 min 0,000 mm 1,7 UV-I 220 W/m² 8,5 °C 8,0 °C 16,1 km/h (3 Bft)
16.05.2018 14:02 9,7 °C 92 % 1012,6 hPa 0,0 mm 13,3 km/h (3 Bft) W-NW 296 ° 0 min 0,000 mm 2,1 UV-I 244 W/m² 8,5 °C 7,8 °C 17,7 km/h (3 Bft)
16.05.2018 14:03 9,7 °C 92 % 1012,6 hPa 0,0 mm 7,6 km/h (2 Bft) SW 232 ° 0 min 0,000 mm 2,0 UV-I 239 W/m² 8,5 °C 8,7 °C 12,9 km/h (3 Bft)
16.05.2018 14:04 9,7 °C 92 % 1012,6 hPa 0,0 mm 5,6 km/h (1 Bft) W 264 ° 0 min 0,000 mm 2,1 UV-I 239 W/m² 8,5 °C 9,2 °C 9,7 km/h (2 Bft)
16.05.2018 14:05 9,7 °C 92 % 1012,6 hPa 0,0 mm 10,2 km/h (2 Bft) W 277 ° 0 min 0,000 mm 2,2 UV-I 250 W/m² 8,5 °C 8,2 °C 14,5 km/h (3 Bft)
16.05.2018 14:06 9,8 °C 92 % 1012,6 hPa 0,0 mm 9,1 km/h (2 Bft) W-NW 289 ° 0 min 0,000 mm 2,2 UV-I 251 W/m² 8,6 °C 8,6 °C 12,9 km/h (3 Bft)
16.05.2018 14:07 9,8 °C 92 % 1012,6 hPa 0,0 mm 7,7 km/h (2 Bft) W-NW 291 ° 0 min 0,000 mm 2,1 UV-I 239 W/m² 8,6 °C 8,8 °C 11,3 km/h (2 Bft)
16.05.2018 14:08 9,9 °C 92 % 1012,6 hPa 0,0 mm 6,4 km/h (2 Bft) W-SW 240 ° 0 min 0,000 mm 2,0 UV-I 232 W/m² 8,7 °C 9,3 °C 11,3 km/h (2 Bft)
16.05.2018 14:09 9,8 °C 92 % 1012,6 hPa 0,0 mm 5,7 km/h (1 Bft) W 276 ° 0 min 0,000 mm 1,9 UV-I 223 W/m² 8,6 °C 9,3 °C 12,9 km/h (3 Bft)
16.05.2018 14:10 9,9 °C 92 % 1012,6 hPa 0,0 mm 7,1 km/h (2 Bft) W 265 ° 0 min 0,000 mm 1,8 UV-I 214 W/m² 8,7 °C 9,1 °C 11,3 km/h (2 Bft)
16.05.2018 14:11 9,9 °C 92 % 1012,6 hPa 0,0 mm 12,3 km/h (3 Bft) SW 230 ° 0 min 0,000 mm 1,7 UV-I 209 W/m² 8,7 °C 8,1 °C 16,1 km/h (3 Bft)
16.05.2018 14:12 9,9 °C 92 % 1012,6 hPa 0,0 mm 7,1 km/h (2 Bft) W 272 ° 0 min 0,000 mm 1,7 UV-I 206 W/m² 8,7 °C 9,1 °C 12,9 km/h (3 Bft)
16.05.2018 14:13 9,9 °C 92 % 1012,6 hPa 0,0 mm 4,9 km/h (1 Bft) W 279 ° 0 min 0,000 mm 1,6 UV-I 197 W/m² 8,7 °C 9,7 °C 6,4 km/h (2 Bft)
16.05.2018 14:14 9,9 °C 92 % 1012,6 hPa 0,0 mm 5,3 km/h (1 Bft) W 278 ° 0 min 0,000 mm 1,6 UV-I 193 W/m² 8,7 °C 9,6 °C 9,7 km/h (2 Bft)
16.05.2018 14:15 9,9 °C 92 % 1012,6 hPa 0,0 mm 8,9 km/h (2 Bft) W 259 ° 0 min 0,000 mm 1,5 UV-I 190 W/m² 8,7 °C 8,7 °C 16,1 km/h (3 Bft)
16.05.2018 14:16 9,9 °C 92 % 1012,5 hPa 0,0 mm 9,5 km/h (2 Bft) W 263 ° 0 min 0,000 mm 1,5 UV-I 188 W/m² 8,7 °C 8,6 °C 14,5 km/h (3 Bft)
16.05.2018 14:17 9,9 °C 92 % 1012,6 hPa 0,0 mm 6,4 km/h (2 Bft) W-SW 255 ° 0 min 0,000 mm 1,5 UV-I 188 W/m² 8,7 °C 9,3 °C 9,7 km/h (2 Bft)
16.05.2018 14:18 9,8 °C 92 % 1012,6 hPa 0,0 mm 5,1 km/h (1 Bft) W 278 ° 0 min 0,000 mm 1,5 UV-I 197 W/m² 8,6 °C 9,5 °C 9,7 km/h (2 Bft)
16.05.2018 14:19 9,8 °C 92 % 1012,6 hPa 0,0 mm 5,4 km/h (1 Bft) W 265 ° 0 min 0,000 mm 1,6 UV-I 202 W/m² 8,6 °C 9,4 °C 9,7 km/h (2 Bft)
16.05.2018 14:20 9,8 °C 92 % 1012,5 hPa 0,0 mm 9,2 km/h (2 Bft) W 266 ° 0 min 0,000 mm 1,7 UV-I 206 W/m² 8,6 °C 8,5 °C 14,5 km/h (3 Bft)
16.05.2018 14:21 9,8 °C 92 % 1012,5 hPa 0,0 mm 5,0 km/h (1 Bft) W-SW 246 ° 0 min 0,000 mm 1,7 UV-I 211 W/m² 8,6 °C 9,5 °C 9,7 km/h (2 Bft)
16.05.2018 14:22 9,7 °C 92 % 1012,6 hPa 0,0 mm 11,9 km/h (2 Bft) SW 235 ° 0 min 0,000 mm 1,8 UV-I 218 W/m² 8,5 °C 8,0 °C 17,7 km/h (3 Bft)
16.05.2018 14:23 9,7 °C 92 % 1012,5 hPa 0,0 mm 7,2 km/h (2 Bft) SW 231 ° 0 min 0,000 mm 1,8 UV-I 223 W/m² 8,5 °C 8,8 °C 16,1 km/h (3 Bft)
16.05.2018 14:24 9,7 °C 92 % 1012,6 hPa 0,0 mm 10,7 km/h (2 Bft) W-NW 294 ° 0 min 0,000 mm 1,9 UV-I 253 W/m² 8,5 °C 8,2 °C 14,5 km/h (3 Bft)
16.05.2018 14:25 9,8 °C 92 % 1012,5 hPa 0,0 mm 9,4 km/h (2 Bft) W 275 ° 0 min 0,000 mm 2,2 UV-I 269 W/m² 8,6 °C 8,5 °C 14,5 km/h (3 Bft)
16.05.2018 14:26 9,8 °C 92 % 1012,5 hPa 0,0 mm 12,3 km/h (3 Bft) W 260 ° 0 min 0,000 mm 2,2 UV-I 276 W/m² 8,6 °C 8,0 °C 17,7 km/h (3 Bft)
16.05.2018 14:27 9,9 °C 92 % 1012,5 hPa 0,0 mm 10,9 km/h (2 Bft) W 271 ° 0 min 0,000 mm 2,2 UV-I 276 W/m² 8,7 °C 8,4 °C 16,1 km/h (3 Bft)
16.05.2018 14:28 9,8 °C 92 % 1012,6 hPa 0,0 mm 9,2 km/h (2 Bft) W 265 ° 0 min 0,000 mm 2,2 UV-I 269 W/m² 8,6 °C 8,5 °C 16,1 km/h (3 Bft)
16.05.2018 14:29 9,9 °C 92 % 1012,6 hPa 0,0 mm 10,7 km/h (2 Bft) W 276 ° 0 min 0,000 mm 2,1 UV-I 258 W/m² 8,7 °C 8,4 °C 12,9 km/h (3 Bft)
16.05.2018 14:30 10,0 °C 92 % 1012,6 hPa 0,0 mm 15,2 km/h (3 Bft) W-NW 298 ° 0 min 0,000 mm 2,1 UV-I 243 W/m² 8,8 °C 7,9 °C 19,3 km/h (3 Bft)
16.05.2018 14:31 9,9 °C 92 % 1012,6 hPa 0,0 mm 7,6 km/h (2 Bft) S-SW 203 ° 0 min 0,000 mm 2,0 UV-I 234 W/m² 8,7 °C 9,0 °C 12,9 km/h (3 Bft)
16.05.2018 14:32 9,9 °C 92 % 1012,6 hPa 0,0 mm 7,2 km/h (2 Bft) W-NW 289 ° 0 min 0,000 mm 1,9 UV-I 223 W/m² 8,7 °C 9,1 °C 14,5 km/h (3 Bft)
16.05.2018 14:33 10,0 °C 92 % 1012,6 hPa 0,0 mm 8,6 km/h (2 Bft) W 275 ° 0 min 0,000 mm 1,8 UV-I 216 W/m² 8,8 °C 8,9 °C 12,9 km/h (3 Bft)
16.05.2018 14:34 10,0 °C 92 % 1012,5 hPa 0,0 mm 10,5 km/h (2 Bft) W 277 ° 0 min 0,000 mm 1,8 UV-I 213 W/m² 8,8 °C 8,5 °C 14,5 km/h (3 Bft)
16.05.2018 14:35 10,1 °C 92 % 1012,5 hPa 0,0 mm 4,6 km/h (1 Bft) SW 231 ° 0 min 0,000 mm 1,8 UV-I 211 W/m² 8,9 °C 10,1 °C 12,9 km/h (3 Bft)
16.05.2018 14:36 10,1 °C 92 % 1012,5 hPa 0,0 mm 1,9 km/h (1 Bft) W-NW 290 ° 0 min 0,000 mm 1,8 UV-I 207 W/m² 8,9 °C 10,1 °C 4,8 km/h (1 Bft)
16.05.2018 14:37 10,1 °C 92 % 1012,6 hPa 0,0 mm 9,5 km/h (2 Bft) W 271 ° 0 min 0,000 mm 1,7 UV-I 202 W/m² 8,9 °C 10,1 °C 12,9 km/h (3 Bft)
16.05.2018 14:38 10,1 °C 92 % 1012,6 hPa 0,0 mm 7,4 km/h (2 Bft) W 260 ° 0 min 0,000 mm 1,6 UV-I 190 W/m² 8,9 °C 10,1 °C 12,9 km/h (3 Bft)
16.05.2018 14:39 10,1 °C 92 % 1012,6 hPa 0,0 mm 6,3 km/h (2 Bft) W-SW 257 ° 0 min 0,000 mm 1,5 UV-I 179 W/m² 8,9 °C 10,1 °C 11,3 km/h (2 Bft)
16.05.2018 14:40 10,1 °C 92 % 1012,6 hPa 0,0 mm 5,3 km/h (1 Bft) SW 214 ° 0 min 0,000 mm 1,4 UV-I 174 W/m² 8,9 °C 10,1 °C 11,3 km/h (2 Bft)
16.05.2018 14:41 10,0 °C 91 % 1012,7 hPa 0,0 mm 6,0 km/h (2 Bft) NW 315 ° 0 min 0,000 mm 1,4 UV-I 172 W/m² 8,6 °C 9,5 °C 12,9 km/h (3 Bft)
16.05.2018 14:42 9,9 °C 91 % 1012,6 hPa 0,0 mm 8,9 km/h (2 Bft) SW 228 ° 0 min 0,000 mm 1,4 UV-I 163 W/m² 8,5 °C 8,7 °C 14,5 km/h (3 Bft)
16.05.2018 14:43 9,9 °C 91 % 1012,6 hPa 0,0 mm 3,8 km/h (1 Bft) W 265 ° 0 min 0,000 mm 1,4 UV-I 160 W/m² 8,5 °C 9,9 °C 6,4 km/h (2 Bft)
16.05.2018 14:44 9,9 °C 91 % 1012,7 hPa 0,0 mm 7,9 km/h (2 Bft) W 271 ° 0 min 0,000 mm 1,4 UV-I 160 W/m² 8,5 °C 8,9 °C 12,9 km/h (3 Bft)
16.05.2018 14:45 9,9 °C 92 % 1012,7 hPa 0,0 mm 9,1 km/h (2 Bft) W-NW 285 ° 0 min 0,000 mm 1,3 UV-I 153 W/m² 8,7 °C 8,7 °C 12,9 km/h (3 Bft)
16.05.2018 14:46 9,9 °C 92 % 1012,7 hPa 0,0 mm 5,7 km/h (1 Bft) W-SW 254 ° 0 min 0,000 mm 1,2 UV-I 142 W/m² 8,7 °C 9,4 °C 9,7 km/h (2 Bft)
16.05.2018 14:47 9,8 °C 92 % 1012,7 hPa 0,0 mm 5,1 km/h (1 Bft) W 274 ° 0 min 0,000 mm 1,2 UV-I 139 W/m² 8,6 °C 9,5 °C 9,7 km/h (2 Bft)
16.05.2018 14:48 9,8 °C 91 % 1012,7 hPa 0,0 mm 7,5 km/h (2 Bft) W-NW 297 ° 0 min 0,000 mm 1,1 UV-I 121 W/m² 8,4 °C 8,9 °C 11,3 km/h (2 Bft)
16.05.2018 14:49 9,8 °C 91 % 1012,7 hPa 0,0 mm 7,0 km/h (2 Bft) W 275 ° 0 min 0,000 mm 1,0 UV-I 120 W/m² 8,4 °C 9,0 °C 11,3 km/h (2 Bft)
16.05.2018 14:50 9,8 °C 91 % 1012,7 hPa 0,0 mm 9,0 km/h (2 Bft) W-SW 256 ° 0 min 0,000 mm 1,1 UV-I 125 W/m² 8,4 °C 8,6 °C 16,1 km/h (3 Bft)
16.05.2018 14:51 9,7 °C 91 % 1012,7 hPa 0,0 mm 12,6 km/h (3 Bft) W 263 ° 0 min 0,000 mm 1,3 UV-I 155 W/m² 8,3 °C 7,9 °C 19,3 km/h (3 Bft)
16.05.2018 14:52 9,7 °C 91 % 1012,7 hPa 0,0 mm 4,8 km/h (1 Bft) SW 234 ° 0 min 0,000 mm 1,3 UV-I 162 W/m² 8,3 °C 9,5 °C 6,4 km/h (2 Bft)
16.05.2018 14:53 9,7 °C 91 % 1012,7 hPa 0,0 mm 5,4 km/h (1 Bft) W-NW 299 ° 0 min 0,000 mm 1,3 UV-I 139 W/m² 8,3 °C 9,3 °C 14,5 km/h (3 Bft)
16.05.2018 14:54 9,6 °C 91 % 1012,7 hPa 0,0 mm 6,8 km/h (2 Bft) W 259 ° 0 min 0,000 mm 1,1 UV-I 121 W/m² 8,2 °C 8,8 °C 19,3 km/h (3 Bft)
16.05.2018 14:55 9,6 °C 91 % 1012,7 hPa 0,0 mm 11,9 km/h (2 Bft) W-NW 286 ° 0 min 0,000 mm 1,0 UV-I 128 W/m² 8,2 °C 7,8 °C 19,3 km/h (3 Bft)
16.05.2018 14:56 9,6 °C 91 % 1012,7 hPa 0,0 mm 6,7 km/h (2 Bft) W 267 ° 0 min 0,000 mm 1,2 UV-I 144 W/m² 8,2 °C 8,8 °C 14,5 km/h (3 Bft)
16.05.2018 14:57 9,6 °C 91 % 1012,8 hPa 0,0 mm 5,2 km/h (1 Bft) W-NW 284 ° 0 min 0,000 mm 1,4 UV-I 178 W/m² 8,2 °C 9,2 °C 9,7 km/h (2 Bft)
16.05.2018 14:58 9,6 °C 91 % 1012,8 hPa 0,0 mm 5,4 km/h (1 Bft) W 274 ° 0 min 0,000 mm 1,4 UV-I 183 W/m² 8,2 °C 9,2 °C 9,7 km/h (2 Bft)
16.05.2018 14:59 9,6 °C 91 % 1012,8 hPa 0,0 mm 4,7 km/h (1 Bft) W-SW 257 ° 0 min 0,000 mm 1,4 UV-I 186 W/m² 8,2 °C 9,4 °C 11,3 km/h (2 Bft)
16.05.2018 15:00 9,6 °C 92 % 1012,8 hPa 0,0 mm 10,0 km/h (2 Bft) SW 234 ° 0 min 0,101 mm 1,5 UV-I 188 W/m² 8,4 °C 8,2 °C 16,1 km/h (3 Bft)
16.05.2018 15:01 9,6 °C 91 % 1012,8 hPa 0,0 mm 5,6 km/h (1 Bft) W-SW 239 ° 0 min 0,000 mm 1,4 UV-I 181 W/m² 8,2 °C 9,1 °C 11,3 km/h (2 Bft)
16.05.2018 15:02 9,6 °C 92 % 1012,8 hPa 0,0 mm 9,3 km/h (2 Bft) W 275 ° 0 min 0,000 mm 1,4 UV-I 176 W/m² 8,4 °C 8,3 °C 12,9 km/h (3 Bft)
16.05.2018 15:03 9,7 °C 92 % 1012,8 hPa 0,0 mm 10,3 km/h (2 Bft) W 266 ° 0 min 0,000 mm 1,3 UV-I 174 W/m² 8,5 °C 8,2 °C 14,5 km/h (3 Bft)
16.05.2018 15:04 9,7 °C 92 % 1012,8 hPa 0,0 mm 11,6 km/h (2 Bft) W-NW 294 ° 0 min 0,000 mm 1,3 UV-I 172 W/m² 8,5 °C 8,0 °C 19,3 km/h (3 Bft)
16.05.2018 15:05 9,6 °C 91 % 1012,8 hPa 0,0 mm 6,2 km/h (2 Bft) W 277 ° 0 min 0,000 mm 1,3 UV-I 174 W/m² 8,2 °C 9,0 °C 9,7 km/h (2 Bft)
16.05.2018 15:06 9,6 °C 92 % 1012,8 hPa 0,0 mm 6,4 km/h (2 Bft) W-NW 282 ° 0 min 0,000 mm 1,4 UV-I 176 W/m² 8,4 °C 8,9 °C 9,7 km/h (2 Bft)
16.05.2018 15:07 9,6 °C 92 % 1012,8 hPa 0,0 mm 5,2 km/h (1 Bft) W-SW 246 ° 0 min 0,000 mm 1,4 UV-I 178 W/m² 8,4 °C 9,2 °C 11,3 km/h (2 Bft)
16.05.2018 15:08 9,7 °C 92 % 1012,8 hPa 0,0 mm 9,1 km/h (2 Bft) W 275 ° 0 min 0,000 mm 1,4 UV-I 179 W/m² 8,5 °C 8,4 °C 12,9 km/h (3 Bft)
16.05.2018 15:09 9,7 °C 92 % 1012,7 hPa 0,0 mm 9,4 km/h (2 Bft) W 271 ° 0 min 0,000 mm 1,4 UV-I 179 W/m² 8,5 °C 8,4 °C 14,5 km/h (3 Bft)
16.05.2018 15:10 9,7 °C 92 % 1012,8 hPa 0,0 mm 12,9 km/h (3 Bft) W 269 ° 0 min 0,000 mm 1,4 UV-I 179 W/m² 8,5 °C 7,8 °C 17,7 km/h (3 Bft)
16.05.2018 15:11 9,7 °C 92 % 1012,8 hPa 0,0 mm 9,8 km/h (2 Bft) W-SW 255 ° 0 min 0,000 mm 1,4 UV-I 178 W/m² 8,5 °C 8,3 °C 16,1 km/h (3 Bft)
16.05.2018 15:12 9,6 °C 92 % 1012,8 hPa 0,0 mm 6,0 km/h (2 Bft) W-SW 243 ° 0 min 0,000 mm 1,4 UV-I 178 W/m² 8,4 °C 9,0 °C 11,3 km/h (2 Bft)
16.05.2018 15:13 9,7 °C 92 % 1012,8 hPa 0,0 mm 5,3 km/h (1 Bft) W-NW 294 ° 0 min 0,000 mm 1,4 UV-I 179 W/m² 8,5 °C 9,3 °C 9,7 km/h (2 Bft)
16.05.2018 15:14 9,7 °C 92 % 1012,8 hPa 0,0 mm 2,5 km/h (1 Bft) NW 306 ° 0 min 0,000 mm 1,5 UV-I 181 W/m² 8,5 °C 9,7 °C 6,4 km/h (2 Bft)
16.05.2018 15:15 9,7 °C 92 % 1012,8 hPa 0,0 mm 12,1 km/h (2 Bft) W-SW 256 ° 0 min 0,000 mm 1,5 UV-I 185 W/m² 8,5 °C 7,9 °C 17,7 km/h (3 Bft)
16.05.2018 15:16 9,7 °C 92 % 1012,8 hPa 0,0 mm 8,7 km/h (2 Bft) W 267 ° 0 min 0,000 mm 1,5 UV-I 186 W/m² 8,5 °C 8,5 °C 14,5 km/h (3 Bft)
16.05.2018 15:17 9,8 °C 92 % 1012,8 hPa 0,0 mm 6,2 km/h (2 Bft) W-NW 299 ° 0 min 0,000 mm 1,5 UV-I 200 W/m² 8,6 °C 9,2 °C 11,3 km/h (2 Bft)
16.05.2018 15:18 9,8 °C 92 % 1012,8 hPa 0,0 mm 9,7 km/h (2 Bft) W-NW 289 ° 0 min 0,000 mm 1,7 UV-I 213 W/m² 8,6 °C 8,4 °C 14,5 km/h (3 Bft)
16.05.2018 15:19 9,8 °C 92 % 1012,8 hPa 0,0 mm 4,6 km/h (1 Bft) W-SW 257 ° 0 min 0,000 mm 1,7 UV-I 223 W/m² 8,6 °C 9,7 °C 6,4 km/h (2 Bft)
16.05.2018 15:20 9,8 °C 92 % 1012,8 hPa 0,0 mm 12,3 km/h (3 Bft) W 275 ° 0 min 0,000 mm 1,8 UV-I 232 W/m² 8,6 °C 8,0 °C 17,7 km/h (3 Bft)
16.05.2018 15:21 9,8 °C 92 % 1012,8 hPa 0,0 mm 9,3 km/h (2 Bft) W-SW 244 ° 0 min 0,000 mm 1,8 UV-I 227 W/m² 8,6 °C 8,5 °C 14,5 km/h (3 Bft)
16.05.2018 15:22 9,8 °C 92 % 1012,8 hPa 0,0 mm 11,1 km/h (2 Bft) W-NW 289 ° 0 min 0,000 mm 1,7 UV-I 220 W/m² 8,6 °C 8,2 °C 14,5 km/h (3 Bft)
16.05.2018 15:23 9,8 °C 92 % 1012,8 hPa 0,0 mm 5,3 km/h (1 Bft) NW 304 ° 0 min 0,000 mm 1,6 UV-I 193 W/m² 8,6 °C 9,4 °C 6,4 km/h (2 Bft)
16.05.2018 15:24 9,9 °C 92 % 1012,8 hPa 0,0 mm 8,5 km/h (2 Bft) W-NW 290 ° 0 min 0,000 mm 1,5 UV-I 188 W/m² 8,7 °C 8,8 °C 12,9 km/h (3 Bft)
16.05.2018 15:25 9,9 °C 92 % 1012,8 hPa 0,0 mm 11,0 km/h (2 Bft) W-NW 288 ° 0 min 0,000 mm 1,5 UV-I 193 W/m² 8,7 °C 8,3 °C 16,1 km/h (3 Bft)
16.05.2018 15:26 9,9 °C 92 % 1012,8 hPa 0,0 mm 12,1 km/h (2 Bft) W 269 ° 0 min 0,000 mm 1,5 UV-I 197 W/m² 8,7 °C 8,2 °C 14,5 km/h (3 Bft)
16.05.2018 15:27 9,8 °C 92 % 1012,8 hPa 0,0 mm 10,6 km/h (2 Bft) W 277 ° 0 min 0,000 mm 1,5 UV-I 197 W/m² 8,6 °C 8,3 °C 14,5 km/h (3 Bft)
16.05.2018 15:28 9,8 °C 92 % 1012,8 hPa 0,0 mm 10,7 km/h (2 Bft) W-SW 248 ° 0 min 0,000 mm 1,6 UV-I 204 W/m² 8,6 °C 8,3 °C 14,5 km/h (3 Bft)
16.05.2018 15:29 9,8 °C 92 % 1012,8 hPa 0,0 mm 4,3 km/h (1 Bft) W-NW 287 ° 0 min 0,000 mm 1,7 UV-I 239 W/m² 8,6 °C 9,8 °C 8,0 km/h (2 Bft)
16.05.2018 15:30 9,8 °C 92 % 1012,8 hPa 0,0 mm 8,1 km/h (2 Bft) W 261 ° 0 min 0,000 mm 1,8 UV-I 243 W/m² 8,6 °C 8,8 °C 11,3 km/h (2 Bft)
16.05.2018 15:31 9,9 °C 92 % 1012,8 hPa 0,0 mm 4,1 km/h (1 Bft) W-NW 293 ° 0 min 0,000 mm 1,9 UV-I 255 W/m² 8,7 °C 9,9 °C 9,7 km/h (2 Bft)
16.05.2018 15:32 10,1 °C 93 % 1012,7 hPa 0,0 mm 12,8 km/h (3 Bft) W-NW 283 ° 0 min 0,000 mm 2,0 UV-I 264 W/m² 9,0 °C 10,1 °C 22,5 km/h (4 Bft)
16.05.2018 15:33 10,1 °C 92 % 1012,7 hPa 0,0 mm 7,6 km/h (2 Bft) SW 223 ° 0 min 0,000 mm 2,0 UV-I 271 W/m² 8,9 °C 10,1 °C 9,7 km/h (2 Bft)
16.05.2018 15:34 10,0 °C 92 % 1012,8 hPa 0,0 mm 8,2 km/h (2 Bft) W-SW 249 ° 0 min 0,000 mm 2,0 UV-I 267 W/m² 8,8 °C 9,0 °C 14,5 km/h (3 Bft)
16.05.2018 15:35 10,0 °C 92 % 1012,8 hPa 0,0 mm 8,1 km/h (2 Bft) W 259 ° 0 min 0,000 mm 2,1 UV-I 278 W/m² 8,8 °C 9,0 °C 12,9 km/h (3 Bft)
16.05.2018 15:36 10,1 °C 92 % 1012,7 hPa 0,0 mm 6,8 km/h (2 Bft) W-NW 290 ° 0 min 0,000 mm 2,2 UV-I 283 W/m² 8,9 °C 10,1 °C 12,9 km/h (3 Bft)
16.05.2018 15:37 10,1 °C 92 % 1012,7 hPa 0,0 mm 4,6 km/h (1 Bft) W-NW 290 ° 0 min 0,000 mm 2,2 UV-I 287 W/m² 8,9 °C 10,1 °C 8,0 km/h (2 Bft)
16.05.2018 15:38 10,2 °C 92 % 1012,7 hPa 0,0 mm 5,4 km/h (1 Bft) W 279 ° 1 min 0,000 mm 2,3 UV-I 295 W/m² 9,0 °C 10,2 °C 11,3 km/h (2 Bft)
16.05.2018 15:39 10,2 °C 92 % 1012,8 hPa 0,0 mm 6,7 km/h (2 Bft) SW 232 ° 1 min 0,000 mm 2,3 UV-I 295 W/m² 9,0 °C 10,2 °C 12,9 km/h (3 Bft)
16.05.2018 15:40 10,2 °C 92 % 1012,8 hPa 0,0 mm 2,6 km/h (1 Bft) W-NW 290 ° 0 min 0,000 mm 2,2 UV-I 272 W/m² 9,0 °C 10,2 °C 9,7 km/h (2 Bft)
16.05.2018 15:41 10,3 °C 92 % 1012,8 hPa 0,0 mm 4,3 km/h (1 Bft) W 271 ° 0 min 0,000 mm 2,2 UV-I 271 W/m² 9,1 °C 10,3 °C 6,4 km/h (2 Bft)
16.05.2018 15:42 10,4 °C 92 % 1012,8 hPa 0,0 mm 8,4 km/h (2 Bft) W-SW 246 ° 0 min 0,000 mm 2,1 UV-I 265 W/m² 9,2 °C 10,4 °C 14,5 km/h (3 Bft)
16.05.2018 15:43 10,3 °C 92 % 1012,8 hPa 0,0 mm 6,4 km/h (2 Bft) W 267 ° 0 min 0,000 mm 2,0 UV-I 253 W/m² 9,1 °C 10,3 °C 12,9 km/h (3 Bft)
16.05.2018 15:44 10,3 °C 91 % 1012,8 hPa 0,0 mm 7,2 km/h (2 Bft) W-NW 282 ° 0 min 0,000 mm 2,0 UV-I 250 W/m² 8,9 °C 10,3 °C 11,3 km/h (2 Bft)
16.05.2018 15:45 10,2 °C 91 % 1012,8 hPa 0,0 mm 12,9 km/h (3 Bft) W 261 ° 0 min 0,000 mm 1,8 UV-I 239 W/m² 8,8 °C 10,2 °C 19,3 km/h (3 Bft)
16.05.2018 15:46 10,3 °C 91 % 1012,8 hPa 0,0 mm 6,2 km/h (2 Bft) W-NW 294 ° 0 min 0,000 mm 1,7 UV-I 202 W/m² 8,9 °C 10,3 °C 9,7 km/h (2 Bft)
16.05.2018 15:47 10,3 °C 91 % 1012,8 hPa 0,0 mm 10,6 km/h (2 Bft) W 267 ° 0 min 0,000 mm 1,4 UV-I 185 W/m² 8,9 °C 10,3 °C 14,5 km/h (3 Bft)
16.05.2018 15:48 10,2 °C 91 % 1012,8 hPa 0,0 mm 4,9 km/h (1 Bft) W-SW 258 ° 0 min 0,000 mm 1,3 UV-I 172 W/m² 8,8 °C 10,2 °C 9,7 km/h (2 Bft)
16.05.2018 15:49 10,2 °C 91 % 1012,8 hPa 0,0 mm 3,0 km/h (1 Bft) W-SW 255 ° 0 min 0,000 mm 1,2 UV-I 163 W/m² 8,8 °C 10,2 °C 6,4 km/h (2 Bft)
16.05.2018 15:50 10,2 °C 91 % 1012,8 hPa 0,0 mm 8,2 km/h (2 Bft) W 259 ° 0 min 0,000 mm 1,2 UV-I 158 W/m² 8,8 °C 10,2 °C 16,1 km/h (3 Bft)
16.05.2018 15:51 10,1 °C 91 % 1012,8 hPa 0,0 mm 15,2 km/h (3 Bft) NW 317 ° 0 min 0,000 mm 1,1 UV-I 148 W/m² 8,7 °C 10,1 °C 22,5 km/h (4 Bft)
16.05.2018 15:52 10,1 °C 91 % 1012,8 hPa 0,0 mm 9,3 km/h (2 Bft) W-NW 285 ° 0 min 0,000 mm 1,1 UV-I 130 W/m² 8,7 °C 10,1 °C 16,1 km/h (3 Bft)
16.05.2018 15:53 10,1 °C 91 % 1012,8 hPa 0,0 mm 7,4 km/h (2 Bft) W 266 ° 0 min 0,000 mm 0,9 UV-I 121 W/m² 8,7 °C 10,1 °C 12,9 km/h (3 Bft)
16.05.2018 15:54 10,1 °C 91 % 1012,8 hPa 0,0 mm 7,8 km/h (2 Bft) W-NW 302 ° 0 min 0,000 mm 0,9 UV-I 116 W/m² 8,7 °C 10,1 °C 14,5 km/h (3 Bft)
16.05.2018 15:55 10,1 °C 91 % 1012,9 hPa 0,0 mm 6,3 km/h (2 Bft) W-NW 286 ° 0 min 0,000 mm 0,9 UV-I 113 W/m² 8,7 °C 10,1 °C 11,3 km/h (2 Bft)
16.05.2018 15:56 10,1 °C 91 % 1012,9 hPa 0,0 mm 5,9 km/h (2 Bft) W 269 ° 0 min 0,000 mm 0,9 UV-I 111 W/m² 8,7 °C 10,1 °C 9,7 km/h (2 Bft)
16.05.2018 15:57 10,0 °C 91 % 1012,9 hPa 0,0 mm 3,5 km/h (1 Bft) W 279 ° 0 min 0,000 mm 0,8 UV-I 109 W/m² 8,6 °C 10,0 °C 6,4 km/h (2 Bft)
16.05.2018 15:58 10,1 °C 91 % 1012,9 hPa 0,0 mm 7,8 km/h (2 Bft) NW 306 ° 0 min 0,000 mm 0,8 UV-I 104 W/m² 8,7 °C 10,1 °C 12,9 km/h (3 Bft)
16.05.2018 15:59 10,0 °C 91 % 1012,9 hPa 0,0 mm 6,2 km/h (2 Bft) W-SW 250 ° 0 min 0,000 mm 0,8 UV-I 102 W/m² 8,6 °C 9,4 °C 11,3 km/h (2 Bft)
16.05.2018 16:00 10,0 °C 91 % 1012,9 hPa 0,0 mm 5,7 km/h (1 Bft) W-SW 254 ° 0 min 0,102 mm 0,8 UV-I 102 W/m² 8,6 °C 9,6 °C 9,7 km/h (2 Bft)
16.05.2018 16:01 10,0 °C 91 % 1012,9 hPa 0,0 mm 8,7 km/h (2 Bft) SW 230 ° 0 min 0,000 mm 0,8 UV-I 105 W/m² 8,6 °C 8,9 °C 12,9 km/h (3 Bft)
16.05.2018 16:02 10,0 °C 91 % 1012,9 hPa 0,0 mm 7,0 km/h (2 Bft) W 264 ° 0 min 0,000 mm 0,9 UV-I 109 W/m² 8,6 °C 9,2 °C 11,3 km/h (2 Bft)
16.05.2018 16:03 9,9 °C 91 % 1012,9 hPa 0,0 mm 7,2 km/h (2 Bft) W-SW 253 ° 0 min 0,000 mm 0,9 UV-I 113 W/m² 8,5 °C 9,1 °C 14,5 km/h (3 Bft)
16.05.2018 16:04 9,9 °C 91 % 1012,9 hPa 0,0 mm 11,0 km/h (2 Bft) W 279 ° 0 min 0,000 mm 0,9 UV-I 118 W/m² 8,5 °C 8,3 °C 17,7 km/h (3 Bft)
16.05.2018 16:05 9,9 °C 91 % 1012,9 hPa 0,0 mm 3,6 km/h (1 Bft) W-NW 299 ° 0 min 0,000 mm 0,9 UV-I 121 W/m² 8,5 °C 9,9 °C 6,4 km/h (2 Bft)
16.05.2018 16:06 9,9 °C 91 % 1012,9 hPa 0,0 mm 4,4 km/h (1 Bft) W-SW 244 ° 0 min 0,000 mm 1,0 UV-I 121 W/m² 8,5 °C 9,9 °C 11,3 km/h (2 Bft)
16.05.2018 16:07 9,9 °C 91 % 1012,9 hPa 0,0 mm 2,9 km/h (1 Bft) W 273 ° 0 min 0,000 mm 1,0 UV-I 128 W/m² 8,5 °C 9,9 °C 4,8 km/h (1 Bft)
16.05.2018 16:08 10,0 °C 92 % 1012,9 hPa 0,0 mm 5,3 km/h (1 Bft) W 261 ° 0 min 0,000 mm 1,0 UV-I 125 W/m² 8,8 °C 9,7 °C 9,7 km/h (2 Bft)
16.05.2018 16:09 10,0 °C 92 % 1012,9 hPa 0,0 mm 6,0 km/h (2 Bft) W-SW 257 ° 0 min 0,000 mm 0,9 UV-I 120 W/m² 8,8 °C 9,5 °C 9,7 km/h (2 Bft)
16.05.2018 16:10 10,1 °C 92 % 1012,9 hPa 0,0 mm 5,2 km/h (1 Bft) W 262 ° 0 min 0,000 mm 0,9 UV-I 121 W/m² 8,9 °C 10,1 °C 8,0 km/h (2 Bft)
16.05.2018 16:11 10,0 °C 92 % 1012,9 hPa 0,0 mm 5,9 km/h (2 Bft) W-SW 238 ° 0 min 0,000 mm 1,0 UV-I 121 W/m² 8,8 °C 9,5 °C 9,7 km/h (2 Bft)
16.05.2018 16:12 10,0 °C 91 % 1012,9 hPa 0,0 mm 8,0 km/h (2 Bft) W 264 ° 0 min 0,000 mm 1,0 UV-I 123 W/m² 8,6 °C 9,0 °C 12,9 km/h (3 Bft)
16.05.2018 16:13 10,0 °C 92 % 1012,9 hPa 0,0 mm 4,4 km/h (1 Bft) W 272 ° 0 min 0,000 mm 1,0 UV-I 128 W/m² 8,8 °C 10,0 °C 6,4 km/h (2 Bft)
16.05.2018 16:14 10,0 °C 92 % 1012,9 hPa 0,0 mm 5,5 km/h (1 Bft) W-NW 286 ° 0 min 0,000 mm 1,1 UV-I 134 W/m² 8,8 °C 9,6 °C 9,7 km/h (2 Bft)
16.05.2018 16:15 10,1 °C 92 % 1012,9 hPa 0,0 mm 4,1 km/h (1 Bft) W-NW 284 ° 0 min 0,000 mm 1,0 UV-I 132 W/m² 8,9 °C 10,1 °C 6,4 km/h (2 Bft)
16.05.2018 16:16 10,1 °C 92 % 1013,0 hPa 0,0 mm 5,0 km/h (1 Bft) W-SW 254 ° 0 min 0,000 mm 1,0 UV-I 128 W/m² 8,9 °C 10,1 °C 6,4 km/h (2 Bft)
16.05.2018 16:17 10,1 °C 92 % 1012,9 hPa 0,0 mm 4,1 km/h (1 Bft) W 260 ° 0 min 0,000 mm 1,0 UV-I 125 W/m² 8,9 °C 10,1 °C 6,4 km/h (2 Bft)
16.05.2018 16:18 10,1 °C 92 % 1012,9 hPa 0,0 mm 3,0 km/h (1 Bft) W-NW 286 ° 0 min 0,000 mm 0,9 UV-I 116 W/m² 8,9 °C 10,1 °C 4,8 km/h (1 Bft)
16.05.2018 16:19 10,2 °C 92 % 1013,0 hPa 0,0 mm 3,4 km/h (1 Bft) W 262 ° 0 min 0,000 mm 0,8 UV-I 107 W/m² 9,0 °C 10,2 °C 12,9 km/h (3 Bft)
16.05.2018 16:20 10,1 °C 92 % 1013,0 hPa 0,0 mm 10,3 km/h (2 Bft) W-SW 244 ° 0 min 0,000 mm 0,8 UV-I 102 W/m² 8,9 °C 10,1 °C 14,5 km/h (3 Bft)
16.05.2018 16:21 10,1 °C 91 % 1013,0 hPa 0,0 mm 3,8 km/h (1 Bft) W-NW 285 ° 0 min 0,000 mm 0,8 UV-I 97 W/m² 8,7 °C 10,1 °C 9,7 km/h (2 Bft)
16.05.2018 16:22 10,1 °C 91 % 1013,0 hPa 0,0 mm 3,5 km/h (1 Bft) W 267 ° 0 min 0,000 mm 0,7 UV-I 91 W/m² 8,7 °C 10,1 °C 4,8 km/h (1 Bft)
16.05.2018 16:23 10,0 °C 92 % 1013,0 hPa 0,0 mm 9,0 km/h (2 Bft) W 271 ° 0 min 0,000 mm 0,7 UV-I 90 W/m² 8,8 °C 8,8 °C 14,5 km/h (3 Bft)
16.05.2018 16:24 10,0 °C 92 % 1013,0 hPa 0,0 mm 5,3 km/h (1 Bft) W 268 ° 0 min 0,000 mm 0,7 UV-I 90 W/m² 8,8 °C 9,7 °C 6,4 km/h (2 Bft)
16.05.2018 16:25 10,0 °C 91 % 1012,9 hPa 0,0 mm 5,8 km/h (2 Bft) W 263 ° 0 min 0,000 mm 0,7 UV-I 91 W/m² 8,6 °C 9,5 °C 9,7 km/h (2 Bft)
16.05.2018 16:26 9,9 °C 91 % 1012,9 hPa 0,0 mm 2,1 km/h (1 Bft) W-SW 239 ° 0 min 0,000 mm 0,7 UV-I 91 W/m² 8,5 °C 9,9 °C 4,8 km/h (1 Bft)
16.05.2018 16:27 9,9 °C 91 % 1013,0 hPa 0,0 mm 0,8 km/h (0 Bft) W-SW 239 ° 0 min 0,000 mm 0,7 UV-I 97 W/m² 8,5 °C 9,9 °C 3,2 km/h (1 Bft)
16.05.2018 16:28 9,9 °C 91 % 1013,0 hPa 0,0 mm 2,0 km/h (1 Bft) W 272 ° 0 min 0,000 mm 0,7 UV-I 95 W/m² 8,5 °C 9,9 °C 3,2 km/h (1 Bft)
16.05.2018 16:29 9,9 °C 91 % 1013,0 hPa 0,0 mm 9,6 km/h (2 Bft) W 263 ° 0 min 0,000 mm 0,7 UV-I 88 W/m² 8,5 °C 8,6 °C 14,5 km/h (3 Bft)
16.05.2018 16:30 9,9 °C 91 % 1013,0 hPa 0,0 mm 8,4 km/h (2 Bft) W 265 ° 0 min 0,000 mm 0,6 UV-I 83 W/m² 8,5 °C 8,8 °C 12,9 km/h (3 Bft)
16.05.2018 16:31 9,9 °C 91 % 1013,0 hPa 0,0 mm 11,4 km/h (2 Bft) W-NW 287 ° 0 min 0,000 mm 0,6 UV-I 79 W/m² 8,5 °C 8,3 °C 14,5 km/h (3 Bft)
16.05.2018 16:32 9,9 °C 91 % 1013,0 hPa 0,0 mm 10,0 km/h (2 Bft) W 270 ° 0 min 0,000 mm 0,6 UV-I 81 W/m² 8,5 °C 8,5 °C 12,9 km/h (3 Bft)
16.05.2018 16:33 9,9 °C 91 % 1012,9 hPa 0,0 mm 5,5 km/h (1 Bft) W-NW 288 ° 0 min 0,000 mm 0,7 UV-I 93 W/m² 8,5 °C 9,5 °C 9,7 km/h (2 Bft)
16.05.2018 16:34 9,9 °C 91 % 1012,9 hPa 0,0 mm 4,7 km/h (1 Bft) W 273 ° 0 min 0,000 mm 0,8 UV-I 100 W/m² 8,5 °C 9,7 °C 11,3 km/h (2 Bft)
16.05.2018 16:35 9,9 °C 91 % 1012,9 hPa 0,0 mm 4,6 km/h (1 Bft) W-SW 254 ° 0 min 0,000 mm 0,8 UV-I 105 W/m² 8,5 °C 9,8 °C 6,4 km/h (2 Bft)
16.05.2018 16:36 9,9 °C 91 % 1013,0 hPa 0,0 mm 4,6 km/h (1 Bft) W 266 ° 0 min 0,000 mm 0,8 UV-I 105 W/m² 8,5 °C 9,8 °C 6,4 km/h (2 Bft)
16.05.2018 16:37 9,9 °C 91 % 1012,9 hPa 0,0 mm 5,3 km/h (1 Bft) W 269 ° 0 min 0,000 mm 0,9 UV-I 111 W/m² 8,5 °C 9,6 °C 6,4 km/h (2 Bft)
16.05.2018 16:38 9,9 °C 92 % 1012,9 hPa 0,0 mm 6,4 km/h (2 Bft) W-NW 296 ° 0 min 0,000 mm 0,9 UV-I 120 W/m² 8,7 °C 9,3 °C 11,3 km/h (2 Bft)
16.05.2018 16:39 9,9 °C 92 % 1013,0 hPa 0,0 mm 9,1 km/h (2 Bft) W-SW 255 ° 0 min 0,000 mm 1,0 UV-I 132 W/m² 8,7 °C 8,7 °C 14,5 km/h (3 Bft)
16.05.2018 16:40 9,9 °C 92 % 1013,0 hPa 0,0 mm 7,3 km/h (2 Bft) W 266 ° 0 min 0,000 mm 1,1 UV-I 139 W/m² 8,7 °C 9,0 °C 11,3 km/h (2 Bft)
16.05.2018 16:41 10,0 °C 92 % 1013,0 hPa 0,0 mm 6,0 km/h (2 Bft) W 263 ° 0 min 0,000 mm 1,1 UV-I 149 W/m² 8,8 °C 9,5 °C 11,3 km/h (2 Bft)
16.05.2018 16:42 10,0 °C 91 % 1013,0 hPa 0,0 mm 7,9 km/h (2 Bft) W 265 ° 0 min 0,000 mm 1,2 UV-I 155 W/m² 8,6 °C 9,0 °C 12,9 km/h (3 Bft)
16.05.2018 16:43 10,0 °C 91 % 1013,0 hPa 0,0 mm 7,8 km/h (2 Bft) W-NW 289 ° 0 min 0,000 mm 1,2 UV-I 155 W/m² 8,6 °C 9,0 °C 12,9 km/h (3 Bft)
16.05.2018 16:44 10,0 °C 92 % 1013,0 hPa 0,0 mm 7,5 km/h (2 Bft) W 260 ° 0 min 0,000 mm 1,2 UV-I 156 W/m² 8,8 °C 9,1 °C 12,9 km/h (3 Bft)
16.05.2018 16:45 10,1 °C 91 % 1013,0 hPa 0,0 mm 4,6 km/h (1 Bft) W 271 ° 0 min 0,000 mm 1,1 UV-I 160 W/m² 8,7 °C 10,1 °C 6,4 km/h (2 Bft)
16.05.2018 16:46 10,1 °C 92 % 1013,0 hPa 0,0 mm 6,3 km/h (2 Bft) W 261 ° 0 min 0,000 mm 1,3 UV-I 179 W/m² 8,9 °C 10,1 °C 12,9 km/h (3 Bft)
16.05.2018 16:47 10,1 °C 92 % 1013,0 hPa 0,0 mm 5,8 km/h (2 Bft) W 259 ° 0 min 0,000 mm 1,6 UV-I 207 W/m² 8,9 °C 10,1 °C 6,4 km/h (2 Bft)
16.05.2018 16:48 10,2 °C 91 % 1013,0 hPa 0,0 mm 5,2 km/h (1 Bft) W 271 ° 0 min 0,000 mm 1,7 UV-I 229 W/m² 8,8 °C 10,2 °C 9,7 km/h (2 Bft)
16.05.2018 16:49 10,2 °C 92 % 1012,9 hPa 0,0 mm 6,0 km/h (2 Bft) W 269 ° 0 min 0,000 mm 1,7 UV-I 230 W/m² 9,0 °C 10,2 °C 11,3 km/h (2 Bft)
16.05.2018 16:50 10,2 °C 91 % 1013,0 hPa 0,0 mm 6,3 km/h (2 Bft) W-SW 257 ° 0 min 0,000 mm 1,7 UV-I 234 W/m² 8,8 °C 10,2 °C 12,9 km/h (3 Bft)
16.05.2018 16:51 10,3 °C 92 % 1013,0 hPa 0,0 mm 5,8 km/h (2 Bft) W 273 ° 0 min 0,000 mm 1,6 UV-I 229 W/m² 9,1 °C 10,3 °C 9,7 km/h (2 Bft)
16.05.2018 16:52 10,3 °C 91 % 1013,0 hPa 0,0 mm 7,2 km/h (2 Bft) W 263 ° 0 min 0,000 mm 1,7 UV-I 229 W/m² 8,9 °C 10,3 °C 12,9 km/h (3 Bft)
16.05.2018 16:53 10,3 °C 92 % 1013,0 hPa 0,0 mm 8,4 km/h (2 Bft) W-SW 257 ° 0 min 0,000 mm 1,7 UV-I 230 W/m² 9,1 °C 10,3 °C 12,9 km/h (3 Bft)
16.05.2018 16:54 10,4 °C 91 % 1013,0 hPa 0,0 mm 8,1 km/h (2 Bft) W 267 ° 0 min 0,000 mm 1,7 UV-I 237 W/m² 9,0 °C 10,4 °C 11,3 km/h (2 Bft)
16.05.2018 16:55 10,4 °C 91 % 1013,0 hPa 0,0 mm 9,0 km/h (2 Bft) W-SW 258 ° 0 min 0,000 mm 1,7 UV-I 239 W/m² 9,0 °C 10,4 °C 12,9 km/h (3 Bft)
16.05.2018 16:56 10,3 °C 91 % 1013,0 hPa 0,0 mm 11,1 km/h (2 Bft) W 263 ° 0 min 0,000 mm 1,7 UV-I 237 W/m² 8,9 °C 10,3 °C 12,9 km/h (3 Bft)
16.05.2018 16:57 10,4 °C 91 % 1013,0 hPa 0,0 mm 12,3 km/h (3 Bft) W 271 ° 0 min 0,000 mm 1,7 UV-I 230 W/m² 9,0 °C 10,4 °C 16,1 km/h (3 Bft)
16.05.2018 16:58 10,4 °C 91 % 1013,0 hPa 0,0 mm 10,0 km/h (2 Bft) W 259 ° 0 min 0,000 mm 1,6 UV-I 220 W/m² 9,0 °C 10,4 °C 12,9 km/h (3 Bft)
16.05.2018 16:59 10,4 °C 91 % 1013,0 hPa 0,0 mm 5,3 km/h (1 Bft) W 264 ° 0 min 0,000 mm 1,5 UV-I 207 W/m² 9,0 °C 10,4 °C 12,9 km/h (3 Bft)
16.05.2018 17:00 10,4 °C 91 % 1013,0 hPa 0,0 mm 9,8 km/h (2 Bft) W-NW 292 ° 0 min 0,000 mm 1,5 UV-I 197 W/m² 9,0 °C 10,4 °C 12,9 km/h (3 Bft)
16.05.2018 17:01 10,4 °C 91 % 1013,0 hPa 0,0 mm 4,8 km/h (1 Bft) W-NW 286 ° 0 min 0,076 mm 1,4 UV-I 188 W/m² 9,0 °C 10,4 °C 6,4 km/h (2 Bft)
16.05.2018 17:02 10,3 °C 90 % 1013,0 hPa 0,0 mm 3,7 km/h (1 Bft) W 273 ° 0 min 0,000 mm 1,3 UV-I 163 W/m² 8,7 °C 10,3 °C 6,4 km/h (2 Bft)
16.05.2018 17:03 10,4 °C 91 % 1013,0 hPa 0,0 mm 3,7 km/h (1 Bft) W 267 ° 0 min 0,000 mm 1,2 UV-I 158 W/m² 9,0 °C 10,4 °C 6,4 km/h (2 Bft)
16.05.2018 17:04 10,4 °C 91 % 1013,0 hPa 0,0 mm 5,2 km/h (1 Bft) W-SW 249 ° 0 min 0,000 mm 1,1 UV-I 156 W/m² 9,0 °C 10,4 °C 6,4 km/h (2 Bft)
16.05.2018 17:05 10,4 °C 91 % 1013,0 hPa 0,0 mm 4,2 km/h (1 Bft) W-NW 286 ° 0 min 0,000 mm 1,1 UV-I 160 W/m² 9,0 °C 10,4 °C 4,8 km/h (1 Bft)
16.05.2018 17:06 10,4 °C 91 % 1013,0 hPa 0,0 mm 4,3 km/h (1 Bft) W-NW 296 ° 0 min 0,000 mm 1,2 UV-I 172 W/m² 9,0 °C 10,4 °C 8,0 km/h (2 Bft)
16.05.2018 17:07 10,4 °C 91 % 1013,0 hPa 0,0 mm 6,8 km/h (2 Bft) W 271 ° 0 min 0,000 mm 1,3 UV-I 186 W/m² 9,0 °C 10,4 °C 11,3 km/h (2 Bft)
16.05.2018 17:08 10,4 °C 91 % 1013,0 hPa 0,0 mm 7,9 km/h (2 Bft) W-SW 257 ° 0 min 0,000 mm 1,4 UV-I 213 W/m² 9,0 °C 10,4 °C 14,5 km/h (3 Bft)
16.05.2018 17:09 10,4 °C 91 % 1013,0 hPa 0,0 mm 7,5 km/h (2 Bft) W-SW 239 ° 0 min 0,000 mm 1,4 UV-I 211 W/m² 9,0 °C 10,4 °C 12,9 km/h (3 Bft)
16.05.2018 17:10 10,4 °C 90 % 1013,0 hPa 0,0 mm 4,1 km/h (1 Bft) W 273 ° 0 min 0,000 mm 1,4 UV-I 216 W/m² 8,8 °C 10,4 °C 6,4 km/h (2 Bft)
16.05.2018 17:11 10,4 °C 90 % 1013,0 hPa 0,0 mm 5,0 km/h (1 Bft) W 261 ° 0 min 0,000 mm 1,5 UV-I 223 W/m² 8,8 °C 10,4 °C 9,7 km/h (2 Bft)
16.05.2018 17:12 10,5 °C 90 % 1013,0 hPa 0,0 mm 4,9 km/h (1 Bft) NW 316 ° 0 min 0,000 mm 1,5 UV-I 225 W/m² 8,9 °C 10,5 °C 11,3 km/h (2 Bft)
16.05.2018 17:13 10,6 °C 90 % 1013,0 hPa 0,0 mm 6,9 km/h (2 Bft) W 259 ° 0 min 0,000 mm 1,6 UV-I 225 W/m² 9,0 °C 10,6 °C 16,1 km/h (3 Bft)
16.05.2018 17:14 10,6 °C 90 % 1013,0 hPa 0,0 mm 6,2 km/h (2 Bft) W 271 ° 0 min 0,000 mm 1,6 UV-I 223 W/m² 9,0 °C 10,6 °C 8,0 km/h (2 Bft)
16.05.2018 17:15 10,6 °C 89 % 1013,0 hPa 0,0 mm 8,9 km/h (2 Bft) W 261 ° 0 min 0,000 mm 1,6 UV-I 221 W/m² 8,9 °C 10,6 °C 11,3 km/h (2 Bft)
16.05.2018 17:16 10,6 °C 90 % 1013,0 hPa 0,0 mm 10,2 km/h (2 Bft) W-SW 258 ° 0 min 0,000 mm 1,5 UV-I 218 W/m² 9,0 °C 10,6 °C 16,1 km/h (3 Bft)
16.05.2018 17:17 10,6 °C 89 % 1013,0 hPa 0,0 mm 8,3 km/h (2 Bft) W 260 ° 0 min 0,000 mm 1,5 UV-I 216 W/m² 8,9 °C 10,6 °C 11,3 km/h (2 Bft)
16.05.2018 17:18 10,5 °C 90 % 1013,0 hPa 0,0 mm 4,3 km/h (1 Bft) W 265 ° 0 min 0,000 mm 1,5 UV-I 209 W/m² 8,9 °C 10,5 °C 6,4 km/h (2 Bft)
16.05.2018 17:19 10,6 °C 90 % 1013,0 hPa 0,0 mm 3,2 km/h (1 Bft) W-NW 296 ° 0 min 0,000 mm 1,4 UV-I 202 W/m² 9,0 °C 10,6 °C 9,7 km/h (2 Bft)
16.05.2018 17:20 10,6 °C 90 % 1013,0 hPa 0,0 mm 9,5 km/h (2 Bft) W 262 ° 0 min 0,000 mm 1,4 UV-I 190 W/m² 9,0 °C 10,6 °C 16,1 km/h (3 Bft)
16.05.2018 17:21 10,5 °C 89 % 1013,0 hPa 0,0 mm 3,4 km/h (1 Bft) W 262 ° 0 min 0,000 mm 1,3 UV-I 186 W/m² 8,8 °C 10,5 °C 9,7 km/h (2 Bft)
16.05.2018 17:22 10,5 °C 89 % 1013,0 hPa 0,0 mm 5,7 km/h (1 Bft) W 278 ° 0 min 0,000 mm 1,2 UV-I 183 W/m² 8,8 °C 10,5 °C 8,0 km/h (2 Bft)
16.05.2018 17:23 10,4 °C 89 % 1013,0 hPa 0,0 mm 5,0 km/h (1 Bft) W-SW 257 ° 0 min 0,000 mm 1,2 UV-I 179 W/m² 8,7 °C 10,4 °C 9,7 km/h (2 Bft)
16.05.2018 17:24 10,4 °C 89 % 1013,0 hPa 0,0 mm 4,2 km/h (1 Bft) W 260 ° 0 min 0,000 mm 1,2 UV-I 176 W/m² 8,7 °C 10,4 °C 11,3 km/h (2 Bft)
16.05.2018 17:25 10,4 °C 89 % 1013,0 hPa 0,0 mm 7,6 km/h (2 Bft) W-NW 286 ° 0 min 0,000 mm 1,1 UV-I 171 W/m² 8,7 °C 10,4 °C 12,9 km/h (3 Bft)
16.05.2018 17:26 10,4 °C 89 % 1013,0 hPa 0,0 mm 8,4 km/h (2 Bft) W-NW 286 ° 0 min 0,000 mm 1,1 UV-I 156 W/m² 8,7 °C 10,4 °C 11,3 km/h (2 Bft)
16.05.2018 17:27 10,4 °C 89 % 1013,0 hPa 0,0 mm 6,4 km/h (2 Bft) W-NW 289 ° 0 min 0,000 mm 1,0 UV-I 151 W/m² 8,7 °C 10,4 °C 11,3 km/h (2 Bft)
16.05.2018 17:28 10,4 °C 89 % 1013,0 hPa 0,0 mm 5,9 km/h (2 Bft) W-NW 301 ° 0 min 0,000 mm 0,9 UV-I 144 W/m² 8,7 °C 10,4 °C 11,3 km/h (2 Bft)
16.05.2018 17:29 10,4 °C 90 % 1013,1 hPa 0,0 mm 7,4 km/h (2 Bft) W 269 ° 0 min 0,000 mm 0,9 UV-I 141 W/m² 8,8 °C 10,4 °C 11,3 km/h (2 Bft)
16.05.2018 17:30 10,4 °C 89 % 1013,1 hPa 0,0 mm 6,6 km/h (2 Bft) W 262 ° 0 min 0,000 mm 0,9 UV-I 139 W/m² 8,7 °C 10,4 °C 11,3 km/h (2 Bft)
16.05.2018 17:31 10,3 °C 89 % 1013,1 hPa 0,0 mm 3,8 km/h (1 Bft) W-NW 300 ° 0 min 0,000 mm 0,9 UV-I 139 W/m² 8,6 °C 10,3 °C 6,4 km/h (2 Bft)
16.05.2018 17:32 10,3 °C 90 % 1013,1 hPa 0,0 mm 7,9 km/h (2 Bft) W-SW 254 ° 0 min 0,000 mm 0,9 UV-I 144 W/m² 8,7 °C 10,3 °C 12,9 km/h (3 Bft)
16.05.2018 17:33 10,3 °C 89 % 1013,1 hPa 0,0 mm 9,7 km/h (2 Bft) W 265 ° 0 min 0,000 mm 0,9 UV-I 149 W/m² 8,6 °C 10,3 °C 12,9 km/h (3 Bft)
16.05.2018 17:34 10,2 °C 89 % 1013,1 hPa 0,0 mm 8,2 km/h (2 Bft) W 274 ° 0 min 0,000 mm 1,0 UV-I 151 W/m² 8,5 °C 10,2 °C 11,3 km/h (2 Bft)
16.05.2018 17:35 10,2 °C 89 % 1013,2 hPa 0,0 mm 8,0 km/h (2 Bft) W-SW 256 ° 0 min 0,000 mm 1,0 UV-I 149 W/m² 8,5 °C 10,2 °C 12,9 km/h (3 Bft)
16.05.2018 17:36 10,2 °C 89 % 1013,1 hPa 0,2 mm 10,1 km/h (2 Bft) W 259 ° 0 min 0,000 mm 0,9 UV-I 148 W/m² 8,5 °C 10,2 °C 14,5 km/h (3 Bft)
16.05.2018 17:37 10,2 °C 89 % 1013,1 hPa 0,0 mm 6,7 km/h (2 Bft) W 263 ° 0 min 0,000 mm 0,9 UV-I 144 W/m² 8,5 °C 10,2 °C 12,9 km/h (3 Bft)
16.05.2018 17:38 10,3 °C 90 % 1013,1 hPa 0,0 mm 4,8 km/h (1 Bft) W-SW 249 ° 0 min 0,000 mm 0,9 UV-I 137 W/m² 8,7 °C 10,3 °C 11,3 km/h (2 Bft)
16.05.2018 17:39 10,3 °C 90 % 1013,1 hPa 0,0 mm 3,8 km/h (1 Bft) W-SW 242 ° 0 min 0,000 mm 0,8 UV-I 134 W/m² 8,7 °C 10,3 °C 4,8 km/h (1 Bft)
16.05.2018 17:40 10,3 °C 90 % 1013,1 hPa 0,0 mm 2,6 km/h (1 Bft) W-SW 242 ° 0 min 0,000 mm 0,8 UV-I 132 W/m² 8,7 °C 10,3 °C 4,8 km/h (1 Bft)
16.05.2018 17:41 10,3 °C 90 % 1013,1 hPa 0,0 mm 1,4 km/h (1 Bft) W-NW 283 ° 0 min 0,000 mm 0,8 UV-I 132 W/m² 8,7 °C 10,3 °C 4,8 km/h (1 Bft)
16.05.2018 17:42 10,3 °C 90 % 1013,1 hPa 0,0 mm 3,4 km/h (1 Bft) W 271 ° 0 min 0,000 mm 0,8 UV-I 134 W/m² 8,7 °C 10,3 °C 6,4 km/h (2 Bft)
16.05.2018 17:43 10,2 °C 90 % 1013,1 hPa 0,0 mm 3,9 km/h (1 Bft) W 279 ° 0 min 0,000 mm 0,8 UV-I 137 W/m² 8,6 °C 10,2 °C 8,0 km/h (2 Bft)
16.05.2018 17:44 10,2 °C 89 % 1013,1 hPa 0,0 mm 8,6 km/h (2 Bft) W 267 ° 0 min 0,000 mm 0,9 UV-I 149 W/m² 8,5 °C 10,2 °C 11,3 km/h (2 Bft)
16.05.2018 17:45 10,2 °C 90 % 1013,1 hPa 0,0 mm 8,3 km/h (2 Bft) W-NW 296 ° 0 min 0,000 mm 0,9 UV-I 156 W/m² 8,6 °C 10,2 °C 14,5 km/h (3 Bft)
16.05.2018 17:46 10,1 °C 90 % 1013,1 hPa 0,0 mm 5,6 km/h (1 Bft) W-NW 285 ° 0 min 0,000 mm 1,0 UV-I 165 W/m² 8,5 °C 10,1 °C 9,7 km/h (2 Bft)
16.05.2018 17:47 10,2 °C 90 % 1013,1 hPa 0,0 mm 4,6 km/h (1 Bft) W 263 ° 0 min 0,000 mm 1,0 UV-I 174 W/m² 8,6 °C 10,2 °C 6,4 km/h (2 Bft)
16.05.2018 17:48 10,2 °C 90 % 1013,1 hPa 0,0 mm 8,6 km/h (2 Bft) W-NW 297 ° 0 min 0,000 mm 1,0 UV-I 178 W/m² 8,6 °C 10,2 °C 14,5 km/h (3 Bft)
16.05.2018 17:49 10,2 °C 90 % 1013,1 hPa 0,0 mm 5,0 km/h (1 Bft) W-NW 290 ° 0 min 0,000 mm 1,0 UV-I 179 W/m² 8,6 °C 10,2 °C 6,4 km/h (2 Bft)
16.05.2018 17:50 10,2 °C 90 % 1013,1 hPa 0,0 mm 4,4 km/h (1 Bft) W-NW 292 ° 0 min 0,000 mm 1,0 UV-I 172 W/m² 8,6 °C 10,2 °C 8,0 km/h (2 Bft)
16.05.2018 17:51 10,2 °C 90 % 1013,1 hPa 0,0 mm 5,4 km/h (1 Bft) W 271 ° 0 min 0,000 mm 0,9 UV-I 156 W/m² 8,6 °C 10,2 °C 11,3 km/h (2 Bft)
16.05.2018 17:52 10,3 °C 91 % 1013,1 hPa 0,0 mm 5,6 km/h (1 Bft) W 265 ° 0 min 0,000 mm 0,9 UV-I 155 W/m² 8,9 °C 10,3 °C 9,7 km/h (2 Bft)
16.05.2018 17:53 10,3 °C 91 % 1013,1 hPa 0,0 mm 5,1 km/h (1 Bft) W-NW 286 ° 0 min 0,000 mm 0,9 UV-I 156 W/m² 8,9 °C 10,3 °C 11,3 km/h (2 Bft)
16.05.2018 17:54 10,3 °C 91 % 1013,1 hPa 0,0 mm 4,4 km/h (1 Bft) W 273 ° 0 min 0,000 mm 0,8 UV-I 148 W/m² 8,9 °C 10,3 °C 6,4 km/h (2 Bft)
16.05.2018 17:55 10,3 °C 91 % 1013,1 hPa 0,0 mm 4,8 km/h (1 Bft) W 267 ° 0 min 0,000 mm 0,7 UV-I 120 W/m² 8,9 °C 10,3 °C 6,4 km/h (2 Bft)
16.05.2018 17:56 10,3 °C 91 % 1013,1 hPa 0,0 mm 5,4 km/h (1 Bft) W-NW 296 ° 0 min 0,000 mm 0,6 UV-I 116 W/m² 8,9 °C 10,3 °C 11,3 km/h (2 Bft)
16.05.2018 17:57 10,3 °C 91 % 1013,1 hPa 0,0 mm 5,5 km/h (1 Bft) W 264 ° 0 min 0,000 mm 0,6 UV-I 107 W/m² 8,9 °C 10,3 °C 6,4 km/h (2 Bft)
16.05.2018 17:58 10,2 °C 91 % 1013,1 hPa 0,0 mm 4,7 km/h (1 Bft) W 274 ° 0 min 0,000 mm 0,5 UV-I 93 W/m² 8,8 °C 10,2 °C 11,3 km/h (2 Bft)
16.05.2018 17:59 10,2 °C 91 % 1013,1 hPa 0,0 mm 4,3 km/h (1 Bft) W 263 ° 0 min 0,000 mm 0,5 UV-I 83 W/m² 8,8 °C 10,2 °C 6,4 km/h (2 Bft)
16.05.2018 18:00 10,2 °C 91 % 1013,1 hPa 0,0 mm 5,6 km/h (1 Bft) W-NW 292 ° 0 min 0,000 mm 0,0 UV-I 69 W/m² 8,8 °C 10,2 °C 9,7 km/h (2 Bft)
16.05.2018 18:01 10,1 °C 91 % 1013,2 hPa 0,0 mm 7,2 km/h (2 Bft) W-NW 292 ° 0 min 0,076 mm 0,0 UV-I 58 W/m² 8,7 °C 10,1 °C 9,7 km/h (2 Bft)
16.05.2018 18:02 10,1 °C 91 % 1013,2 hPa 0,0 mm 4,7 km/h (1 Bft) W 266 ° 0 min 0,000 mm 0,0 UV-I 60 W/m² 8,7 °C 10,1 °C 6,4 km/h (2 Bft)
16.05.2018 18:03 10,1 °C 91 % 1013,2 hPa 0,0 mm 5,4 km/h (1 Bft) W 260 ° 0 min 0,000 mm 0,0 UV-I 60 W/m² 8,7 °C 10,1 °C 9,7 km/h (2 Bft)
16.05.2018 18:04 10,0 °C 91 % 1013,2 hPa 0,0 mm 6,0 km/h (2 Bft) W-NW 290 ° 0 min 0,000 mm 0,0 UV-I 65 W/m² 8,6 °C 9,5 °C 9,7 km/h (2 Bft)
16.05.2018 18:05 9,9 °C 91 % 1013,2 hPa 0,0 mm 4,1 km/h (1 Bft) W-NW 290 ° 0 min 0,000 mm 0,5 UV-I 65 W/m² 8,5 °C 9,9 °C 8,0 km/h (2 Bft)
16.05.2018 18:06 9,9 °C 91 % 1013,2 hPa 0,0 mm 7,0 km/h (2 Bft) W-NW 288 ° 0 min 0,000 mm 0,5 UV-I 67 W/m² 8,5 °C 9,1 °C 12,9 km/h (3 Bft)
16.05.2018 18:07 9,9 °C 91 % 1013,2 hPa 0,0 mm 6,8 km/h (2 Bft) W-NW 289 ° 0 min 0,000 mm 0,0 UV-I 54 W/m² 8,5 °C 9,2 °C 11,3 km/h (2 Bft)
16.05.2018 18:08 9,9 °C 91 % 1013,3 hPa 0,0 mm 6,0 km/h (2 Bft) W 266 ° 0 min 0,000 mm 0,0 UV-I 54 W/m² 8,5 °C 9,4 °C 12,9 km/h (3 Bft)
16.05.2018 18:09 9,8 °C 91 % 1013,2 hPa 0,0 mm 11,1 km/h (2 Bft) W 263 ° 0 min 0,000 mm 0,0 UV-I 56 W/m² 8,4 °C 8,2 °C 17,7 km/h (3 Bft)
16.05.2018 18:10 9,8 °C 91 % 1013,2 hPa 0,0 mm 7,9 km/h (2 Bft) W-NW 284 ° 0 min 0,000 mm 0,0 UV-I 58 W/m² 8,4 °C 8,8 °C 11,3 km/h (2 Bft)
16.05.2018 18:11 9,7 °C 91 % 1013,2 hPa 0,0 mm 6,5 km/h (2 Bft) W 276 ° 0 min 0,000 mm 0,0 UV-I 60 W/m² 8,3 °C 9,0 °C 12,9 km/h (3 Bft)
16.05.2018 18:12 9,7 °C 91 % 1013,2 hPa 0,0 mm 4,5 km/h (1 Bft) W-SW 254 ° 0 min 0,000 mm 0,0 UV-I 58 W/m² 8,3 °C 9,7 °C 8,0 km/h (2 Bft)
16.05.2018 18:13 9,7 °C 91 % 1013,2 hPa 0,0 mm 7,5 km/h (2 Bft) W 265 ° 0 min 0,000 mm 0,0 UV-I 67 W/m² 8,3 °C 8,8 °C 16,1 km/h (3 Bft)
16.05.2018 18:14 9,6 °C 91 % 1013,2 hPa 0,0 mm 15,4 km/h (3 Bft) W-NW 300 ° 0 min 0,000 mm 0,0 UV-I 70 W/m² 8,2 °C 7,4 °C 20,9 km/h (4 Bft)
16.05.2018 18:15 9,6 °C 91 % 1013,2 hPa 0,0 mm 14,6 km/h (3 Bft) W 264 ° 0 min 0,000 mm 0,0 UV-I 70 W/m² 8,2 °C 7,5 °C 20,9 km/h (4 Bft)
16.05.2018 18:16 9,6 °C 91 % 1013,2 hPa 0,0 mm 14,2 km/h (3 Bft) W-SW 256 ° 0 min 0,000 mm 0,0 UV-I 69 W/m² 8,2 °C 7,5 °C 19,3 km/h (3 Bft)
16.05.2018 18:17 9,5 °C 91 % 1013,2 hPa 0,0 mm 12,5 km/h (3 Bft) W 267 ° 0 min 0,000 mm 0,0 UV-I 70 W/m² 8,1 °C 7,6 °C 20,9 km/h (4 Bft)
16.05.2018 18:18 9,4 °C 91 % 1013,2 hPa 0,0 mm 8,7 km/h (2 Bft) W-NW 294 ° 0 min 0,000 mm 0,5 UV-I 76 W/m² 8,0 °C 8,2 °C 16,1 km/h (3 Bft)
16.05.2018 18:19 9,4 °C 91 % 1013,2 hPa 0,0 mm 10,1 km/h (2 Bft) W-NW 286 ° 0 min 0,000 mm 0,5 UV-I 81 W/m² 8,0 °C 7,9 °C 14,5 km/h (3 Bft)
16.05.2018 18:20 9,4 °C 91 % 1013,2 hPa 0,0 mm 11,4 km/h (2 Bft) W 263 ° 0 min 0,000 mm 0,5 UV-I 88 W/m² 8,0 °C 7,7 °C 19,3 km/h (3 Bft)
16.05.2018 18:21 9,4 °C 91 % 1013,2 hPa 0,0 mm 7,8 km/h (2 Bft) SW 235 ° 0 min 0,000 mm 0,6 UV-I 100 W/m² 8,0 °C 8,3 °C 11,3 km/h (2 Bft)
16.05.2018 18:22 9,4 °C 91 % 1013,2 hPa 0,0 mm 4,7 km/h (1 Bft) W-NW 293 ° 0 min 0,000 mm 0,6 UV-I 113 W/m² 8,0 °C 9,2 °C 9,7 km/h (2 Bft)
16.05.2018 18:23 9,3 °C 91 % 1013,2 hPa 0,0 mm 9,8 km/h (2 Bft) W-SW 254 ° 0 min 0,000 mm 0,6 UV-I 120 W/m² 7,9 °C 7,8 °C 16,1 km/h (3 Bft)
16.05.2018 18:24 9,4 °C 91 % 1013,2 hPa 0,0 mm 12,8 km/h (3 Bft) W-SW 252 ° 0 min 0,000 mm 0,7 UV-I 130 W/m² 8,0 °C 7,5 °C 14,5 km/h (3 Bft)
16.05.2018 18:25 9,4 °C 91 % 1013,1 hPa 0,0 mm 9,0 km/h (2 Bft) W-SW 253 ° 0 min 0,000 mm 0,7 UV-I 132 W/m² 8,0 °C 8,1 °C 14,5 km/h (3 Bft)
16.05.2018 18:26 9,4 °C 91 % 1013,2 hPa 0,0 mm 5,2 km/h (1 Bft) W-NW 300 ° 0 min 0,000 mm 0,7 UV-I 132 W/m² 8,0 °C 9,0 °C 8,0 km/h (2 Bft)
16.05.2018 18:27 9,4 °C 91 % 1013,2 hPa 0,0 mm 13,3 km/h (3 Bft) W 264 ° 0 min 0,000 mm 0,6 UV-I 128 W/m² 8,0 °C 7,4 °C 20,9 km/h (4 Bft)
16.05.2018 18:28 9,3 °C 91 % 1013,2 hPa 0,0 mm 11,9 km/h (2 Bft) W 276 ° 0 min 0,000 mm 0,6 UV-I 121 W/m² 7,9 °C 7,5 °C 17,7 km/h (3 Bft)
16.05.2018 18:29 9,4 °C 91 % 1013,2 hPa 0,0 mm 9,2 km/h (2 Bft) W-NW 290 ° 0 min 0,000 mm 0,6 UV-I 114 W/m² 8,0 °C 8,1 °C 14,5 km/h (3 Bft)
16.05.2018 18:30 9,3 °C 91 % 1013,2 hPa 0,0 mm 8,0 km/h (2 Bft) W 266 ° 0 min 0,000 mm 0,5 UV-I 98 W/m² 7,9 °C 8,2 °C 12,9 km/h (3 Bft)
16.05.2018 18:31 9,4 °C 91 % 1013,3 hPa 0,0 mm 12,1 km/h (2 Bft) W 269 ° 0 min 0,000 mm 0,5 UV-I 91 W/m² 8,0 °C 7,6 °C 19,3 km/h (3 Bft)
16.05.2018 18:32 9,4 °C 91 % 1013,2 hPa 0,0 mm 9,2 km/h (2 Bft) SW 235 ° 0 min 0,000 mm 0,0 UV-I 86 W/m² 8,0 °C 8,1 °C 14,5 km/h (3 Bft)
16.05.2018 18:33 9,3 °C 91 % 1013,2 hPa 0,0 mm 9,7 km/h (2 Bft) W-SW 246 ° 0 min 0,000 mm 0,0 UV-I 81 W/m² 7,9 °C 7,8 °C 12,9 km/h (3 Bft)
16.05.2018 18:34 9,3 °C 91 % 1013,3 hPa 0,0 mm 8,4 km/h (2 Bft) W-NW 290 ° 0 min 0,000 mm 0,0 UV-I 77 W/m² 7,9 °C 8,1 °C 14,5 km/h (3 Bft)
16.05.2018 18:35 9,3 °C 91 % 1013,2 hPa 0,0 mm 8,4 km/h (2 Bft) W-SW 254 ° 0 min 0,000 mm 0,0 UV-I 76 W/m² 7,9 °C 8,1 °C 12,9 km/h (3 Bft)
16.05.2018 18:36 9,3 °C 91 % 1013,2 hPa 0,0 mm 10,5 km/h (2 Bft) W 276 ° 0 min 0,000 mm 0,0 UV-I 72 W/m² 7,9 °C 7,7 °C 16,1 km/h (3 Bft)
16.05.2018 18:37 9,3 °C 91 % 1013,2 hPa 0,0 mm 10,0 km/h (2 Bft) W-SW 240 ° 0 min 0,000 mm 0,0 UV-I 69 W/m² 7,9 °C 7,8 °C 16,1 km/h (3 Bft)
16.05.2018 18:38 9,2 °C 91 % 1013,2 hPa 0,0 mm 14,8 km/h (3 Bft) W-SW 238 ° 0 min 0,000 mm 0,0 UV-I 65 W/m² 7,8 °C 7,0 °C 22,5 km/h (4 Bft)
16.05.2018 18:39 9,2 °C 91 % 1013,2 hPa 0,0 mm 8,2 km/h (2 Bft) W-SW 252 ° 0 min 0,000 mm 0,0 UV-I 62 W/m² 7,8 °C 8,0 °C 16,1 km/h (3 Bft)
16.05.2018 18:40 9,2 °C 91 % 1013,2 hPa 0,0 mm 6,3 km/h (2 Bft) W 270 ° 0 min 0,000 mm 0,0 UV-I 58 W/m² 7,8 °C 8,5 °C 11,3 km/h (2 Bft)
16.05.2018 18:41 9,2 °C 91 % 1013,2 hPa 0,0 mm 7,0 km/h (2 Bft) W-SW 257 ° 0 min 0,000 mm 0,0 UV-I 56 W/m² 7,8 °C 8,3 °C 12,9 km/h (3 Bft)
16.05.2018 18:42 9,2 °C 91 % 1013,2 hPa 0,0 mm 3,0 km/h (1 Bft) W 271 ° 0 min 0,000 mm 0,0 UV-I 49 W/m² 7,8 °C 9,2 °C 4,8 km/h (1 Bft)
16.05.2018 18:43 9,2 °C 91 % 1013,3 hPa 0,0 mm 6,5 km/h (2 Bft) NW 308 ° 0 min 0,000 mm 0,0 UV-I 46 W/m² 7,8 °C 8,4 °C 11,3 km/h (2 Bft)
16.05.2018 18:44 9,2 °C 91 % 1013,3 hPa 0,0 mm 6,8 km/h (2 Bft) W-SW 250 ° 0 min 0,000 mm 0,0 UV-I 44 W/m² 7,8 °C 8,3 °C 12,9 km/h (3 Bft)
16.05.2018 18:45 9,2 °C 91 % 1013,3 hPa 0,0 mm 3,4 km/h (1 Bft) NW 317 ° 0 min 0,000 mm 0,0 UV-I 42 W/m² 7,8 °C 9,2 °C 9,7 km/h (2 Bft)
16.05.2018 18:46 9,1 °C 91 % 1013,3 hPa 0,0 mm 8,9 km/h (2 Bft) W-SW 244 ° 0 min 0,000 mm 0,0 UV-I 40 W/m² 7,7 °C 7,8 °C 12,9 km/h (3 Bft)
16.05.2018 18:47 9,1 °C 91 % 1013,3 hPa 0,0 mm 9,6 km/h (2 Bft) W-SW 257 ° 0 min 0,000 mm 0,0 UV-I 40 W/m² 7,7 °C 7,6 °C 14,5 km/h (3 Bft)
16.05.2018 18:48 9,1 °C 91 % 1013,3 hPa 0,0 mm 7,4 km/h (2 Bft) W-NW 286 ° 0 min 0,000 mm 0,0 UV-I 37 W/m² 7,7 °C 8,1 °C 11,3 km/h (2 Bft)
16.05.2018 18:49 9,1 °C 91 % 1013,3 hPa 0,0 mm 6,8 km/h (2 Bft) W 279 ° 0 min 0,000 mm 0,0 UV-I 35 W/m² 7,7 °C 8,2 °C 11,3 km/h (2 Bft)
16.05.2018 18:50 9,1 °C 91 % 1013,3 hPa 0,0 mm 11,5 km/h (2 Bft) W 266 ° 0 min 0,000 mm 0,0 UV-I 35 W/m² 7,7 °C 7,3 °C 14,5 km/h (3 Bft)
16.05.2018 18:51 9,1 °C 91 % 1013,3 hPa 0,0 mm 11,5 km/h (2 Bft) W-NW 288 ° 0 min 0,000 mm 0,0 UV-I 33 W/m² 7,7 °C 7,3 °C 16,1 km/h (3 Bft)
16.05.2018 18:52 9,1 °C 91 % 1013,3 hPa 0,0 mm 7,9 km/h (2 Bft) W-SW 254 ° 0 min 0,000 mm 0,0 UV-I 33 W/m² 7,7 °C 8,0 °C 12,9 km/h (3 Bft)
16.05.2018 18:53 9,0 °C 92 % 1013,3 hPa 0,0 mm 10,1 km/h (2 Bft) W-NW 286 ° 0 min 0,000 mm 0,0 UV-I 33 W/m² 7,8 °C 7,4 °C 12,9 km/h (3 Bft)
16.05.2018 18:54 9,0 °C 92 % 1013,3 hPa 0,0 mm 10,4 km/h (2 Bft) SW 232 ° 0 min 0,000 mm 0,0 UV-I 30 W/m² 7,8 °C 7,4 °C 16,1 km/h (3 Bft)
16.05.2018 18:55 9,0 °C 92 % 1013,4 hPa 0,0 mm 7,0 km/h (2 Bft) W 267 ° 0 min 0,000 mm 0,0 UV-I 28 W/m² 7,8 °C 8,1 °C 11,3 km/h (2 Bft)
16.05.2018 18:56 9,0 °C 92 % 1013,3 hPa 0,0 mm 6,1 km/h (2 Bft) W 271 ° 0 min 0,000 mm 0,0 UV-I 28 W/m² 7,8 °C 8,3 °C 11,3 km/h (2 Bft)
16.05.2018 18:57 9,0 °C 92 % 1013,3 hPa 0,0 mm 6,2 km/h (2 Bft) W 276 ° 0 min 0,000 mm 0,0 UV-I 26 W/m² 7,8 °C 8,3 °C 11,3 km/h (2 Bft)
16.05.2018 18:58 9,0 °C 92 % 1013,3 hPa 0,0 mm 6,1 km/h (2 Bft) W 277 ° 0 min 0,000 mm 0,0 UV-I 26 W/m² 7,8 °C 8,3 °C 14,5 km/h (3 Bft)
16.05.2018 18:59 9,0 °C 92 % 1013,3 hPa 0,0 mm 4,5 km/h (1 Bft) W 267 ° 0 min 0,000 mm 0,0 UV-I 26 W/m² 7,8 °C 9,0 °C 9,7 km/h (2 Bft)
16.05.2018 19:00 9,0 °C 92 % 1013,4 hPa 0,0 mm 6,7 km/h (2 Bft) W 277 ° 0 min 0,000 mm 0,0 UV-I 28 W/m² 7,8 °C 8,1 °C 11,3 km/h (2 Bft)
16.05.2018 19:01 8,9 °C 92 % 1013,3 hPa 0,0 mm 6,6 km/h (2 Bft) W-SW 251 ° 0 min 0,026 mm 0,0 UV-I 28 W/m² 7,7 °C 8,0 °C 11,3 km/h (2 Bft)
16.05.2018 19:02 8,9 °C 92 % 1013,4 hPa 0,0 mm 12,5 km/h (3 Bft) W 265 ° 0 min 0,000 mm 0,0 UV-I 28 W/m² 7,7 °C 6,9 °C 17,7 km/h (3 Bft)
16.05.2018 19:03 8,9 °C 92 % 1013,5 hPa 0,0 mm 7,4 km/h (2 Bft) W-NW 296 ° 0 min 0,000 mm 0,0 UV-I 28 W/m² 7,7 °C 7,9 °C 14,5 km/h (3 Bft)
16.05.2018 19:04 8,9 °C 92 % 1013,5 hPa 0,0 mm 6,2 km/h (2 Bft) W 263 ° 0 min 0,000 mm 0,0 UV-I 30 W/m² 7,7 °C 8,2 °C 11,3 km/h (2 Bft)
16.05.2018 19:05 8,9 °C 92 % 1013,5 hPa 0,0 mm 6,4 km/h (2 Bft) W 266 ° 0 min 0,000 mm 0,0 UV-I 28 W/m² 7,7 °C 8,1 °C 11,3 km/h (2 Bft)
16.05.2018 19:06 8,9 °C 92 % 1013,4 hPa 0,0 mm 6,3 km/h (2 Bft) W 280 ° 0 min 0,000 mm 0,0 UV-I 28 W/m² 7,7 °C 8,1 °C 14,5 km/h (3 Bft)
16.05.2018 19:07 8,9 °C 92 % 1013,4 hPa 0,0 mm 8,2 km/h (2 Bft) W-SW 255 ° 0 min 0,000 mm 0,0 UV-I 28 W/m² 7,7 °C 7,7 °C 12,9 km/h (3 Bft)
16.05.2018 19:08 8,9 °C 92 % 1013,5 hPa 0,0 mm 6,4 km/h (2 Bft) W 265 ° 0 min 0,000 mm 0,0 UV-I 28 W/m² 7,7 °C 8,1 °C 11,3 km/h (2 Bft)
16.05.2018 19:09 8,8 °C 92 % 1013,5 hPa 0,0 mm 5,2 km/h (1 Bft) W 278 ° 0 min 0,000 mm 0,0 UV-I 28 W/m² 7,6 °C 8,3 °C 9,7 km/h (2 Bft)
16.05.2018 19:10 8,8 °C 92 % 1013,5 hPa 0,0 mm 7,5 km/h (2 Bft) W 265 ° 0 min 0,000 mm 0,0 UV-I 28 W/m² 7,6 °C 7,7 °C 11,3 km/h (2 Bft)
16.05.2018 19:11 8,8 °C 92 % 1013,5 hPa 0,0 mm 7,0 km/h (2 Bft) W 278 ° 0 min 0,000 mm 0,0 UV-I 30 W/m² 7,6 °C 7,8 °C 9,7 km/h (2 Bft)
16.05.2018 19:12 8,8 °C 92 % 1013,5 hPa 0,0 mm 5,3 km/h (1 Bft) W 263 ° 0 min 0,000 mm 0,0 UV-I 30 W/m² 7,6 °C 8,3 °C 11,3 km/h (2 Bft)
16.05.2018 19:13 8,8 °C 92 % 1013,5 hPa 0,0 mm 6,2 km/h (2 Bft) W-SW 248 ° 0 min 0,000 mm 0,0 UV-I 32 W/m² 7,6 °C 8,0 °C 11,3 km/h (2 Bft)
16.05.2018 19:14 8,8 °C 92 % 1013,5 hPa 0,0 mm 1,9 km/h (1 Bft) W 267 ° 0 min 0,000 mm 0,0 UV-I 32 W/m² 7,6 °C 8,8 °C 4,8 km/h (1 Bft)
16.05.2018 19:15 8,8 °C 92 % 1013,5 hPa 0,0 mm 5,3 km/h (1 Bft) W 279 ° 0 min 0,000 mm 0,0 UV-I 30 W/m² 7,6 °C 8,3 °C 6,4 km/h (2 Bft)
16.05.2018 19:16 8,8 °C 93 % 1013,6 hPa 0,0 mm 3,8 km/h (1 Bft) W-SW 244 ° 0 min 0,000 mm 0,0 UV-I 25 W/m² 7,7 °C 8,8 °C 8,0 km/h (2 Bft)
16.05.2018 19:17 8,8 °C 93 % 1013,5 hPa 0,0 mm 6,6 km/h (2 Bft) W 260 ° 0 min 0,000 mm 0,0 UV-I 19 W/m² 7,7 °C 7,9 °C 11,3 km/h (2 Bft)
16.05.2018 19:18 8,8 °C 93 % 1013,5 hPa 0,0 mm 5,6 km/h (1 Bft) W 260 ° 0 min 0,000 mm 0,0 UV-I 19 W/m² 7,7 °C 8,2 °C 9,7 km/h (2 Bft)
16.05.2018 19:19 8,8 °C 93 % 1013,5 hPa 0,0 mm 9,9 km/h (2 Bft) W 273 ° 0 min 0,000 mm 0,0 UV-I 21 W/m² 7,7 °C 7,2 °C 12,9 km/h (3 Bft)
16.05.2018 19:20 8,8 °C 92 % 1013,5 hPa 0,0 mm 5,6 km/h (1 Bft) W 277 ° 0 min 0,000 mm 0,0 UV-I 21 W/m² 7,6 °C 8,2 °C 6,4 km/h (2 Bft)
16.05.2018 19:21 8,8 °C 93 % 1013,5 hPa 0,0 mm 6,3 km/h (2 Bft) W 267 ° 0 min 0,000 mm 0,0 UV-I 21 W/m² 7,7 °C 8,0 °C 11,3 km/h (2 Bft)
16.05.2018 19:22 8,7 °C 92 % 1013,5 hPa 0,0 mm 7,2 km/h (2 Bft) W 260 ° 0 min 0,000 mm 0,0 UV-I 21 W/m² 7,5 °C 7,7 °C 11,3 km/h (2 Bft)
16.05.2018 19:23 8,7 °C 92 % 1013,5 hPa 0,0 mm 3,9 km/h (1 Bft) SW 232 ° 0 min 0,000 mm 0,0 UV-I 21 W/m² 7,5 °C 8,7 °C 9,7 km/h (2 Bft)
16.05.2018 19:24 8,7 °C 93 % 1013,5 hPa 0,0 mm 4,2 km/h (1 Bft) W-SW 250 ° 0 min 0,000 mm 0,0 UV-I 25 W/m² 7,6 °C 8,7 °C 6,4 km/h (2 Bft)
16.05.2018 19:25 8,7 °C 93 % 1013,5 hPa 0,0 mm 3,0 km/h (1 Bft) W 279 ° 0 min 0,000 mm 0,0 UV-I 30 W/m² 7,6 °C 8,7 °C 11,3 km/h (2 Bft)
16.05.2018 19:26 8,7 °C 92 % 1013,5 hPa 0,0 mm 4,1 km/h (1 Bft) W-NW 282 ° 0 min 0,000 mm 0,0 UV-I 35 W/m² 7,5 °C 8,7 °C 9,7 km/h (2 Bft)
16.05.2018 19:27 8,7 °C 93 % 1013,5 hPa 0,0 mm 9,3 km/h (2 Bft) SW 232 ° 0 min 0,000 mm 0,0 UV-I 35 W/m² 7,6 °C 7,2 °C 12,9 km/h (3 Bft)
16.05.2018 19:28 8,7 °C 93 % 1013,5 hPa 0,0 mm 3,8 km/h (1 Bft) W 265 ° 0 min 0,000 mm 0,0 UV-I 33 W/m² 7,6 °C 8,7 °C 6,4 km/h (2 Bft)
16.05.2018 19:29 8,7 °C 93 % 1013,5 hPa 0,0 mm 2,5 km/h (1 Bft) W 261 ° 0 min 0,000 mm 0,0 UV-I 40 W/m² 7,6 °C 8,7 °C 4,8 km/h (1 Bft)
16.05.2018 19:30 8,7 °C 93 % 1013,5 hPa 0,0 mm 2,8 km/h (1 Bft) W 263 ° 0 min 0,000 mm 0,0 UV-I 46 W/m² 7,6 °C 8,7 °C 6,4 km/h (2 Bft)
16.05.2018 19:31 8,7 °C 93 % 1013,5 hPa 0,0 mm 0,0 km/h (0 Bft) W 263 ° 0 min 0,000 mm 0,0 UV-I 42 W/m² 7,6 °C 8,7 °C 0,0 km/h (0 Bft)
16.05.2018 19:32 8,8 °C 93 % 1013,4 hPa 0,0 mm 4,6 km/h (1 Bft) W 263 ° 0 min 0,000 mm 0,0 UV-I 39 W/m² 7,7 °C 8,5 °C 6,4 km/h (2 Bft)
16.05.2018 19:33 8,8 °C 93 % 1013,5 hPa 0,0 mm 3,4 km/h (1 Bft) W-SW 257 ° 0 min 0,000 mm 0,0 UV-I 39 W/m² 7,7 °C 8,8 °C 6,4 km/h (2 Bft)
16.05.2018 19:34 8,8 °C 93 % 1013,5 hPa 0,0 mm 3,7 km/h (1 Bft) W-NW 286 ° 0 min 0,000 mm 0,0 UV-I 37 W/m² 7,7 °C 8,8 °C 4,8 km/h (1 Bft)
16.05.2018 19:35 8,8 °C 93 % 1013,5 hPa 0,0 mm 4,8 km/h (1 Bft) W-SW 257 ° 0 min 0,000 mm 0,0 UV-I 30 W/m² 7,7 °C 8,5 °C 6,4 km/h (2 Bft)
16.05.2018 19:36 8,8 °C 93 % 1013,5 hPa 0,0 mm 3,2 km/h (1 Bft) W-SW 258 ° 0 min 0,000 mm 0,0 UV-I 25 W/m² 7,7 °C 8,8 °C 4,8 km/h (1 Bft)
16.05.2018 19:37 8,8 °C 93 % 1013,5 hPa 0,0 mm 3,6 km/h (1 Bft) W-NW 294 ° 0 min 0,000 mm 0,0 UV-I 21 W/m² 7,7 °C 8,8 °C 6,4 km/h (2 Bft)
16.05.2018 19:38 8,8 °C 93 % 1013,5 hPa 0,0 mm 4,4 km/h (1 Bft) W-SW 253 ° 0 min 0,000 mm 0,0 UV-I 18 W/m² 7,7 °C 8,8 °C 6,4 km/h (2 Bft)
16.05.2018 19:39 8,8 °C 93 % 1013,6 hPa 0,0 mm 3,7 km/h (1 Bft) W 263 ° 0 min 0,000 mm 0,0 UV-I 16 W/m² 7,7 °C 8,8 °C 6,4 km/h (2 Bft)
16.05.2018 19:40 8,8 °C 93 % 1013,6 hPa 0,0 mm 4,0 km/h (1 Bft) W-SW 258 ° 0 min 0,000 mm 0,0 UV-I 14 W/m² 7,7 °C 8,8 °C 6,4 km/h (2 Bft)
16.05.2018 19:41 8,8 °C 93 % 1013,6 hPa 0,0 mm 4,3 km/h (1 Bft) W 263 ° 0 min 0,000 mm 0,0 UV-I 12 W/m² 7,7 °C 8,8 °C 6,4 km/h (2 Bft)
16.05.2018 19:42 8,8 °C 93 % 1013,6 hPa 0,0 mm 4,5 km/h (1 Bft) W 265 ° 0 min 0,000 mm 0,0 UV-I 12 W/m² 7,7 °C 8,8 °C 6,4 km/h (2 Bft)
16.05.2018 19:43 8,8 °C 93 % 1013,5 hPa 0,0 mm 2,4 km/h (1 Bft) SW 229 ° 0 min 0,000 mm 0,0 UV-I 11 W/m² 7,7 °C 8,8 °C 6,4 km/h (2 Bft)
16.05.2018 19:44 8,8 °C 93 % 1013,6 hPa 0,0 mm 4,9 km/h (1 Bft) W 269 ° 0 min 0,000 mm 0,0 UV-I 12 W/m² 7,7 °C 8,4 °C 11,3 km/h (2 Bft)
16.05.2018 19:45 8,8 °C 93 % 1013,6 hPa 0,0 mm 4,1 km/h (1 Bft) W 265 ° 0 min 0,000 mm 0,0 UV-I 12 W/m² 7,7 °C 8,8 °C 6,4 km/h (2 Bft)
16.05.2018 19:46 8,8 °C 93 % 1013,6 hPa 0,0 mm 0,0 km/h (0 Bft) W 265 ° 0 min 0,000 mm 0,0 UV-I 18 W/m² 7,7 °C 8,8 °C 0,0 km/h (0 Bft)
16.05.2018 19:47 8,8 °C 93 % 1013,6 hPa 0,0 mm 4,1 km/h (1 Bft) W 269 ° 0 min 0,000 mm 0,0 UV-I 18 W/m² 7,7 °C 8,8 °C 6,4 km/h (2 Bft)
16.05.2018 19:48 8,8 °C 93 % 1013,6 hPa 0,0 mm 4,9 km/h (1 Bft) W-SW 257 ° 0 min 0,000 mm 0,0 UV-I 18 W/m² 7,7 °C 8,4 °C 8,0 km/h (2 Bft)
16.05.2018 19:49 8,8 °C 93 % 1013,7 hPa 0,0 mm 7,2 km/h (2 Bft) W 259 ° 0 min 0,000 mm 0,0 UV-I 19 W/m² 7,7 °C 7,8 °C 9,7 km/h (2 Bft)
16.05.2018 19:50 8,8 °C 93 % 1013,6 hPa 0,0 mm 0,8 km/h (0 Bft) W 259 ° 0 min 0,000 mm 0,0 UV-I 21 W/m² 7,7 °C 8,8 °C 4,8 km/h (1 Bft)
16.05.2018 19:51 8,8 °C 93 % 1013,6 hPa 0,0 mm 5,5 km/h (1 Bft) W-SW 256 ° 0 min 0,000 mm 0,0 UV-I 21 W/m² 7,7 °C 8,2 °C 6,4 km/h (2 Bft)
16.05.2018 19:52 8,8 °C 93 % 1013,7 hPa 0,0 mm 2,4 km/h (1 Bft) W 269 ° 0 min 0,000 mm 0,0 UV-I 21 W/m² 7,7 °C 8,8 °C 4,8 km/h (1 Bft)
16.05.2018 19:53 8,8 °C 93 % 1013,7 hPa 0,0 mm 1,2 km/h (1 Bft) W 269 ° 0 min 0,000 mm 0,0 UV-I 21 W/m² 7,7 °C 8,8 °C 3,2 km/h (1 Bft)
16.05.2018 19:54 8,8 °C 93 % 1013,7 hPa 0,0 mm 0,0 km/h (0 Bft) W 269 ° 0 min 0,000 mm 0,0 UV-I 19 W/m² 7,7 °C 8,8 °C 0,0 km/h (0 Bft)
16.05.2018 19:55 8,8 °C 93 % 1013,7 hPa 0,0 mm 2,6 km/h (1 Bft) W 269 ° 0 min 0,000 mm 0,0 UV-I 19 W/m² 7,7 °C 8,8 °C 4,8 km/h (1 Bft)
16.05.2018 19:56 8,8 °C 93 % 1013,7 hPa 0,0 mm 4,6 km/h (1 Bft) W 261 ° 0 min 0,000 mm 0,0 UV-I 19 W/m² 7,7 °C 8,5 °C 6,4 km/h (2 Bft)
16.05.2018 19:57 8,8 °C 93 % 1013,7 hPa 0,0 mm 1,8 km/h (1 Bft) W 261 ° 0 min 0,000 mm 0,0 UV-I 19 W/m² 7,7 °C 8,8 °C 4,8 km/h (1 Bft)
16.05.2018 19:58 8,8 °C 93 % 1013,7 hPa 0,0 mm 1,6 km/h (1 Bft) W 261 ° 0 min 0,000 mm 0,0 UV-I 18 W/m² 7,7 °C 8,8 °C 4,8 km/h (1 Bft)
16.05.2018 19:59 8,8 °C 93 % 1013,6 hPa 0,0 mm 3,3 km/h (1 Bft) W-NW 289 ° 0 min 0,000 mm 0,0 UV-I 18 W/m² 7,7 °C 8,8 °C 6,4 km/h (2 Bft)
16.05.2018 20:00 8,8 °C 93 % 1013,6 hPa 0,0 mm 2,5 km/h (1 Bft) W-NW 289 ° 0 min 0,000 mm 0,0 UV-I 16 W/m² 7,7 °C 8,8 °C 3,2 km/h (1 Bft)
16.05.2018 20:01 8,7 °C 93 % 1013,6 hPa 0,0 mm 5,5 km/h (1 Bft) W 280 ° 0 min 0,025 mm 0,0 UV-I 16 W/m² 7,6 °C 8,1 °C 11,3 km/h (2 Bft)
16.05.2018 20:02 8,7 °C 93 % 1013,6 hPa 0,0 mm 3,9 km/h (1 Bft) W-NW 290 ° 0 min 0,000 mm 0,0 UV-I 14 W/m² 7,6 °C 8,7 °C 6,4 km/h (2 Bft)
16.05.2018 20:03 8,7 °C 93 % 1013,6 hPa 0,0 mm 3,0 km/h (1 Bft) W 271 ° 0 min 0,000 mm 0,0 UV-I 14 W/m² 7,6 °C 8,7 °C 4,8 km/h (1 Bft)
16.05.2018 20:04 8,8 °C 93 % 1013,6 hPa 0,0 mm 5,2 km/h (1 Bft) W 263 ° 0 min 0,000 mm 0,0 UV-I 14 W/m² 7,7 °C 8,3 °C 6,4 km/h (2 Bft)
16.05.2018 20:05 8,7 °C 93 % 1013,6 hPa 0,0 mm 2,2 km/h (1 Bft) W 279 ° 0 min 0,000 mm 0,0 UV-I 12 W/m² 7,6 °C 8,7 °C 6,4 km/h (2 Bft)
16.05.2018 20:06 8,7 °C 93 % 1013,6 hPa 0,0 mm 1,3 km/h (1 Bft) W 279 ° 0 min 0,000 mm 0,0 UV-I 12 W/m² 7,6 °C 8,7 °C 3,2 km/h (1 Bft)
16.05.2018 20:07 8,7 °C 93 % 1013,6 hPa 0,0 mm 0,6 km/h (0 Bft) W 279 ° 0 min 0,000 mm 0,0 UV-I 12 W/m² 7,6 °C 8,7 °C 3,2 km/h (1 Bft)
16.05.2018 20:08 8,7 °C 93 % 1013,6 hPa 0,0 mm 4,9 km/h (1 Bft) W-SW 244 ° 0 min 0,000 mm 0,0 UV-I 12 W/m² 7,6 °C 8,3 °C 8,0 km/h (2 Bft)
16.05.2018 20:09 8,7 °C 93 % 1013,6 hPa 0,0 mm 6,2 km/h (2 Bft) W 269 ° 0 min 0,000 mm 0,0 UV-I 11 W/m² 7,6 °C 7,9 °C 11,3 km/h (2 Bft)
16.05.2018 20:10 8,7 °C 93 % 1013,6 hPa 0,0 mm 4,4 km/h (1 Bft) W-SW 257 ° 0 min 0,000 mm 0,0 UV-I 11 W/m² 7,6 °C 8,7 °C 6,4 km/h (2 Bft)
16.05.2018 20:11 8,7 °C 93 % 1013,6 hPa 0,0 mm 3,7 km/h (1 Bft) W 272 ° 0 min 0,000 mm 0,0 UV-I 11 W/m² 7,6 °C 8,7 °C 6,4 km/h (2 Bft)
16.05.2018 20:12 8,7 °C 93 % 1013,6 hPa 0,0 mm 3,5 km/h (1 Bft) W 276 ° 0 min 0,000 mm 0,0 UV-I 9 W/m² 7,6 °C 8,7 °C 6,4 km/h (2 Bft)
16.05.2018 20:13 8,7 °C 93 % 1013,7 hPa 0,0 mm 6,1 km/h (2 Bft) W-SW 253 ° 0 min 0,000 mm 0,0 UV-I 9 W/m² 7,6 °C 7,9 °C 11,3 km/h (2 Bft)
16.05.2018 20:14 8,7 °C 93 % 1013,7 hPa 0,0 mm 6,9 km/h (2 Bft) W 281 ° 0 min 0,000 mm 0,0 UV-I 9 W/m² 7,6 °C 7,7 °C 12,9 km/h (3 Bft)
16.05.2018 20:15 8,7 °C 93 % 1013,8 hPa 0,0 mm 3,1 km/h (1 Bft) W 275 ° 0 min 0,000 mm 0,0 UV-I 7 W/m² 7,6 °C 8,7 °C 9,7 km/h (2 Bft)
16.05.2018 20:16 8,7 °C 93 % 1013,8 hPa 0,0 mm 11,3 km/h (2 Bft) W 263 ° 0 min 0,000 mm 0,0 UV-I 7 W/m² 7,6 °C 6,9 °C 16,1 km/h (3 Bft)
16.05.2018 20:17 8,7 °C 93 % 1013,8 hPa 0,0 mm 7,7 km/h (2 Bft) W-SW 253 ° 0 min 0,000 mm 0,0 UV-I 7 W/m² 7,6 °C 7,5 °C 11,3 km/h (2 Bft)
16.05.2018 20:18 8,7 °C 93 % 1013,7 hPa 0,0 mm 3,1 km/h (1 Bft) W-SW 250 ° 0 min 0,000 mm 0,0 UV-I 7 W/m² 7,6 °C 8,7 °C 9,7 km/h (2 Bft)
16.05.2018 20:19 8,7 °C 93 % 1013,8 hPa 0,0 mm 1,2 km/h (1 Bft) W-SW 238 ° 0 min 0,000 mm 0,0 UV-I 5 W/m² 7,6 °C 8,7 °C 3,2 km/h (1 Bft)
16.05.2018 20:20 8,7 °C 93 % 1013,8 hPa 0,0 mm 2,5 km/h (1 Bft) W-SW 239 ° 0 min 0,000 mm 0,0 UV-I 5 W/m² 7,6 °C 8,7 °C 6,4 km/h (2 Bft)
16.05.2018 20:21 8,6 °C 93 % 1013,7 hPa 0,0 mm 3,5 km/h (1 Bft) W-NW 284 ° 0 min 0,000 mm 0,0 UV-I 5 W/m² 7,5 °C 8,6 °C 4,8 km/h (1 Bft)
16.05.2018 20:22 8,7 °C 93 % 1013,8 hPa 0,0 mm 5,4 km/h (1 Bft) W-SW 247 ° 0 min 0,000 mm 0,0 UV-I 5 W/m² 7,6 °C 8,2 °C 8,0 km/h (2 Bft)
16.05.2018 20:23 8,7 °C 93 % 1013,8 hPa 0,0 mm 7,7 km/h (2 Bft) W-SW 256 ° 0 min 0,000 mm 0,0 UV-I 5 W/m² 7,6 °C 7,5 °C 11,3 km/h (2 Bft)
16.05.2018 20:24 8,7 °C 93 % 1013,7 hPa 0,0 mm 9,9 km/h (2 Bft) W-SW 245 ° 0 min 0,000 mm 0,0 UV-I 5 W/m² 7,6 °C 7,1 °C 14,5 km/h (3 Bft)
16.05.2018 20:25 8,7 °C 93 % 1013,7 hPa 0,0 mm 4,6 km/h (1 Bft) W-SW 243 ° 0 min 0,000 mm 0,0 UV-I 5 W/m² 7,6 °C 8,4 °C 8,0 km/h (2 Bft)
16.05.2018 20:26 8,7 °C 93 % 1013,7 hPa 0,0 mm 6,1 km/h (2 Bft) W-SW 257 ° 0 min 0,000 mm 0,0 UV-I 5 W/m² 7,6 °C 7,9 °C 11,3 km/h (2 Bft)
16.05.2018 20:27 8,7 °C 93 % 1013,7 hPa 0,0 mm 3,2 km/h (1 Bft) W 269 ° 0 min 0,000 mm 0,0 UV-I 0 W/m² 7,6 °C 8,7 °C 6,4 km/h (2 Bft)
16.05.2018 20:28 8,6 °C 93 % 1013,7 hPa 0,0 mm 2,5 km/h (1 Bft) W-SW 247 ° 0 min 0,000 mm 0,0 UV-I 0 W/m² 7,5 °C 8,6 °C 6,4 km/h (2 Bft)
16.05.2018 20:29 8,6 °C 93 % 1013,7 hPa 0,0 mm 4,5 km/h (1 Bft) W-SW 254 ° 0 min 0,000 mm 0,0 UV-I 0 W/m² 7,5 °C 8,6 °C 9,7 km/h (2 Bft)
16.05.2018 20:30 8,6 °C 93 % 1013,8 hPa 0,0 mm 3,3 km/h (1 Bft) W 272 ° 0 min 0,000 mm 0,0 UV-I 0 W/m² 7,5 °C 8,6 °C 6,4 km/h (2 Bft)
16.05.2018 20:31 8,6 °C 93 % 1013,8 hPa 0,0 mm 4,4 km/h (1 Bft) W 259 ° 0 min 0,000 mm 0,0 UV-I 0 W/m² 7,5 °C 8,6 °C 6,4 km/h (2 Bft)
16.05.2018 20:32 8,6 °C 93 % 1013,8 hPa 0,0 mm 2,9 km/h (1 Bft) W 270 ° 0 min 0,000 mm 0,0 UV-I 0 W/m² 7,5 °C 8,6 °C 4,8 km/h (1 Bft)
16.05.2018 20:33 8,6 °C 93 % 1013,7 hPa 0,0 mm 4,0 km/h (1 Bft) W-SW 240 ° 0 min 0,000 mm 0,0 UV-I 0 W/m² 7,5 °C 8,6 °C 11,3 km/h (2 Bft)
16.05.2018 20:34 8,6 °C 93 % 1013,8 hPa 0,0 mm 4,3 km/h (1 Bft) W-SW 250 ° 0 min 0,000 mm 0,0 UV-I 0 W/m² 7,5 °C 8,6 °C 6,4 km/h (2 Bft)
16.05.2018 20:35 8,6 °C 93 % 1013,8 hPa 0,0 mm 3,5 km/h (1 Bft) SW 232 ° 0 min 0,000 mm 0,0 UV-I 0 W/m² 7,5 °C 8,6 °C 6,4 km/h (2 Bft)
16.05.2018 20:36 8,6 °C 93 % 1013,9 hPa 0,0 mm 6,4 km/h (2 Bft) W 280 ° 0 min 0,000 mm 0,0 UV-I 0 W/m² 7,5 °C 7,8 °C 9,7 km/h (2 Bft)
16.05.2018 20:37 8,6 °C 93 % 1013,8 hPa 0,0 mm 7,9 km/h (2 Bft) W-SW 252 ° 0 min 0,000 mm 0,0 UV-I 0 W/m² 7,5 °C 7,4 °C 12,9 km/h (3 Bft)
16.05.2018 20:38 8,6 °C 93 % 1013,9 hPa 0,0 mm 5,0 km/h (1 Bft) W-SW 257 ° 0 min 0,000 mm 0,0 UV-I 0 W/m² 7,5 °C 8,2 °C 9,7 km/h (2 Bft)
16.05.2018 20:39 8,6 °C 93 % 1013,9 hPa 0,0 mm 6,8 km/h (2 Bft) SW 233 ° 0 min 0,000 mm 0,0 UV-I 0 W/m² 7,5 °C 7,6 °C 14,5 km/h (3 Bft)
16.05.2018 20:40 8,6 °C 93 % 1013,8 hPa 0,0 mm 3,2 km/h (1 Bft) W 263 ° 0 min 0,000 mm 0,0 UV-I 0 W/m² 7,5 °C 8,6 °C 6,4 km/h (2 Bft)
16.05.2018 20:41 8,6 °C 93 % 1013,8 hPa 0,0 mm 6,4 km/h (2 Bft) W 273 ° 0 min 0,000 mm 0,0 UV-I 0 W/m² 7,5 °C 7,8 °C 12,9 km/h (3 Bft)
16.05.2018 20:42 8,5 °C 93 % 1013,8 hPa 0,0 mm 7,0 km/h (2 Bft) W-SW 250 ° 0 min 0,000 mm 0,0 UV-I 0 W/m² 7,4 °C 7,5 °C 12,9 km/h (3 Bft)
16.05.2018 20:43 8,6 °C 93 % 1013,9 hPa 0,0 mm 4,3 km/h (1 Bft) W 267 ° 0 min 0,000 mm 0,0 UV-I 0 W/m² 7,5 °C 8,6 °C 11,3 km/h (2 Bft)
16.05.2018 20:44 8,6 °C 93 % 1013,8 hPa 0,0 mm 7,5 km/h (2 Bft) W-SW 242 ° 0 min 0,000 mm 0,0 UV-I 0 W/m² 7,5 °C 7,5 °C 12,9 km/h (3 Bft)
16.05.2018 20:45 8,6 °C 93 % 1013,8 hPa 0,0 mm 7,8 km/h (2 Bft) SW 227 ° 0 min 0,000 mm 0,0 UV-I 0 W/m² 7,5 °C 7,4 °C 12,9 km/h (3 Bft)
16.05.2018 20:46 8,5 °C 93 % 1013,8 hPa 0,0 mm 7,0 km/h (2 Bft) W-SW 242 ° 0 min 0,000 mm 0,0 UV-I 0 W/m² 7,4 °C 7,5 °C 11,3 km/h (2 Bft)
16.05.2018 20:47 8,5 °C 93 % 1013,9 hPa 0,0 mm 4,6 km/h (1 Bft) W-SW 246 ° 0 min 0,000 mm 0,0 UV-I 0 W/m² 7,4 °C 8,2 °C 6,4 km/h (2 Bft)
16.05.2018 20:48 8,6 °C 93 % 1013,9 hPa 0,0 mm 3,9 km/h (1 Bft) W-SW 254 ° 0 min 0,000 mm 0,0 UV-I 0 W/m² 7,5 °C 8,6 °C 6,4 km/h (2 Bft)
16.05.2018 20:49 8,6 °C 93 % 1013,9 hPa 0,0 mm 5,7 km/h (1 Bft) W 273 ° 0 min 0,000 mm 0,0 UV-I 0 W/m² 7,5 °C 7,9 °C 9,7 km/h (2 Bft)
16.05.2018 20:50 8,5 °C 93 % 1013,9 hPa 0,0 mm 3,5 km/h (1 Bft) W 275 ° 0 min 0,000 mm 0,0 UV-I 0 W/m² 7,4 °C 8,5 °C 4,8 km/h (1 Bft)
16.05.2018 20:51 8,6 °C 93 % 1013,9 hPa 0,0 mm 4,0 km/h (1 Bft) W 263 ° 0 min 0,000 mm 0,0 UV-I 0 W/m² 7,5 °C 8,6 °C 11,3 km/h (2 Bft)
16.05.2018 20:52 8,5 °C 93 % 1013,9 hPa 0,0 mm 3,4 km/h (1 Bft) W-SW 252 ° 0 min 0,000 mm 0,0 UV-I 0 W/m² 7,4 °C 8,5 °C 6,4 km/h (2 Bft)
16.05.2018 20:53 8,6 °C 93 % 1013,9 hPa 0,0 mm 5,5 km/h (1 Bft) W 262 ° 0 min 0,000 mm 0,0 UV-I 0 W/m² 7,5 °C 8,0 °C 8,0 km/h (2 Bft)
16.05.2018 20:54 8,6 °C 93 % 1013,9 hPa 0,0 mm 3,5 km/h (1 Bft) W-SW 254 ° 0 min 0,000 mm 0,0 UV-I 0 W/m² 7,5 °C 8,6 °C 4,8 km/h (1 Bft)
16.05.2018 20:55 8,6 °C 93 % 1013,9 hPa 0,0 mm 5,5 km/h (1 Bft) W-NW 283 ° 0 min 0,000 mm 0,0 UV-I 0 W/m² 7,5 °C 8,0 °C 9,7 km/h (2 Bft)
16.05.2018 20:56 8,6 °C 93 % 1013,9 hPa 0,0 mm 4,4 km/h (1 Bft) W-SW 255 ° 0 min 0,000 mm 0,0 UV-I 0 W/m² 7,5 °C 8,6 °C 11,3 km/h (2 Bft)
16.05.2018 20:57 8,5 °C 93 % 1013,9 hPa 0,0 mm 3,8 km/h (1 Bft) SW 227 ° 0 min 0,000 mm 0,0 UV-I 0 W/m² 7,4 °C 8,5 °C 4,8 km/h (1 Bft)
16.05.2018 20:58 8,5 °C 93 % 1013,9 hPa 0,0 mm 4,9 km/h (1 Bft) W-SW 247 ° 0 min 0,000 mm 0,0 UV-I 0 W/m² 7,4 °C 8,1 °C 12,9 km/h (3 Bft)
16.05.2018 20:59 8,5 °C 93 % 1014,0 hPa 0,0 mm 2,5 km/h (1 Bft) W 264 ° 0 min 0,000 mm 0,0 UV-I 0 W/m² 7,4 °C 8,5 °C 6,4 km/h (2 Bft)
16.05.2018 21:00 8,5 °C 93 % 1014,0 hPa 0,0 mm 5,4 km/h (1 Bft) W-SW 238 ° 0 min 0,000 mm 0,0 UV-I 0 W/m² 7,4 °C 7,9 °C 9,7 km/h (2 Bft)
16.05.2018 21:01 8,5 °C 92 % 1014,0 hPa 0,0 mm 4,1 km/h (1 Bft) W 265 ° 0 min 0,000 mm 0,0 UV-I 0 W/m² 7,3 °C 8,5 °C 9,7 km/h (2 Bft)
16.05.2018 21:02 8,5 °C 92 % 1013,9 hPa 0,0 mm 3,9 km/h (1 Bft) SW 228 ° 0 min 0,000 mm 0,0 UV-I 0 W/m² 7,3 °C 8,5 °C 6,4 km/h (2 Bft)
16.05.2018 21:03 8,5 °C 92 % 1013,9 hPa 0,0 mm 4,2 km/h (1 Bft) W-SW 246 ° 0 min 0,000 mm 0,0 UV-I 0 W/m² 7,3 °C 8,5 °C 9,7 km/h (2 Bft)
16.05.2018 21:04 8,6 °C 92 % 1014,0 hPa 0,0 mm 6,0 km/h (2 Bft) S-SW 207 ° 0 min 0,000 mm 0,0 UV-I 0 W/m² 7,4 °C 7,9 °C 11,3 km/h (2 Bft)
16.05.2018 21:05 8,5 °C 92 % 1014,0 hPa 0,0 mm 3,1 km/h (1 Bft) SW 219 ° 0 min 0,000 mm 0,0 UV-I 0 W/m² 7,3 °C 8,5 °C 6,4 km/h (2 Bft)
16.05.2018 21:06 8,6 °C 92 % 1014,0 hPa 0,0 mm 4,5 km/h (1 Bft) SW 225 ° 0 min 0,000 mm 0,0 UV-I 0 W/m² 7,4 °C 8,6 °C 6,4 km/h (2 Bft)
16.05.2018 21:07 8,5 °C 92 % 1014,0 hPa 0,0 mm 1,4 km/h (1 Bft) SW 225 ° 0 min 0,000 mm 0,0 UV-I 0 W/m² 7,3 °C 8,5 °C 3,2 km/h (1 Bft)
16.05.2018 21:08 8,5 °C 92 % 1014,0 hPa 0,0 mm 2,8 km/h (1 Bft) SW 215 ° 0 min 0,000 mm 0,0 UV-I 0 W/m² 7,3 °C 8,5 °C 8,0 km/h (2 Bft)
16.05.2018 21:09 8,5 °C 92 % 1014,0 hPa 0,0 mm 4,2 km/h (1 Bft) W 260 ° 0 min 0,000 mm 0,0 UV-I 0 W/m² 7,3 °C 8,5 °C 8,0 km/h (2 Bft)
16.05.2018 21:10 8,4 °C 92 % 1014,0 hPa 0,0 mm 2,4 km/h (1 Bft) SW 230 ° 0 min 0,000 mm 0,0 UV-I 0 W/m² 7,2 °C 8,4 °C 4,8 km/h (1 Bft)
16.05.2018 21:11 8,4 °C 92 % 1014,0 hPa 0,0 mm 3,0 km/h (1 Bft) SW 229 ° 0 min 0,000 mm 0,0 UV-I 0 W/m² 7,2 °C 8,4 °C 4,8 km/h (1 Bft)
16.05.2018 21:12 8,4 °C 92 % 1014,0 hPa 0,0 mm 3,0 km/h (1 Bft) SW 223 ° 0 min 0,000 mm 0,0 UV-I 0 W/m² 7,2 °C 8,4 °C 4,8 km/h (1 Bft)
16.05.2018 21:13 8,4 °C 92 % 1014,0 hPa 0,0 mm 3,5 km/h (1 Bft) W 268 ° 0 min 0,000 mm 0,0 UV-I 0 W/m² 7,2 °C 8,4 °C 4,8 km/h (1 Bft)
16.05.2018 21:14 8,4 °C 92 % 1013,9 hPa 0,0 mm 4,6 km/h (1 Bft) SW 229 ° 0 min 0,000 mm 0,0 UV-I 0 W/m² 7,2 °C 8,1 °C 8,0 km/h (2 Bft)
16.05.2018 21:15 8,4 °C 92 % 1014,0 hPa 0,0 mm 4,5 km/h (1 Bft) W-SW 240 ° 0 min 0,000 mm 0,0 UV-I 0 W/m² 7,2 °C 8,4 °C 8,0 km/h (2 Bft)
16.05.2018 21:16 8,4 °C 92 % 1014,0 hPa 0,0 mm 2,6 km/h (1 Bft) W 269 ° 0 min 0,000 mm 0,0 UV-I 0 W/m² 7,2 °C 8,4 °C 6,4 km/h (2 Bft)
16.05.2018 21:17 8,4 °C 92 % 1014,0 hPa 0,0 mm 1,0 km/h (0 Bft) SW 230 ° 0 min 0,000 mm 0,0 UV-I 0 W/m² 7,2 °C 8,4 °C 3,2 km/h (1 Bft)
16.05.2018 21:18 8,4 °C 92 % 1014,0 hPa 0,0 mm 1,9 km/h (1 Bft) SW 230 ° 0 min 0,000 mm 0,0 UV-I 0 W/m² 7,2 °C 8,4 °C 3,2 km/h (1 Bft)
16.05.2018 21:19 8,5 °C 92 % 1014,0 hPa 0,0 mm 1,5 km/h (1 Bft) W-SW 238 ° 0 min 0,000 mm 0,0 UV-I 0 W/m² 7,3 °C 8,5 °C 3,2 km/h (1 Bft)
16.05.2018 21:20 8,5 °C 92 % 1014,0 hPa 0,0 mm 1,7 km/h (1 Bft) W-SW 242 ° 0 min 0,000 mm 0,0 UV-I 0 W/m² 7,3 °C 8,5 °C 4,8 km/h (1 Bft)
16.05.2018 21:21 8,4 °C 92 % 1014,0 hPa 0,0 mm 1,1 km/h (1 Bft) W-SW 242 ° 0 min 0,000 mm 0,0 UV-I 0 W/m² 7,2 °C 8,4 °C 3,2 km/h (1 Bft)
16.05.2018 21:22 8,4 °C 92 % 1014,0 hPa 0,0 mm 0,3 km/h (0 Bft) W-SW 242 ° 0 min 0,000 mm 0,0 UV-I 0 W/m² 7,2 °C 8,4 °C 1,6 km/h (1 Bft)
16.05.2018 21:23 8,4 °C 92 % 1014,1 hPa 0,0 mm 2,2 km/h (1 Bft) W-SW 254 ° 0 min 0,000 mm 0,0 UV-I 0 W/m² 7,2 °C 8,4 °C 4,8 km/h (1 Bft)
16.05.2018 21:24 8,4 °C 92 % 1014,0 hPa 0,0 mm 2,5 km/h (1 Bft) W-SW 246 ° 0 min 0,000 mm 0,0 UV-I 0 W/m² 7,2 °C 8,4 °C 4,8 km/h (1 Bft)
16.05.2018 21:25 8,5 °C 92 % 1014,1 hPa 0,0 mm 1,4 km/h (1 Bft) W-SW 246 ° 0 min 0,000 mm 0,0 UV-I 0 W/m² 7,3 °C 8,5 °C 3,2 km/h (1 Bft)
16.05.2018 21:26 8,5 °C 92 % 1014,1 hPa 0,0 mm 0,2 km/h (0 Bft) W-SW 246 ° 0 min 0,000 mm 0,0 UV-I 0 W/m² 7,3 °C 8,5 °C 3,2 km/h (1 Bft)
16.05.2018 21:27 8,5 °C 92 % 1014,1 hPa 0,0 mm 4,1 km/h (1 Bft) W-SW 257 ° 0 min 0,000 mm 0,0 UV-I 0 W/m² 7,3 °C 8,5 °C 6,4 km/h (2 Bft)
16.05.2018 21:28 8,4 °C 92 % 1014,1 hPa 0,0 mm 2,5 km/h (1 Bft) W-SW 245 ° 0 min 0,000 mm 0,0 UV-I 0 W/m² 7,2 °C 8,4 °C 6,4 km/h (2 Bft)
16.05.2018 21:29 8,4 °C 92 % 1014,1 hPa 0,0 mm 3,8 km/h (1 Bft) W 264 ° 0 min 0,000 mm 0,0 UV-I 0 W/m² 7,2 °C 8,4 °C 6,4 km/h (2 Bft)
16.05.2018 21:30 8,4 °C 92 % 1014,1 hPa 0,0 mm 3,2 km/h (1 Bft) SW 231 ° 0 min 0,000 mm 0,0 UV-I 0 W/m² 7,2 °C 8,4 °C 6,4 km/h (2 Bft)
16.05.2018 21:31 8,4 °C 92 % 1014,1 hPa 0,0 mm 3,8 km/h (1 Bft) W 277 ° 0 min 0,000 mm 0,0 UV-I 0 W/m² 7,2 °C 8,4 °C 9,7 km/h (2 Bft)
16.05.2018 21:32 8,4 °C 92 % 1014,2 hPa 0,0 mm 4,0 km/h (1 Bft) W-SW 240 ° 0 min 0,000 mm 0,0 UV-I 0 W/m² 7,2 °C 8,4 °C 6,4 km/h (2 Bft)
16.05.2018 21:33 8,4 °C 92 % 1014,2 hPa 0,0 mm 1,7 km/h (1 Bft) W-SW 240 ° 0 min 0,000 mm 0,0 UV-I 0 W/m² 7,2 °C 8,4 °C 3,2 km/h (1 Bft)
16.05.2018 21:34 8,4 °C 92 % 1014,2 hPa 0,0 mm 1,2 km/h (1 Bft) W-SW 240 ° 0 min 0,000 mm 0,0 UV-I 0 W/m² 7,2 °C 8,4 °C 3,2 km/h (1 Bft)
16.05.2018 21:35 8,4 °C 92 % 1014,2 hPa 0,0 mm 1,7 km/h (1 Bft) W-SW 240 ° 0 min 0,000 mm 0,0 UV-I 0 W/m² 7,2 °C 8,4 °C 3,2 km/h (1 Bft)
16.05.2018 21:36 8,4 °C 92 % 1014,2 hPa 0,0 mm 2,7 km/h (1 Bft) W-SW 258 ° 0 min 0,000 mm 0,0 UV-I 0 W/m² 7,2 °C 8,4 °C 4,8 km/h (1 Bft)
16.05.2018 21:37 8,4 °C 92 % 1014,2 hPa 0,0 mm 4,3 km/h (1 Bft) W-SW 257 ° 0 min 0,000 mm 0,0 UV-I 0 W/m² 7,2 °C 8,4 °C 6,4 km/h (2 Bft)
16.05.2018 21:38 8,4 °C 92 % 1014,2 hPa 0,0 mm 2,8 km/h (1 Bft) W 259 ° 0 min 0,000 mm 0,0 UV-I 0 W/m² 7,2 °C 8,4 °C 6,4 km/h (2 Bft)
16.05.2018 21:39 8,4 °C 92 % 1014,2 hPa 0,0 mm 3,3 km/h (1 Bft) W-SW 239 ° 0 min 0,000 mm 0,0 UV-I 0 W/m² 7,2 °C 8,4 °C 6,4 km/h (2 Bft)
16.05.2018 21:40 8,4 °C 92 % 1014,2 hPa 0,0 mm 1,0 km/h (0 Bft) W-SW 239 ° 0 min 0,000 mm 0,0 UV-I 0 W/m² 7,2 °C 8,4 °C 3,2 km/h (1 Bft)
16.05.2018 21:41 8,4 °C 92 % 1014,3 hPa 0,0 mm 1,4 km/h (1 Bft) W-SW 239 ° 0 min 0,000 mm 0,0 UV-I 0 W/m² 7,2 °C 8,4 °C 4,8 km/h (1 Bft)
16.05.2018 21:42 8,4 °C 92 % 1014,3 hPa 0,0 mm 1,3 km/h (1 Bft) W-SW 239 ° 0 min 0,000 mm 0,0 UV-I 0 W/m² 7,2 °C 8,4 °C 3,2 km/h (1 Bft)
16.05.2018 21:43 8,4 °C 92 % 1014,3 hPa 0,0 mm 2,3 km/h (1 Bft) W-SW 239 ° 0 min 0,000 mm 0,0 UV-I 0 W/m² 7,2 °C 8,4 °C 4,8 km/h (1 Bft)
16.05.2018 21:44 8,4 °C 92 % 1014,3 hPa 0,0 mm 1,9 km/h (1 Bft) W-SW 238 ° 0 min 0,000 mm 0,0 UV-I 0 W/m² 7,2 °C 8,4 °C 6,4 km/h (2 Bft)
16.05.2018 21:45 8,4 °C 92 % 1014,3 hPa 0,0 mm 6,2 km/h (2 Bft) W 265 ° 0 min 0,000 mm 0,0 UV-I 0 W/m² 7,2 °C 7,6 °C 9,7 km/h (2 Bft)
16.05.2018 21:46 8,4 °C 92 % 1014,3 hPa 0,0 mm 3,9 km/h (1 Bft) W 269 ° 0 min 0,000 mm 0,0 UV-I 0 W/m² 7,2 °C 8,4 °C 4,8 km/h (1 Bft)
16.05.2018 21:47 8,4 °C 92 % 1014,3 hPa 0,0 mm 1,7 km/h (1 Bft) W-SW 248 ° 0 min 0,000 mm 0,0 UV-I 0 W/m² 7,2 °C 8,4 °C 3,2 km/h (1 Bft)
16.05.2018 21:48 8,4 °C 92 % 1014,3 hPa 0,0 mm 2,2 km/h (1 Bft) SW 229 ° 0 min 0,000 mm 0,0 UV-I 0 W/m² 7,2 °C 8,4 °C 6,4 km/h (2 Bft)
16.05.2018 21:49 8,4 °C 92 % 1014,3 hPa 0,0 mm 3,8 km/h (1 Bft) W 262 ° 0 min 0,000 mm 0,0 UV-I 0 W/m² 7,2 °C 8,4 °C 4,8 km/h (1 Bft)
16.05.2018 21:50 8,4 °C 92 % 1014,3 hPa 0,0 mm 2,5 km/h (1 Bft) W-SW 238 ° 0 min 0,000 mm 0,0 UV-I 0 W/m² 7,2 °C 8,4 °C 3,2 km/h (1 Bft)
16.05.2018 21:51 8,4 °C 92 % 1014,3 hPa 0,0 mm 0,8 km/h (0 Bft) W-SW 238 ° 0 min 0,000 mm 0,0 UV-I 0 W/m² 7,2 °C 8,4 °C 1,6 km/h (1 Bft)
16.05.2018 21:52 8,4 °C 92 % 1014,4 hPa 0,0 mm 2,1 km/h (1 Bft) W-SW 238 ° 0 min 0,000 mm 0,0 UV-I 0 W/m² 7,2 °C 8,4 °C 4,8 km/h (1 Bft)
16.05.2018 21:53 8,4 °C 92 % 1014,4 hPa 0,0 mm 0,2 km/h (0 Bft) W-SW 238 ° 0 min 0,000 mm 0,0 UV-I 0 W/m² 7,2 °C 8,4 °C 1,6 km/h (1 Bft)
16.05.2018 21:54 8,4 °C 92 % 1014,3 hPa 0,0 mm 0,1 km/h (0 Bft) W-SW 238 ° 0 min 0,000 mm 0,0 UV-I 0 W/m² 7,2 °C 8,4 °C 1,6 km/h (1 Bft)
16.05.2018 21:55 8,4 °C 92 % 1014,4 hPa 0,0 mm 1,1 km/h (1 Bft) W-SW 238 ° 0 min 0,000 mm 0,0 UV-I 0 W/m² 7,2 °C 8,4 °C 3,2 km/h (1 Bft)
16.05.2018 21:56 8,4 °C 92 % 1014,4 hPa 0,0 mm 0,9 km/h (0 Bft) W-SW 244 ° 0 min 0,000 mm 0,0 UV-I 0 W/m² 7,2 °C 8,4 °C 3,2 km/h (1 Bft)
16.05.2018 21:57 8,4 °C 92 % 1014,4 hPa 0,0 mm 1,1 km/h (1 Bft) W 272 ° 0 min 0,000 mm 0,0 UV-I 0 W/m² 7,2 °C 8,4 °C 3,2 km/h (1 Bft)
16.05.2018 21:58 8,4 °C 92 % 1014,4 hPa 0,0 mm 0,1 km/h (0 Bft) W-SW 253 ° 0 min 0,000 mm 0,0 UV-I 0 W/m² 7,2 °C 8,4 °C 1,6 km/h (1 Bft)
16.05.2018 21:59 8,4 °C 92 % 1014,4 hPa 0,0 mm 0,3 km/h (0 Bft) W-SW 253 ° 0 min 0,000 mm 0,0 UV-I 0 W/m² 7,2 °C 8,4 °C 1,6 km/h (1 Bft)
16.05.2018 22:00 8,3 °C 92 % 1014,4 hPa 0,0 mm 5,1 km/h (1 Bft) W 267 ° 0 min 0,000 mm 0,0 UV-I 0 W/m² 7,1 °C 7,8 °C 9,7 km/h (2 Bft)
16.05.2018 22:01 8,3 °C 92 % 1014,4 hPa 0,0 mm 2,2 km/h (1 Bft) W 267 ° 0 min 0,000 mm 0,0 UV-I 0 W/m² 7,1 °C 8,3 °C 4,8 km/h (1 Bft)
16.05.2018 22:02 8,3 °C 92 % 1014,5 hPa 0,0 mm 1,5 km/h (1 Bft) W 267 ° 0 min 0,000 mm 0,0 UV-I 0 W/m² 7,1 °C 8,3 °C 3,2 km/h (1 Bft)
16.05.2018 22:03 8,3 °C 92 % 1014,4 hPa 0,0 mm 1,1 km/h (1 Bft) W 267 ° 0 min 0,000 mm 0,0 UV-I 0 W/m² 7,1 °C 8,3 °C 4,8 km/h (1 Bft)
16.05.2018 22:04 8,3 °C 92 % 1014,4 hPa 0,0 mm 1,1 km/h (1 Bft) W 267 ° 0 min 0,000 mm 0,0 UV-I 0 W/m² 7,1 °C 8,3 °C 4,8 km/h (1 Bft)
16.05.2018 22:05 8,3 °C 92 % 1014,4 hPa 0,0 mm 0,0 km/h (0 Bft) W 267 ° 0 min 0,000 mm 0,0 UV-I 0 W/m² 7,1 °C 8,3 °C 0,0 km/h (0 Bft)
16.05.2018 22:06 8,3 °C 92 % 1014,5 hPa 0,0 mm 0,0 km/h (0 Bft) W 267 ° 0 min 0,000 mm 0,0 UV-I 0 W/m² 7,1 °C 8,3 °C 0,0 km/h (0 Bft)
16.05.2018 22:07 8,3 °C 92 % 1014,5 hPa 0,0 mm 0,8 km/h (0 Bft) W 269 ° 0 min 0,000 mm 0,0 UV-I 0 W/m² 7,1 °C 8,3 °C 1,6 km/h (1 Bft)
16.05.2018 22:08 8,3 °C 92 % 1014,5 hPa 0,0 mm 0,1 km/h (0 Bft) W 269 ° 0 min 0,000 mm 0,0 UV-I 0 W/m² 7,1 °C 8,3 °C 1,6 km/h (1 Bft)
16.05.2018 22:09 8,3 °C 92 % 1014,5 hPa 0,0 mm 3,4 km/h (1 Bft) W-NW 294 ° 0 min 0,000 mm 0,0 UV-I 0 W/m² 7,1 °C 8,3 °C 6,4 km/h (2 Bft)
16.05.2018 22:10 8,3 °C 92 % 1014,5 hPa 0,0 mm 2,0 km/h (1 Bft) W 259 ° 0 min 0,000 mm 0,0 UV-I 0 W/m² 7,1 °C 8,3 °C 4,8 km/h (1 Bft)
16.05.2018 22:11 8,3 °C 92 % 1014,5 hPa 0,0 mm 0,0 km/h (0 Bft) W 259 ° 0 min 0,000 mm 0,0 UV-I 0 W/m² 7,1 °C 8,3 °C 0,0 km/h (0 Bft)
16.05.2018 22:12 8,3 °C 92 % 1014,4 hPa 0,0 mm 0,0 km/h (0 Bft) W 259 ° 0 min 0,000 mm 0,0 UV-I 0 W/m² 7,1 °C 8,3 °C 0,0 km/h (0 Bft)
16.05.2018 22:13 8,3 °C 92 % 1014,5 hPa 0,0 mm 0,5 km/h (0 Bft) W 259 ° 0 min 0,000 mm 0,0 UV-I 0 W/m² 7,1 °C 8,3 °C 3,2 km/h (1 Bft)
16.05.2018 22:14 8,3 °C 92 % 1014,5 hPa 0,0 mm 2,4 km/h (1 Bft) W 259 ° 0 min 0,000 mm 0,0 UV-I 0 W/m² 7,1 °C 8,3 °C 4,8 km/h (1 Bft)
16.05.2018 22:15 8,3 °C 92 % 1014,6 hPa 0,0 mm 2,1 km/h (1 Bft) W 259 ° 0 min 0,000 mm 0,0 UV-I 0 W/m² 7,1 °C 8,3 °C 4,8 km/h (1 Bft)
16.05.2018 22:16 8,3 °C 92 % 1014,6 hPa 0,0 mm 1,9 km/h (1 Bft) W 259 ° 0 min 0,000 mm 0,0 UV-I 0 W/m² 7,1 °C 8,3 °C 3,2 km/h (1 Bft)
16.05.2018 22:17 8,3 °C 92 % 1014,5 hPa 0,0 mm 1,5 km/h (1 Bft) SW 221 ° 0 min 0,000 mm 0,0 UV-I 0 W/m² 7,1 °C 8,3 °C 6,4 km/h (2 Bft)
16.05.2018 22:18 8,3 °C 92 % 1014,5 hPa 0,0 mm 5,6 km/h (1 Bft) W-SW 250 ° 0 min 0,000 mm 0,0 UV-I 0 W/m² 7,1 °C 7,6 °C 9,7 km/h (2 Bft)
16.05.2018 22:19 8,3 °C 92 % 1014,5 hPa 0,0 mm 2,2 km/h (1 Bft) W-SW 250 ° 0 min 0,000 mm 0,0 UV-I 0 W/m² 7,1 °C 8,3 °C 3,2 km/h (1 Bft)
16.05.2018 22:20 8,3 °C 92 % 1014,6 hPa 0,0 mm 1,1 km/h (1 Bft) W-SW 250 ° 0 min 0,000 mm 0,0 UV-I 0 W/m² 7,1 °C 8,3 °C 3,2 km/h (1 Bft)
16.05.2018 22:21 8,3 °C 92 % 1014,5 hPa 0,0 mm 1,3 km/h (1 Bft) W-NW 285 ° 0 min 0,000 mm 0,0 UV-I 0 W/m² 7,1 °C 8,3 °C 3,2 km/h (1 Bft)
16.05.2018 22:22 8,3 °C 92 % 1014,6 hPa 0,0 mm 4,2 km/h (1 Bft) W-SW 239 ° 0 min 0,000 mm 0,0 UV-I 0 W/m² 7,1 °C 8,3 °C 6,4 km/h (2 Bft)
16.05.2018 22:23 8,3 °C 92 % 1014,5 hPa 0,0 mm 3,0 km/h (1 Bft) SW 230 ° 0 min 0,000 mm 0,0 UV-I 0 W/m² 7,1 °C 8,3 °C 6,4 km/h (2 Bft)
16.05.2018 22:24 8,3 °C 92 % 1014,6 hPa 0,0 mm 0,7 km/h (0 Bft) SW 230 ° 0 min 0,000 mm 0,0 UV-I 0 W/m² 7,1 °C 8,3 °C 1,6 km/h (1 Bft)
16.05.2018 22:25 8,3 °C 92 % 1014,5 hPa 0,0 mm 0,9 km/h (0 Bft) SW 230 ° 0 min 0,000 mm 0,0 UV-I 0 W/m² 7,1 °C 8,3 °C 3,2 km/h (1 Bft)
16.05.2018 22:26 8,3 °C 92 % 1014,6 hPa 0,0 mm 1,7 km/h (1 Bft) W 273 ° 0 min 0,000 mm 0,0 UV-I 0 W/m² 7,1 °C 8,3 °C 6,4 km/h (2 Bft)
16.05.2018 22:27 8,3 °C 92 % 1014,5 hPa 0,0 mm 5,5 km/h (1 Bft) S-SW 197 ° 0 min 0,000 mm 0,0 UV-I 0 W/m² 7,1 °C 7,7 °C 9,7 km/h (2 Bft)
16.05.2018 22:28 8,3 °C 92 % 1014,6 hPa 0,0 mm 2,9 km/h (1 Bft) W 267 ° 0 min 0,000 mm 0,0 UV-I 0 W/m² 7,1 °C 8,3 °C 4,8 km/h (1 Bft)
16.05.2018 22:29 8,3 °C 92 % 1014,5 hPa 0,0 mm 4,5 km/h (1 Bft) SW 227 ° 0 min 0,000 mm 0,0 UV-I 0 W/m² 7,1 °C 8,3 °C 8,0 km/h (2 Bft)
16.05.2018 22:30 8,3 °C 92 % 1014,6 hPa 0,0 mm 1,9 km/h (1 Bft) SW 227 ° 0 min 0,000 mm 0,0 UV-I 0 W/m² 7,1 °C 8,3 °C 4,8 km/h (1 Bft)
16.05.2018 22:31 8,4 °C 92 % 1014,6 hPa 0,0 mm 5,0 km/h (1 Bft) W-SW 252 ° 0 min 0,000 mm 0,0 UV-I 0 W/m² 7,2 °C 7,9 °C 12,9 km/h (3 Bft)
16.05.2018 22:32 8,4 °C 92 % 1014,6 hPa 0,0 mm 3,8 km/h (1 Bft) W-SW 250 ° 0 min 0,000 mm 0,0 UV-I 0 W/m² 7,2 °C 8,4 °C 8,0 km/h (2 Bft)
16.05.2018 22:33 8,4 °C 92 % 1014,6 hPa 0,0 mm 6,5 km/h (2 Bft) S 184 ° 0 min 0,000 mm 0,0 UV-I 0 W/m² 7,2 °C 7,5 °C 9,7 km/h (2 Bft)
16.05.2018 22:34 8,4 °C 92 % 1014,6 hPa 0,0 mm 3,7 km/h (1 Bft) SW 229 ° 0 min 0,000 mm 0,0 UV-I 0 W/m² 7,2 °C 8,4 °C 9,7 km/h (2 Bft)
16.05.2018 22:35 8,4 °C 92 % 1014,6 hPa 0,0 mm 3,4 km/h (1 Bft) SW 228 ° 0 min 0,000 mm 0,0 UV-I 0 W/m² 7,2 °C 8,4 °C 6,4 km/h (2 Bft)
16.05.2018 22:36 8,4 °C 92 % 1014,6 hPa 0,0 mm 2,7 km/h (1 Bft) W 277 ° 0 min 0,000 mm 0,0 UV-I 0 W/m² 7,2 °C 8,4 °C 6,4 km/h (2 Bft)
16.05.2018 22:37 8,4 °C 92 % 1014,6 hPa 0,0 mm 6,3 km/h (2 Bft) W 267 ° 0 min 0,000 mm 0,0 UV-I 0 W/m² 7,2 °C 7,5 °C 11,3 km/h (2 Bft)
16.05.2018 22:38 8,4 °C 92 % 1014,6 hPa 0,0 mm 5,9 km/h (2 Bft) SW 223 ° 0 min 0,000 mm 0,0 UV-I 0 W/m² 7,2 °C 7,7 °C 9,7 km/h (2 Bft)
16.05.2018 22:39 8,4 °C 92 % 1014,6 hPa 0,0 mm 5,6 km/h (1 Bft) W-SW 242 ° 0 min 0,000 mm 0,0 UV-I 0 W/m² 7,2 °C 7,7 °C 9,7 km/h (2 Bft)
16.05.2018 22:40 8,4 °C 92 % 1014,6 hPa 0,0 mm 4,2 km/h (1 Bft) SW 233 ° 0 min 0,000 mm 0,0 UV-I 0 W/m² 7,2 °C 8,4 °C 8,0 km/h (2 Bft)
16.05.2018 22:41 8,4 °C 92 % 1014,6 hPa 0,0 mm 1,1 km/h (1 Bft) SW 233 ° 0 min 0,000 mm 0,0 UV-I 0 W/m² 7,2 °C 8,4 °C 3,2 km/h (1 Bft)
16.05.2018 22:42 8,4 °C 92 % 1014,6 hPa 0,0 mm 6,0 km/h (2 Bft) NW 309 ° 0 min 0,000 mm 0,0 UV-I 0 W/m² 7,2 °C 7,6 °C 11,3 km/h (2 Bft)
16.05.2018 22:43 8,4 °C 92 % 1014,6 hPa 0,0 mm 1,0 km/h (0 Bft) NW 309 ° 0 min 0,000 mm 0,0 UV-I 0 W/m² 7,2 °C 8,4 °C 3,2 km/h (1 Bft)
16.05.2018 22:44 8,4 °C 92 % 1014,6 hPa 0,0 mm 5,6 km/h (1 Bft) SW 236 ° 0 min 0,000 mm 0,0 UV-I 0 W/m² 7,2 °C 7,7 °C 12,9 km/h (3 Bft)
16.05.2018 22:45 8,4 °C 92 % 1014,6 hPa 0,0 mm 3,4 km/h (1 Bft) W-SW 242 ° 0 min 0,000 mm 0,0 UV-I 0 W/m² 7,2 °C 8,4 °C 6,4 km/h (2 Bft)
16.05.2018 22:46 8,4 °C 92 % 1014,6 hPa 0,0 mm 2,6 km/h (1 Bft) W 276 ° 0 min 0,000 mm 0,0 UV-I 0 W/m² 7,2 °C 8,4 °C 4,8 km/h (1 Bft)
16.05.2018 22:47 8,4 °C 92 % 1014,6 hPa 0,0 mm 5,9 km/h (2 Bft) W-SW 248 ° 0 min 0,000 mm 0,0 UV-I 0 W/m² 7,2 °C 7,7 °C 11,3 km/h (2 Bft)
16.05.2018 22:48 8,4 °C 92 % 1014,7 hPa 0,0 mm 1,5 km/h (1 Bft) W-SW 251 ° 0 min 0,000 mm 0,0 UV-I 0 W/m² 7,2 °C 8,4 °C 4,8 km/h (1 Bft)
16.05.2018 22:49 8,4 °C 92 % 1014,7 hPa 0,0 mm 10,3 km/h (2 Bft) W-SW 251 ° 0 min 0,000 mm 0,0 UV-I 0 W/m² 7,2 °C 6,7 °C 14,5 km/h (3 Bft)
16.05.2018 22:50 8,4 °C 92 % 1014,7 hPa 0,0 mm 3,8 km/h (1 Bft) W-NW 284 ° 0 min 0,000 mm 0,0 UV-I 0 W/m² 7,2 °C 8,4 °C 4,8 km/h (1 Bft)
16.05.2018 22:51 8,4 °C 92 % 1014,7 hPa 0,0 mm 4,6 km/h (1 Bft) SW 233 ° 0 min 0,000 mm 0,0 UV-I 0 W/m² 7,2 °C 8,1 °C 11,3 km/h (2 Bft)
16.05.2018 22:52 8,4 °C 92 % 1014,7 hPa 0,0 mm 3,0 km/h (1 Bft) W-SW 241 ° 0 min 0,000 mm 0,0 UV-I 0 W/m² 7,2 °C 8,4 °C 8,0 km/h (2 Bft)
16.05.2018 22:53 8,4 °C 92 % 1014,7 hPa 0,0 mm 2,5 km/h (1 Bft) SW 225 ° 0 min 0,000 mm 0,0 UV-I 0 W/m² 7,2 °C 8,4 °C 6,4 km/h (2 Bft)
16.05.2018 22:54 8,4 °C 92 % 1014,7 hPa 0,0 mm 0,4 km/h (0 Bft) SW 225 ° 0 min 0,000 mm 0,0 UV-I 0 W/m² 7,2 °C 8,4 °C 1,6 km/h (1 Bft)
16.05.2018 22:55 8,4 °C 92 % 1014,7 hPa 0,0 mm 0,7 km/h (0 Bft) SW 225 ° 0 min 0,000 mm 0,0 UV-I 0 W/m² 7,2 °C 8,4 °C 1,6 km/h (1 Bft)
16.05.2018 22:56 8,4 °C 92 % 1014,7 hPa 0,0 mm 1,9 km/h (1 Bft) W-NW 302 ° 0 min 0,000 mm 0,0 UV-I 0 W/m² 7,2 °C 8,4 °C 8,0 km/h (2 Bft)
16.05.2018 22:57 8,4 °C 92 % 1014,7 hPa 0,0 mm 2,8 km/h (1 Bft) SW 227 ° 0 min 0,000 mm 0,0 UV-I 0 W/m² 7,2 °C 8,4 °C 8,0 km/h (2 Bft)
16.05.2018 22:58 8,4 °C 92 % 1014,7 hPa 0,0 mm 1,0 km/h (0 Bft) SW 236 ° 0 min 0,000 mm 0,0 UV-I 0 W/m² 7,2 °C 8,4 °C 3,2 km/h (1 Bft)
16.05.2018 22:59 8,4 °C 92 % 1014,7 hPa 0,0 mm 5,4 km/h (1 Bft) S-SW 211 ° 0 min 0,000 mm 0,0 UV-I 0 W/m² 7,2 °C 7,8 °C 11,3 km/h (2 Bft)
16.05.2018 23:00 8,4 °C 92 % 1014,7 hPa 0,0 mm 3,0 km/h (1 Bft) SW 231 ° 0 min 0,000 mm 0,0 UV-I 0 W/m² 7,2 °C 8,4 °C 6,4 km/h (2 Bft)
16.05.2018 23:01 8,4 °C 92 % 1014,7 hPa 0,0 mm 4,0 km/h (1 Bft) W 259 ° 0 min 0,000 mm 0,0 UV-I 0 W/m² 7,2 °C 8,4 °C 6,4 km/h (2 Bft)
16.05.2018 23:02 8,4 °C 92 % 1014,7 hPa 0,0 mm 0,8 km/h (0 Bft) W-SW 256 ° 0 min 0,000 mm 0,0 UV-I 0 W/m² 7,2 °C 8,4 °C 1,6 km/h (1 Bft)
16.05.2018 23:03 8,4 °C 92 % 1014,7 hPa 0,0 mm 3,6 km/h (1 Bft) S-SW 193 ° 0 min 0,000 mm 0,0 UV-I 0 W/m² 7,2 °C 8,4 °C 6,4 km/h (2 Bft)
16.05.2018 23:04 8,4 °C 92 % 1014,7 hPa 0,0 mm 5,8 km/h (2 Bft) SW 229 ° 0 min 0,000 mm 0,0 UV-I 0 W/m² 7,2 °C 7,7 °C 11,3 km/h (2 Bft)
16.05.2018 23:05 8,4 °C 92 % 1014,7 hPa 0,0 mm 3,4 km/h (1 Bft) W 263 ° 0 min 0,000 mm 0,0 UV-I 0 W/m² 7,2 °C 8,4 °C 6,4 km/h (2 Bft)
16.05.2018 23:06 8,4 °C 92 % 1014,8 hPa 0,0 mm 7,4 km/h (2 Bft) SW 227 ° 0 min 0,000 mm 0,0 UV-I 0 W/m² 7,2 °C 7,3 °C 12,9 km/h (3 Bft)
16.05.2018 23:07 8,4 °C 92 % 1014,7 hPa 0,0 mm 5,2 km/h (1 Bft) W-SW 246 ° 0 min 0,000 mm 0,0 UV-I 0 W/m² 7,2 °C 7,9 °C 6,4 km/h (2 Bft)
16.05.2018 23:08 8,4 °C 92 % 1014,8 hPa 0,0 mm 3,6 km/h (1 Bft) W-SW 257 ° 0 min 0,000 mm 0,0 UV-I 0 W/m² 7,2 °C 8,4 °C 6,4 km/h (2 Bft)
16.05.2018 23:09 8,4 °C 92 % 1014,7 hPa 0,0 mm 3,6 km/h (1 Bft) W 265 ° 0 min 0,000 mm 0,0 UV-I 0 W/m² 7,2 °C 8,4 °C 8,0 km/h (2 Bft)
16.05.2018 23:10 8,4 °C 92 % 1014,7 hPa 0,0 mm 5,4 km/h (1 Bft) W-SW 257 ° 0 min 0,000 mm 0,0 UV-I 0 W/m² 7,2 °C 7,8 °C 8,0 km/h (2 Bft)
16.05.2018 23:11 8,4 °C 92 % 1014,7 hPa 0,0 mm 4,0 km/h (1 Bft) W 265 ° 0 min 0,000 mm 0,0 UV-I 0 W/m² 7,2 °C 8,4 °C 6,4 km/h (2 Bft)
16.05.2018 23:12 8,4 °C 92 % 1014,7 hPa 0,0 mm 4,1 km/h (1 Bft) W 266 ° 0 min 0,000 mm 0,0 UV-I 0 W/m² 7,2 °C 8,4 °C 4,8 km/h (1 Bft)
16.05.2018 23:13 8,3 °C 92 % 1014,7 hPa 0,0 mm 5,4 km/h (1 Bft) W-SW 253 ° 0 min 0,000 mm 0,0 UV-I 0 W/m² 7,1 °C 7,7 °C 9,7 km/h (2 Bft)
16.05.2018 23:14 8,3 °C 92 % 1014,8 hPa 0,0 mm 3,8 km/h (1 Bft) W-SW 238 ° 0 min 0,000 mm 0,0 UV-I 0 W/m² 7,1 °C 8,3 °C 8,0 km/h (2 Bft)
16.05.2018 23:15 8,3 °C 92 % 1014,8 hPa 0,0 mm 5,8 km/h (2 Bft) S-SW 197 ° 0 min 0,000 mm 0,0 UV-I 0 W/m² 7,1 °C 7,6 °C 11,3 km/h (2 Bft)
16.05.2018 23:16 8,3 °C 92 % 1014,7 hPa 0,0 mm 2,4 km/h (1 Bft) W 259 ° 0 min 0,000 mm 0,0 UV-I 0 W/m² 7,1 °C 8,3 °C 4,8 km/h (1 Bft)
16.05.2018 23:17 8,3 °C 92 % 1014,8 hPa 0,0 mm 5,8 km/h (2 Bft) W-SW 239 ° 0 min 0,000 mm 0,0 UV-I 0 W/m² 7,1 °C 7,6 °C 12,9 km/h (3 Bft)
16.05.2018 23:18 8,3 °C 92 % 1014,8 hPa 0,0 mm 4,7 km/h (1 Bft) W 269 ° 0 min 0,000 mm 0,0 UV-I 0 W/m² 7,1 °C 7,9 °C 8,0 km/h (2 Bft)
16.05.2018 23:19 8,4 °C 92 % 1014,8 hPa 0,0 mm 1,7 km/h (1 Bft) W-SW 250 ° 0 min 0,000 mm 0,0 UV-I 0 W/m² 7,2 °C 8,4 °C 4,8 km/h (1 Bft)
16.05.2018 23:20 8,4 °C 92 % 1014,9 hPa 0,0 mm 1,2 km/h (1 Bft) W-SW 243 ° 0 min 0,000 mm 0,0 UV-I 0 W/m² 7,2 °C 8,4 °C 3,2 km/h (1 Bft)
16.05.2018 23:21 8,4 °C 92 % 1014,8 hPa 0,0 mm 2,5 km/h (1 Bft) W-SW 244 ° 0 min 0,000 mm 0,0 UV-I 0 W/m² 7,2 °C 8,4 °C 4,8 km/h (1 Bft)
16.05.2018 23:22 8,4 °C 92 % 1014,8 hPa 0,0 mm 6,6 km/h (2 Bft) W 261 ° 0 min 0,000 mm 0,0 UV-I 0 W/m² 7,2 °C 7,5 °C 9,7 km/h (2 Bft)
16.05.2018 23:23 8,4 °C 92 % 1014,8 hPa 0,0 mm 6,5 km/h (2 Bft) W-SW 252 ° 0 min 0,000 mm 0,0 UV-I 0 W/m² 7,2 °C 7,5 °C 11,3 km/h (2 Bft)
16.05.2018 23:24 8,4 °C 92 % 1014,8 hPa 0,0 mm 4,8 km/h (1 Bft) W 261 ° 0 min 0,000 mm 0,0 UV-I 0 W/m² 7,2 °C 8,0 °C 6,4 km/h (2 Bft)
16.05.2018 23:25 8,4 °C 92 % 1014,8 hPa 0,0 mm 2,7 km/h (1 Bft) W 261 ° 0 min 0,000 mm 0,0 UV-I 0 W/m² 7,2 °C 8,4 °C 4,8 km/h (1 Bft)
16.05.2018 23:26 8,4 °C 92 % 1014,9 hPa 0,0 mm 1,4 km/h (1 Bft) W-SW 244 ° 0 min 0,000 mm 0,0 UV-I 0 W/m² 7,2 °C 8,4 °C 3,2 km/h (1 Bft)
16.05.2018 23:27 8,4 °C 92 % 1014,8 hPa 0,0 mm 0,0 km/h (0 Bft) W-SW 244 ° 0 min 0,000 mm 0,0 UV-I 0 W/m² 7,2 °C 8,4 °C 0,0 km/h (0 Bft)
16.05.2018 23:28 8,3 °C 92 % 1014,8 hPa 0,0 mm 2,5 km/h (1 Bft) NW 314 ° 0 min 0,000 mm 0,0 UV-I 0 W/m² 7,1 °C 8,3 °C 4,8 km/h (1 Bft)
16.05.2018 23:29 8,3 °C 92 % 1014,9 hPa 0,0 mm 1,4 km/h (1 Bft) W-SW 244 ° 0 min 0,000 mm 0,0 UV-I 0 W/m² 7,1 °C 8,3 °C 3,2 km/h (1 Bft)
16.05.2018 23:30 8,4 °C 92 % 1014,8 hPa 0,0 mm 4,0 km/h (1 Bft) W-NW 290 ° 0 min 0,000 mm 0,0 UV-I 0 W/m² 7,2 °C 8,4 °C 6,4 km/h (2 Bft)
16.05.2018 23:31 8,4 °C 92 % 1014,8 hPa 0,0 mm 5,4 km/h (1 Bft) SW 223 ° 0 min 0,000 mm 0,0 UV-I 0 W/m² 7,2 °C 7,8 °C 8,0 km/h (2 Bft)
16.05.2018 23:32 8,4 °C 92 % 1014,8 hPa 0,0 mm 2,7 km/h (1 Bft) SW 223 ° 0 min 0,000 mm 0,0 UV-I 0 W/m² 7,2 °C 8,4 °C 4,8 km/h (1 Bft)
16.05.2018 23:33 8,4 °C 92 % 1014,9 hPa 0,0 mm 3,8 km/h (1 Bft) SW 215 ° 0 min 0,000 mm 0,0 UV-I 0 W/m² 7,2 °C 8,4 °C 6,4 km/h (2 Bft)
16.05.2018 23:34 8,4 °C 92 % 1014,8 hPa 0,0 mm 2,3 km/h (1 Bft) W 261 ° 0 min 0,000 mm 0,0 UV-I 0 W/m² 7,2 °C 8,4 °C 4,8 km/h (1 Bft)
16.05.2018 23:35 8,4 °C 92 % 1014,8 hPa 0,0 mm 7,2 km/h (2 Bft) W-NW 292 ° 0 min 0,000 mm 0,0 UV-I 0 W/m² 7,2 °C 7,3 °C 11,3 km/h (2 Bft)
16.05.2018 23:36 8,4 °C 92 % 1014,8 hPa 0,0 mm 2,3 km/h (1 Bft) S-SW 208 ° 0 min 0,000 mm 0,0 UV-I 0 W/m² 7,2 °C 8,4 °C 6,4 km/h (2 Bft)
16.05.2018 23:37 8,4 °C 91 % 1014,9 hPa 0,0 mm 0,8 km/h (0 Bft) S-SW 209 ° 0 min 0,000 mm 0,0 UV-I 0 W/m² 7,0 °C 8,4 °C 3,2 km/h (1 Bft)
16.05.2018 23:38 8,4 °C 91 % 1014,9 hPa 0,0 mm 2,7 km/h (1 Bft) W-SW 242 ° 0 min 0,000 mm 0,0 UV-I 0 W/m² 7,0 °C 8,4 °C 3,2 km/h (1 Bft)
16.05.2018 23:39 8,5 °C 91 % 1014,9 hPa 0,0 mm 2,4 km/h (1 Bft) SW 215 ° 0 min 0,000 mm 0,0 UV-I 0 W/m² 7,1 °C 8,5 °C 4,8 km/h (1 Bft)
16.05.2018 23:40 8,4 °C 91 % 1014,8 hPa 0,0 mm 3,7 km/h (1 Bft) SW 232 ° 0 min 0,000 mm 0,0 UV-I 0 W/m² 7,0 °C 8,4 °C 9,7 km/h (2 Bft)
16.05.2018 23:41 8,5 °C 91 % 1014,8 hPa 0,0 mm 4,6 km/h (1 Bft) W-SW 245 ° 0 min 0,000 mm 0,0 UV-I 0 W/m² 7,1 °C 8,2 °C 9,7 km/h (2 Bft)
16.05.2018 23:42 8,4 °C 91 % 1014,9 hPa 0,0 mm 1,8 km/h (1 Bft) W-SW 245 ° 0 min 0,000 mm 0,0 UV-I 0 W/m² 7,0 °C 8,4 °C 3,2 km/h (1 Bft)
16.05.2018 23:43 8,4 °C 91 % 1014,8 hPa 0,0 mm 3,7 km/h (1 Bft) W 263 ° 0 min 0,000 mm 0,0 UV-I 0 W/m² 7,0 °C 8,4 °C 6,4 km/h (2 Bft)
16.05.2018 23:44 8,4 °C 91 % 1014,8 hPa 0,0 mm 1,3 km/h (1 Bft) W-SW 246 ° 0 min 0,000 mm 0,0 UV-I 0 W/m² 7,0 °C 8,4 °C 3,2 km/h (1 Bft)
16.05.2018 23:45 8,4 °C 91 % 1014,8 hPa 0,0 mm 0,8 km/h (0 Bft) W-SW 246 ° 0 min 0,000 mm 0,0 UV-I 0 W/m² 7,0 °C 8,4 °C 1,6 km/h (1 Bft)
16.05.2018 23:46 8,4 °C 91 % 1014,7 hPa 0,0 mm 5,3 km/h (1 Bft) W-SW 254 ° 0 min 0,000 mm 0,0 UV-I 0 W/m² 7,0 °C 7,8 °C 16,1 km/h (3 Bft)
16.05.2018 23:47 8,4 °C 91 % 1014,7 hPa 0,0 mm 4,4 km/h (1 Bft) SW 220 ° 0 min 0,000 mm 0,0 UV-I 0 W/m² 7,0 °C 8,4 °C 11,3 km/h (2 Bft)
16.05.2018 23:48 8,4 °C 91 % 1014,7 hPa 0,0 mm 1,8 km/h (1 Bft) SW 220 ° 0 min 0,000 mm 0,0 UV-I 0 W/m² 7,0 °C 8,4 °C 3,2 km/h (1 Bft)
16.05.2018 23:49 8,4 °C 91 % 1014,7 hPa 0,0 mm 2,2 km/h (1 Bft) SW 219 ° 0 min 0,000 mm 0,0 UV-I 0 W/m² 7,0 °C 8,4 °C 4,8 km/h (1 Bft)
16.05.2018 23:50 8,4 °C 91 % 1014,7 hPa 0,0 mm 2,4 km/h (1 Bft) SW 229 ° 0 min 0,000 mm 0,0 UV-I 0 W/m² 7,0 °C 8,4 °C 4,8 km/h (1 Bft)
16.05.2018 23:51 8,4 °C 91 % 1014,7 hPa 0,0 mm 4,4 km/h (1 Bft) W-SW 243 ° 0 min 0,000 mm 0,0 UV-I 0 W/m² 7,0 °C 8,4 °C 8,0 km/h (2 Bft)
16.05.2018 23:52 8,4 °C 91 % 1014,7 hPa 0,0 mm 4,4 km/h (1 Bft) SW 233 ° 0 min 0,000 mm 0,0 UV-I 0 W/m² 7,0 °C 8,4 °C 8,0 km/h (2 Bft)
16.05.2018 23:53 8,5 °C 91 % 1014,7 hPa 0,0 mm 2,3 km/h (1 Bft) SW 236 ° 0 min 0,000 mm 0,0 UV-I 0 W/m² 7,1 °C 8,5 °C 6,4 km/h (2 Bft)
16.05.2018 23:54 8,4 °C 91 % 1014,6 hPa 0,0 mm 1,5 km/h (1 Bft) W-NW 285 ° 0 min 0,000 mm 0,0 UV-I 0 W/m² 7,0 °C 8,4 °C 4,8 km/h (1 Bft)
16.05.2018 23:55 8,4 °C 91 % 1014,7 hPa 0,0 mm 1,4 km/h (1 Bft) W-NW 285 ° 0 min 0,000 mm 0,0 UV-I 0 W/m² 7,0 °C 8,4 °C 4,8 km/h (1 Bft)
16.05.2018 23:56 8,4 °C 91 % 1014,7 hPa 0,0 mm 4,1 km/h (1 Bft) W-NW 286 ° 0 min 0,000 mm 0,0 UV-I 0 W/m² 7,0 °C 8,4 °C 6,4 km/h (2 Bft)
16.05.2018 23:57 8,4 °C 91 % 1014,7 hPa 0,0 mm 4,4 km/h (1 Bft) SW 224 ° 0 min 0,000 mm 0,0 UV-I 0 W/m² 7,0 °C 8,4 °C 6,4 km/h (2 Bft)
16.05.2018 23:58 8,4 °C 91 % 1014,7 hPa 0,0 mm 1,3 km/h (1 Bft) S 186 ° 0 min 0,000 mm 0,0 UV-I 0 W/m² 7,0 °C 8,4 °C 3,2 km/h (1 Bft)
16.05.2018 23:59 8,4 °C 91 % 1014,7 hPa 0,0 mm 3,4 km/h (1 Bft) W-SW 248 ° 0 min 0,000 mm 0,0 UV-I 0 W/m² 7,0 °C 8,4 °C 6,4 km/h (2 Bft)
_ Min-Zeit 03:07 17:44 06:43 - 23:27 - - - - - - 03:07 01:17 23:27
Minimum _ 7,1 °C 89 % 1011,1 hPa - 0,0 km/h (0 Bft) - - - - - - 5,6 °C 5,9 °C 0,0 km/h (0 Bft)
_ Max-Zeit 17:20 21:00 23:42 17:36 18:14 - - 15:39 16:00 15:39 15:39 15:42 17:20 18:38
Maximum _ 10,6 °C 93 % 1014,9 hPa 0,2 mm 15,4 km/h
W-NW (3 Bft)
- - 1 min 0,102 mm 2,3 UV-I 295 W/m² 9,2 °C 10,6 °C 22,5 km/h
W (4 Bft)
Durchschnitt _ 8,7 °C 92 % 1012,5 hPa #0,6 mm 4,1 km/h (1 Bft) W - #2 min. #0,762 mm 1,2 UV-I 65 W/m² 7,4 °C 8,4 °C 7,4 km/h (2 Bft)